<?xml version="1.0" encoding="UTF-8" standalone="no" ?>
<gpx xmlns="http://www.topografix.com/GPX/1/1" xmlns:xsi="http://www.w3.org/2001/XMLSchema-instance" xsi:schemaLocation="http://www.topografix.com/GPX/1/1 http://www.topografix.com/GPX/1/1/gpx.xsd" version="1.1" creator="VisuGPX - https://www.visugpx.com">
  <metadata>
    <name>VTT-NonTest_Rando-des-blanchisseurs_51km_1200D</name>
  </metadata>
  <trk>
    <name><![CDATA[VTT-NonTest_Rando-des-blanchisseurs_51km_1200D]]></name>
    <extensions>
      <line xmlns="http://www.topografix.com/GPX/gpx_style/0/2">
        <color>0000FF</color>
        <width>4</width>
      </line>
    </extensions>
    <trkseg>
      <trkpt lat="45.74593" lon="4.72344">
        <ele>282</ele>
        <time>2019-09-01T19:55:49.000Z</time>
      </trkpt>
      <trkpt lat="45.74589" lon="4.72284">
        <ele>283</ele>
        <time>2019-09-01T19:55:49.835Z</time>
      </trkpt>
      <trkpt lat="45.74585" lon="4.7226">
        <ele>283</ele>
        <time>2019-09-01T19:55:50.182Z</time>
      </trkpt>
      <trkpt lat="45.74586" lon="4.72255">
        <ele>283</ele>
        <time>2019-09-01T19:55:50.254Z</time>
      </trkpt>
      <trkpt lat="45.74582" lon="4.72246">
        <ele>283</ele>
        <time>2019-09-01T19:55:50.405Z</time>
      </trkpt>
      <trkpt lat="45.74582" lon="4.72238">
        <ele>283</ele>
        <time>2019-09-01T19:55:50.515Z</time>
      </trkpt>
      <trkpt lat="45.74579" lon="4.72239">
        <ele>283</ele>
        <time>2019-09-01T19:55:50.580Z</time>
      </trkpt>
      <trkpt lat="45.74577" lon="4.72244">
        <ele>283</ele>
        <time>2019-09-01T19:55:50.652Z</time>
      </trkpt>
      <trkpt lat="45.74577" lon="4.72248">
        <ele>283</ele>
        <time>2019-09-01T19:55:50.718Z</time>
      </trkpt>
      <trkpt lat="45.74585" lon="4.72248">
        <ele>283</ele>
        <time>2019-09-01T19:55:50.868Z</time>
      </trkpt>
      <trkpt lat="45.7459" lon="4.72244">
        <ele>283</ele>
        <time>2019-09-01T19:55:50.989Z</time>
      </trkpt>
      <trkpt lat="45.74589" lon="4.72252">
        <ele>283</ele>
        <time>2019-09-01T19:55:51.094Z</time>
      </trkpt>
      <trkpt lat="45.74586" lon="4.72255">
        <ele>283</ele>
        <time>2019-09-01T19:55:51.175Z</time>
      </trkpt>
      <trkpt lat="45.74584" lon="4.72268">
        <ele>283</ele>
        <time>2019-09-01T19:55:51.366Z</time>
      </trkpt>
      <trkpt lat="45.74586" lon="4.72315">
        <ele>282.7</ele>
        <time>2019-09-01T19:55:52.020Z</time>
      </trkpt>
      <trkpt lat="45.74584" lon="4.72365">
        <ele>282</ele>
        <time>2019-09-01T19:55:52.730Z</time>
      </trkpt>
      <trkpt lat="45.74586" lon="4.72431">
        <ele>282.1</ele>
        <time>2019-09-01T19:55:53.647Z</time>
      </trkpt>
      <trkpt lat="45.7459" lon="4.72489">
        <ele>282</ele>
        <time>2019-09-01T19:55:54.465Z</time>
      </trkpt>
      <trkpt lat="45.74589" lon="4.72667">
        <ele>280.4</ele>
        <time>2019-09-01T19:55:56.949Z</time>
      </trkpt>
      <trkpt lat="45.74586" lon="4.72671">
        <ele>280.2</ele>
        <time>2019-09-01T19:55:57.041Z</time>
      </trkpt>
      <trkpt lat="45.74578" lon="4.72668">
        <ele>280</ele>
        <time>2019-09-01T19:55:57.199Z</time>
      </trkpt>
      <trkpt lat="45.74553" lon="4.72632">
        <ele>280.2</ele>
        <time>2019-09-01T19:55:57.914Z</time>
      </trkpt>
      <trkpt lat="45.74539" lon="4.72627">
        <ele>280.2</ele>
        <time>2019-09-01T19:55:58.208Z</time>
      </trkpt>
      <trkpt lat="45.74363" lon="4.72688">
        <ele>277.2</ele>
        <time>2019-09-01T19:56:01.843Z</time>
      </trkpt>
      <trkpt lat="45.74353" lon="4.72689">
        <ele>276.9</ele>
        <time>2019-09-01T19:56:02.045Z</time>
      </trkpt>
      <trkpt lat="45.74337" lon="4.72689">
        <ele>276.3</ele>
        <time>2019-09-01T19:56:02.350Z</time>
      </trkpt>
      <trkpt lat="45.74327" lon="4.72692">
        <ele>276.1</ele>
        <time>2019-09-01T19:56:02.558Z</time>
      </trkpt>
      <trkpt lat="45.74229" lon="4.72739">
        <ele>274</ele>
        <time>2019-09-01T19:56:04.639Z</time>
      </trkpt>
      <trkpt lat="45.74208" lon="4.72743">
        <ele>273.4</ele>
        <time>2019-09-01T19:56:05.049Z</time>
      </trkpt>
      <trkpt lat="45.74157" lon="4.72751">
        <ele>271.3</ele>
        <time>2019-09-01T19:56:06.091Z</time>
      </trkpt>
      <trkpt lat="45.74145" lon="4.72757">
        <ele>270.6</ele>
        <time>2019-09-01T19:56:06.342Z</time>
      </trkpt>
      <trkpt lat="45.74103" lon="4.72795">
        <ele>269.2</ele>
        <time>2019-09-01T19:56:07.339Z</time>
      </trkpt>
      <trkpt lat="45.7408" lon="4.72813">
        <ele>268.8</ele>
        <time>2019-09-01T19:56:07.866Z</time>
      </trkpt>
      <trkpt lat="45.74048" lon="4.72832">
        <ele>267.7</ele>
        <time>2019-09-01T19:56:08.563Z</time>
      </trkpt>
      <trkpt lat="45.74013" lon="4.72843">
        <ele>266.8</ele>
        <time>2019-09-01T19:56:09.281Z</time>
      </trkpt>
      <trkpt lat="45.73958" lon="4.72855">
        <ele>262.8</ele>
        <time>2019-09-01T19:56:10.381Z</time>
      </trkpt>
      <trkpt lat="45.73945" lon="4.7287">
        <ele>262.3</ele>
        <time>2019-09-01T19:56:10.728Z</time>
      </trkpt>
      <trkpt lat="45.73926" lon="4.72902">
        <ele>261</ele>
        <time>2019-09-01T19:56:11.303Z</time>
      </trkpt>
      <trkpt lat="45.73906" lon="4.72945">
        <ele>258.9</ele>
        <time>2019-09-01T19:56:12.033Z</time>
      </trkpt>
      <trkpt lat="45.73902" lon="4.72959">
        <ele>256.8</ele>
        <time>2019-09-01T19:56:12.247Z</time>
      </trkpt>
      <trkpt lat="45.739" lon="4.73001">
        <ele>252.2</ele>
        <time>2019-09-01T19:56:12.830Z</time>
      </trkpt>
      <trkpt lat="45.73897" lon="4.73039">
        <ele>251.9</ele>
        <time>2019-09-01T19:56:13.364Z</time>
      </trkpt>
      <trkpt lat="45.7389" lon="4.73059">
        <ele>252.2</ele>
        <time>2019-09-01T19:56:13.675Z</time>
      </trkpt>
      <trkpt lat="45.73878" lon="4.73078">
        <ele>249.9</ele>
        <time>2019-09-01T19:56:14.036Z</time>
      </trkpt>
      <trkpt lat="45.73871" lon="4.73092">
        <ele>248.1</ele>
        <time>2019-09-01T19:56:14.277Z</time>
      </trkpt>
      <trkpt lat="45.73858" lon="4.73128">
        <ele>243.4</ele>
        <time>2019-09-01T19:56:14.842Z</time>
      </trkpt>
      <trkpt lat="45.73854" lon="4.73151">
        <ele>240.6</ele>
        <time>2019-09-01T19:56:15.169Z</time>
      </trkpt>
      <trkpt lat="45.73848" lon="4.73156">
        <ele>238.6</ele>
        <time>2019-09-01T19:56:15.313Z</time>
      </trkpt>
      <trkpt lat="45.73839" lon="4.73153">
        <ele>236.9</ele>
        <time>2019-09-01T19:56:15.489Z</time>
      </trkpt>
      <trkpt lat="45.73836" lon="4.73158">
        <ele>235.8</ele>
        <time>2019-09-01T19:56:15.589Z</time>
      </trkpt>
      <trkpt lat="45.73835" lon="4.73162">
        <ele>235.5</ele>
        <time>2019-09-01T19:56:15.653Z</time>
      </trkpt>
      <trkpt lat="45.7384" lon="4.73175">
        <ele>234.7</ele>
        <time>2019-09-01T19:56:15.863Z</time>
      </trkpt>
      <trkpt lat="45.73848" lon="4.73185">
        <ele>233.6</ele>
        <time>2019-09-01T19:56:16.077Z</time>
      </trkpt>
      <trkpt lat="45.73859" lon="4.73191">
        <ele>232.8</ele>
        <time>2019-09-01T19:56:16.305Z</time>
      </trkpt>
      <trkpt lat="45.7387" lon="4.73191">
        <ele>231.4</ele>
        <time>2019-09-01T19:56:16.538Z</time>
      </trkpt>
      <trkpt lat="45.73881" lon="4.73188">
        <ele>230.1</ele>
        <time>2019-09-01T19:56:16.751Z</time>
      </trkpt>
      <trkpt lat="45.73888" lon="4.7319">
        <ele>228.4</ele>
        <time>2019-09-01T19:56:16.893Z</time>
      </trkpt>
      <trkpt lat="45.7389" lon="4.73196">
        <ele>226.8</ele>
        <time>2019-09-01T19:56:16.990Z</time>
      </trkpt>
      <trkpt lat="45.73887" lon="4.73207">
        <ele>226.3</ele>
        <time>2019-09-01T19:56:17.143Z</time>
      </trkpt>
      <trkpt lat="45.73881" lon="4.7322">
        <ele>225.8</ele>
        <time>2019-09-01T19:56:17.360Z</time>
      </trkpt>
      <trkpt lat="45.73868" lon="4.73239">
        <ele>225.6</ele>
        <time>2019-09-01T19:56:17.742Z</time>
      </trkpt>
      <trkpt lat="45.73854" lon="4.73245">
        <ele>225.6</ele>
        <time>2019-09-01T19:56:18.031Z</time>
      </trkpt>
      <trkpt lat="45.73836" lon="4.7324">
        <ele>226.3</ele>
        <time>2019-09-01T19:56:18.399Z</time>
      </trkpt>
      <trkpt lat="45.73819" lon="4.73223">
        <ele>226.5</ele>
        <time>2019-09-01T19:56:18.814Z</time>
      </trkpt>
      <trkpt lat="45.73809" lon="4.73205">
        <ele>226.4</ele>
        <time>2019-09-01T19:56:19.139Z</time>
      </trkpt>
      <trkpt lat="45.73801" lon="4.73179">
        <ele>226.8</ele>
        <time>2019-09-01T19:56:19.536Z</time>
      </trkpt>
      <trkpt lat="45.738" lon="4.73172">
        <ele>227.1</ele>
        <time>2019-09-01T19:56:19.637Z</time>
      </trkpt>
      <trkpt lat="45.73799" lon="4.73002">
        <ele>229.5</ele>
        <time>2019-09-01T19:56:22.012Z</time>
      </trkpt>
      <trkpt lat="45.73803" lon="4.72921">
        <ele>229.7</ele>
        <time>2019-09-01T19:56:23.142Z</time>
      </trkpt>
      <trkpt lat="45.73809" lon="4.72888">
        <ele>230.4</ele>
        <time>2019-09-01T19:56:23.619Z</time>
      </trkpt>
      <trkpt lat="45.73808" lon="4.72854">
        <ele>229.2</ele>
        <time>2019-09-01T19:56:24.099Z</time>
      </trkpt>
      <trkpt lat="45.7381" lon="4.7284">
        <ele>229.4</ele>
        <time>2019-09-01T19:56:24.292Z</time>
      </trkpt>
      <trkpt lat="45.73808" lon="4.7282">
        <ele>229.3</ele>
        <time>2019-09-01T19:56:24.584Z</time>
      </trkpt>
      <trkpt lat="45.73799" lon="4.72779">
        <ele>229.5</ele>
        <time>2019-09-01T19:56:25.186Z</time>
      </trkpt>
      <trkpt lat="45.73798" lon="4.72761">
        <ele>229.4</ele>
        <time>2019-09-01T19:56:25.431Z</time>
      </trkpt>
      <trkpt lat="45.73794" lon="4.72757">
        <ele>229.2</ele>
        <time>2019-09-01T19:56:25.524Z</time>
      </trkpt>
      <trkpt lat="45.73782" lon="4.72763">
        <ele>228.3</ele>
        <time>2019-09-01T19:56:25.790Z</time>
      </trkpt>
      <trkpt lat="45.73779" lon="4.72763">
        <ele>228.1</ele>
        <time>2019-09-01T19:56:25.834Z</time>
      </trkpt>
      <trkpt lat="45.73776" lon="4.72759">
        <ele>228.2</ele>
        <time>2019-09-01T19:56:25.923Z</time>
      </trkpt>
      <trkpt lat="45.73774" lon="4.72747">
        <ele>228.3</ele>
        <time>2019-09-01T19:56:26.094Z</time>
      </trkpt>
      <trkpt lat="45.73777" lon="4.72736">
        <ele>228.1</ele>
        <time>2019-09-01T19:56:26.256Z</time>
      </trkpt>
      <trkpt lat="45.73769" lon="4.72725">
        <ele>228.3</ele>
        <time>2019-09-01T19:56:26.474Z</time>
      </trkpt>
      <trkpt lat="45.73769" lon="4.72699">
        <ele>229.2</ele>
        <time>2019-09-01T19:56:26.836Z</time>
      </trkpt>
      <trkpt lat="45.73763" lon="4.72667">
        <ele>230.6</ele>
        <time>2019-09-01T19:56:27.295Z</time>
      </trkpt>
      <trkpt lat="45.73763" lon="4.72604">
        <ele>231.9</ele>
        <time>2019-09-01T19:56:28.183Z</time>
      </trkpt>
      <trkpt lat="45.73759" lon="4.72581">
        <ele>231.9</ele>
        <time>2019-09-01T19:56:28.509Z</time>
      </trkpt>
      <trkpt lat="45.73764" lon="4.72545">
        <ele>231.2</ele>
        <time>2019-09-01T19:56:29.017Z</time>
      </trkpt>
      <trkpt lat="45.73766" lon="4.72492">
        <ele>231.9</ele>
        <time>2019-09-01T19:56:29.765Z</time>
      </trkpt>
      <trkpt lat="45.73764" lon="4.72472">
        <ele>232.5</ele>
        <time>2019-09-01T19:56:30.043Z</time>
      </trkpt>
      <trkpt lat="45.73761" lon="4.72466">
        <ele>232.9</ele>
        <time>2019-09-01T19:56:30.148Z</time>
      </trkpt>
      <trkpt lat="45.73733" lon="4.72425">
        <ele>237.9</ele>
        <time>2019-09-01T19:56:30.946Z</time>
      </trkpt>
      <trkpt lat="45.73728" lon="4.72412">
        <ele>236.5</ele>
        <time>2019-09-01T19:56:31.161Z</time>
      </trkpt>
      <trkpt lat="45.73713" lon="4.72352">
        <ele>233.8</ele>
        <time>2019-09-01T19:56:32.058Z</time>
      </trkpt>
      <trkpt lat="45.73712" lon="4.72336">
        <ele>233.8</ele>
        <time>2019-09-01T19:56:32.281Z</time>
      </trkpt>
      <trkpt lat="45.73716" lon="4.72302">
        <ele>232.9</ele>
        <time>2019-09-01T19:56:32.754Z</time>
      </trkpt>
      <trkpt lat="45.73725" lon="4.7228">
        <ele>232.3</ele>
        <time>2019-09-01T19:56:33.112Z</time>
      </trkpt>
      <trkpt lat="45.7373" lon="4.7227">
        <ele>233.1</ele>
        <time>2019-09-01T19:56:33.287Z</time>
      </trkpt>
      <trkpt lat="45.73728" lon="4.72263">
        <ele>233.2</ele>
        <time>2019-09-01T19:56:33.400Z</time>
      </trkpt>
      <trkpt lat="45.73713" lon="4.7225">
        <ele>233.3</ele>
        <time>2019-09-01T19:56:33.744Z</time>
      </trkpt>
      <trkpt lat="45.73702" lon="4.72249">
        <ele>233.7</ele>
        <time>2019-09-01T19:56:33.978Z</time>
      </trkpt>
      <trkpt lat="45.73699" lon="4.7225">
        <ele>233.9</ele>
        <time>2019-09-01T19:56:34.043Z</time>
      </trkpt>
      <trkpt lat="45.73664" lon="4.72254">
        <ele>233.4</ele>
        <time>2019-09-01T19:56:34.740Z</time>
      </trkpt>
      <trkpt lat="45.7364" lon="4.72252">
        <ele>233.2</ele>
        <time>2019-09-01T19:56:35.230Z</time>
      </trkpt>
      <trkpt lat="45.73628" lon="4.72248">
        <ele>233.9</ele>
        <time>2019-09-01T19:56:35.468Z</time>
      </trkpt>
      <trkpt lat="45.73614" lon="4.72241">
        <ele>234.9</ele>
        <time>2019-09-01T19:56:35.774Z</time>
      </trkpt>
      <trkpt lat="45.73596" lon="4.7222">
        <ele>235.5</ele>
        <time>2019-09-01T19:56:36.239Z</time>
      </trkpt>
      <trkpt lat="45.73585" lon="4.72213">
        <ele>235.3</ele>
        <time>2019-09-01T19:56:36.481Z</time>
      </trkpt>
      <trkpt lat="45.73575" lon="4.72201">
        <ele>236.7</ele>
        <time>2019-09-01T19:56:36.738Z</time>
      </trkpt>
      <trkpt lat="45.73572" lon="4.72198">
        <ele>237.1</ele>
        <time>2019-09-01T19:56:36.801Z</time>
      </trkpt>
      <trkpt lat="45.73568" lon="4.72179">
        <ele>237.2</ele>
        <time>2019-09-01T19:56:37.083Z</time>
      </trkpt>
      <trkpt lat="45.73567" lon="4.72146">
        <ele>236.6</ele>
        <time>2019-09-01T19:56:37.541Z</time>
      </trkpt>
      <trkpt lat="45.7355" lon="4.72062">
        <ele>236</ele>
        <time>2019-09-01T19:56:38.771Z</time>
      </trkpt>
      <trkpt lat="45.73551" lon="4.72059">
        <ele>235.7</ele>
        <time>2019-09-01T19:56:38.822Z</time>
      </trkpt>
      <trkpt lat="45.73564" lon="4.72045">
        <ele>236.5</ele>
        <time>2019-09-01T19:56:39.145Z</time>
      </trkpt>
      <trkpt lat="45.73568" lon="4.72035">
        <ele>237.8</ele>
        <time>2019-09-01T19:56:39.307Z</time>
      </trkpt>
      <trkpt lat="45.73569" lon="4.7198">
        <ele>240.7</ele>
        <time>2019-09-01T19:56:40.074Z</time>
      </trkpt>
      <trkpt lat="45.73572" lon="4.71949">
        <ele>241.6</ele>
        <time>2019-09-01T19:56:40.516Z</time>
      </trkpt>
      <trkpt lat="45.73585" lon="4.71915">
        <ele>242.3</ele>
        <time>2019-09-01T19:56:41.050Z</time>
      </trkpt>
      <trkpt lat="45.73604" lon="4.71879">
        <ele>243.6</ele>
        <time>2019-09-01T19:56:41.688Z</time>
      </trkpt>
      <trkpt lat="45.73627" lon="4.7185">
        <ele>243</ele>
        <time>2019-09-01T19:56:42.306Z</time>
      </trkpt>
      <trkpt lat="45.73626" lon="4.71806">
        <ele>240.1</ele>
        <time>2019-09-01T19:56:42.922Z</time>
      </trkpt>
      <trkpt lat="45.73628" lon="4.71781">
        <ele>240.8</ele>
        <time>2019-09-01T19:56:43.278Z</time>
      </trkpt>
      <trkpt lat="45.73621" lon="4.7176">
        <ele>240</ele>
        <time>2019-09-01T19:56:43.595Z</time>
      </trkpt>
      <trkpt lat="45.73618" lon="4.71729">
        <ele>239.8</ele>
        <time>2019-09-01T19:56:44.034Z</time>
      </trkpt>
      <trkpt lat="45.73623" lon="4.71689">
        <ele>239.5</ele>
        <time>2019-09-01T19:56:44.612Z</time>
      </trkpt>
      <trkpt lat="45.73632" lon="4.71652">
        <ele>240.3</ele>
        <time>2019-09-01T19:56:45.156Z</time>
      </trkpt>
      <trkpt lat="45.73637" lon="4.71638">
        <ele>240.9</ele>
        <time>2019-09-01T19:56:45.376Z</time>
      </trkpt>
      <trkpt lat="45.73645" lon="4.71626">
        <ele>241.2</ele>
        <time>2019-09-01T19:56:45.607Z</time>
      </trkpt>
      <trkpt lat="45.73677" lon="4.71591">
        <ele>242.6</ele>
        <time>2019-09-01T19:56:46.414Z</time>
      </trkpt>
      <trkpt lat="45.73686" lon="4.71584">
        <ele>243.4</ele>
        <time>2019-09-01T19:56:46.627Z</time>
      </trkpt>
      <trkpt lat="45.7371" lon="4.71575">
        <ele>245.7</ele>
        <time>2019-09-01T19:56:47.114Z</time>
      </trkpt>
      <trkpt lat="45.7372" lon="4.71574">
        <ele>246.7</ele>
        <time>2019-09-01T19:56:47.315Z</time>
      </trkpt>
      <trkpt lat="45.7373" lon="4.71575">
        <ele>247.8</ele>
        <time>2019-09-01T19:56:47.514Z</time>
      </trkpt>
      <trkpt lat="45.7374" lon="4.71584">
        <ele>248.9</ele>
        <time>2019-09-01T19:56:47.750Z</time>
      </trkpt>
      <trkpt lat="45.73753" lon="4.71591">
        <ele>250</ele>
        <time>2019-09-01T19:56:48.035Z</time>
      </trkpt>
      <trkpt lat="45.73762" lon="4.716">
        <ele>250.8</ele>
        <time>2019-09-01T19:56:48.252Z</time>
      </trkpt>
      <trkpt lat="45.73767" lon="4.71603">
        <ele>251.4</ele>
        <time>2019-09-01T19:56:48.362Z</time>
      </trkpt>
      <trkpt lat="45.73771" lon="4.71607">
        <ele>251.9</ele>
        <time>2019-09-01T19:56:48.451Z</time>
      </trkpt>
      <trkpt lat="45.73777" lon="4.71623">
        <ele>252.9</ele>
        <time>2019-09-01T19:56:48.717Z</time>
      </trkpt>
      <trkpt lat="45.73788" lon="4.7164">
        <ele>254.1</ele>
        <time>2019-09-01T19:56:49.032Z</time>
      </trkpt>
      <trkpt lat="45.73795" lon="4.7166">
        <ele>254.7</ele>
        <time>2019-09-01T19:56:49.354Z</time>
      </trkpt>
      <trkpt lat="45.738" lon="4.71665">
        <ele>254.9</ele>
        <time>2019-09-01T19:56:49.472Z</time>
      </trkpt>
      <trkpt lat="45.73803" lon="4.71665">
        <ele>255</ele>
        <time>2019-09-01T19:56:49.522Z</time>
      </trkpt>
      <trkpt lat="45.73805" lon="4.71656">
        <ele>255.3</ele>
        <time>2019-09-01T19:56:49.651Z</time>
      </trkpt>
      <trkpt lat="45.73802" lon="4.71605">
        <ele>255.6</ele>
        <time>2019-09-01T19:56:50.369Z</time>
      </trkpt>
      <trkpt lat="45.73808" lon="4.71559">
        <ele>255.5</ele>
        <time>2019-09-01T19:56:51.018Z</time>
      </trkpt>
      <trkpt lat="45.73809" lon="4.71545">
        <ele>255.4</ele>
        <time>2019-09-01T19:56:51.210Z</time>
      </trkpt>
      <trkpt lat="45.73801" lon="4.71507">
        <ele>255.2</ele>
        <time>2019-09-01T19:56:51.771Z</time>
      </trkpt>
      <trkpt lat="45.73798" lon="4.715">
        <ele>254.9</ele>
        <time>2019-09-01T19:56:51.885Z</time>
      </trkpt>
      <trkpt lat="45.73784" lon="4.71492">
        <ele>253.3</ele>
        <time>2019-09-01T19:56:52.185Z</time>
      </trkpt>
      <trkpt lat="45.73768" lon="4.71494">
        <ele>252</ele>
        <time>2019-09-01T19:56:52.517Z</time>
      </trkpt>
      <trkpt lat="45.73739" lon="4.71448">
        <ele>253.6</ele>
        <time>2019-09-01T19:56:53.375Z</time>
      </trkpt>
      <trkpt lat="45.73724" lon="4.71413">
        <ele>257.6</ele>
        <time>2019-09-01T19:56:53.963Z</time>
      </trkpt>
      <trkpt lat="45.73719" lon="4.71398">
        <ele>258.7</ele>
        <time>2019-09-01T19:56:54.192Z</time>
      </trkpt>
      <trkpt lat="45.737" lon="4.71304">
        <ele>260.6</ele>
        <time>2019-09-01T19:56:55.552Z</time>
      </trkpt>
      <trkpt lat="45.737" lon="4.71221">
        <ele>257.3</ele>
        <time>2019-09-01T19:56:56.713Z</time>
      </trkpt>
      <trkpt lat="45.73704" lon="4.71175">
        <ele>254.4</ele>
        <time>2019-09-01T19:56:57.357Z</time>
      </trkpt>
      <trkpt lat="45.73717" lon="4.71094">
        <ele>252.8</ele>
        <time>2019-09-01T19:56:58.532Z</time>
      </trkpt>
      <trkpt lat="45.73717" lon="4.71067">
        <ele>253.2</ele>
        <time>2019-09-01T19:56:58.911Z</time>
      </trkpt>
      <trkpt lat="45.73724" lon="4.71052">
        <ele>254.2</ele>
        <time>2019-09-01T19:56:59.160Z</time>
      </trkpt>
      <trkpt lat="45.73733" lon="4.71044">
        <ele>255.3</ele>
        <time>2019-09-01T19:56:59.370Z</time>
      </trkpt>
      <trkpt lat="45.73764" lon="4.7103">
        <ele>258.8</ele>
        <time>2019-09-01T19:57:00.028Z</time>
      </trkpt>
      <trkpt lat="45.73776" lon="4.71018">
        <ele>260.9</ele>
        <time>2019-09-01T19:57:00.329Z</time>
      </trkpt>
      <trkpt lat="45.73786" lon="4.71012">
        <ele>262.1</ele>
        <time>2019-09-01T19:57:00.536Z</time>
      </trkpt>
      <trkpt lat="45.738" lon="4.71006">
        <ele>263.6</ele>
        <time>2019-09-01T19:57:00.833Z</time>
      </trkpt>
      <trkpt lat="45.73821" lon="4.70991">
        <ele>266.4</ele>
        <time>2019-09-01T19:57:01.308Z</time>
      </trkpt>
      <trkpt lat="45.7384" lon="4.70965">
        <ele>269.6</ele>
        <time>2019-09-01T19:57:01.827Z</time>
      </trkpt>
      <trkpt lat="45.73844" lon="4.70957">
        <ele>270.5</ele>
        <time>2019-09-01T19:57:01.975Z</time>
      </trkpt>
      <trkpt lat="45.73854" lon="4.70928">
        <ele>273.3</ele>
        <time>2019-09-01T19:57:02.420Z</time>
      </trkpt>
      <trkpt lat="45.73855" lon="4.7092">
        <ele>274.1</ele>
        <time>2019-09-01T19:57:02.536Z</time>
      </trkpt>
      <trkpt lat="45.73855" lon="4.70851">
        <ele>280.4</ele>
        <time>2019-09-01T19:57:03.505Z</time>
      </trkpt>
      <trkpt lat="45.73856" lon="4.70822">
        <ele>282.8</ele>
        <time>2019-09-01T19:57:03.906Z</time>
      </trkpt>
      <trkpt lat="45.73873" lon="4.70753">
        <ele>286.3</ele>
        <time>2019-09-01T19:57:04.923Z</time>
      </trkpt>
      <trkpt lat="45.73881" lon="4.7074">
        <ele>287.3</ele>
        <time>2019-09-01T19:57:05.176Z</time>
      </trkpt>
      <trkpt lat="45.73888" lon="4.7074">
        <ele>287.6</ele>
        <time>2019-09-01T19:57:05.300Z</time>
      </trkpt>
      <trkpt lat="45.73942" lon="4.70755">
        <ele>289.4</ele>
        <time>2019-09-01T19:57:06.410Z</time>
      </trkpt>
      <trkpt lat="45.73956" lon="4.70756">
        <ele>289.5</ele>
        <time>2019-09-01T19:57:06.685Z</time>
      </trkpt>
      <trkpt lat="45.74008" lon="4.70753">
        <ele>289.9</ele>
        <time>2019-09-01T19:57:07.740Z</time>
      </trkpt>
      <trkpt lat="45.74051" lon="4.70737">
        <ele>290.9</ele>
        <time>2019-09-01T19:57:08.627Z</time>
      </trkpt>
      <trkpt lat="45.74068" lon="4.70733">
        <ele>290.7</ele>
        <time>2019-09-01T19:57:08.972Z</time>
      </trkpt>
      <trkpt lat="45.74098" lon="4.7072">
        <ele>292.2</ele>
        <time>2019-09-01T19:57:09.594Z</time>
      </trkpt>
      <trkpt lat="45.7413" lon="4.70708">
        <ele>293</ele>
        <time>2019-09-01T19:57:10.264Z</time>
      </trkpt>
      <trkpt lat="45.74178" lon="4.70689">
        <ele>294</ele>
        <time>2019-09-01T19:57:11.261Z</time>
      </trkpt>
      <trkpt lat="45.74235" lon="4.70674">
        <ele>294.7</ele>
        <time>2019-09-01T19:57:12.423Z</time>
      </trkpt>
      <trkpt lat="45.74246" lon="4.70673">
        <ele>294.9</ele>
        <time>2019-09-01T19:57:12.640Z</time>
      </trkpt>
      <trkpt lat="45.74264" lon="4.70669">
        <ele>295.5</ele>
        <time>2019-09-01T19:57:13.011Z</time>
      </trkpt>
      <trkpt lat="45.74267" lon="4.70657">
        <ele>295.9</ele>
        <time>2019-09-01T19:57:13.177Z</time>
      </trkpt>
      <trkpt lat="45.74267" lon="4.7063">
        <ele>296.7</ele>
        <time>2019-09-01T19:57:13.557Z</time>
      </trkpt>
      <trkpt lat="45.74255" lon="4.70572">
        <ele>297.6</ele>
        <time>2019-09-01T19:57:14.406Z</time>
      </trkpt>
      <trkpt lat="45.74245" lon="4.70532">
        <ele>298.2</ele>
        <time>2019-09-01T19:57:14.998Z</time>
      </trkpt>
      <trkpt lat="45.74236" lon="4.70446">
        <ele>300</ele>
        <time>2019-09-01T19:57:16.213Z</time>
      </trkpt>
      <trkpt lat="45.74233" lon="4.70387">
        <ele>301</ele>
        <time>2019-09-01T19:57:17.044Z</time>
      </trkpt>
      <trkpt lat="45.74255" lon="4.70219">
        <ele>302.2</ele>
        <time>2019-09-01T19:57:19.423Z</time>
      </trkpt>
      <trkpt lat="45.74266" lon="4.70154">
        <ele>302</ele>
        <time>2019-09-01T19:57:20.368Z</time>
      </trkpt>
      <trkpt lat="45.7428" lon="4.70087">
        <ele>301.2</ele>
        <time>2019-09-01T19:57:21.349Z</time>
      </trkpt>
      <trkpt lat="45.74286" lon="4.70072">
        <ele>301.3</ele>
        <time>2019-09-01T19:57:21.583Z</time>
      </trkpt>
      <trkpt lat="45.74296" lon="4.7005">
        <ele>301.5</ele>
        <time>2019-09-01T19:57:21.955Z</time>
      </trkpt>
      <trkpt lat="45.74327" lon="4.69995">
        <ele>301.8</ele>
        <time>2019-09-01T19:57:22.938Z</time>
      </trkpt>
      <trkpt lat="45.74358" lon="4.69959">
        <ele>302.9</ele>
        <time>2019-09-01T19:57:23.738Z</time>
      </trkpt>
      <trkpt lat="45.74393" lon="4.69939">
        <ele>304.3</ele>
        <time>2019-09-01T19:57:24.506Z</time>
      </trkpt>
      <trkpt lat="45.74406" lon="4.69934">
        <ele>304.8</ele>
        <time>2019-09-01T19:57:24.773Z</time>
      </trkpt>
      <trkpt lat="45.74421" lon="4.69918">
        <ele>305</ele>
        <time>2019-09-01T19:57:25.141Z</time>
      </trkpt>
      <trkpt lat="45.74435" lon="4.69905">
        <ele>305.3</ele>
        <time>2019-09-01T19:57:25.481Z</time>
      </trkpt>
      <trkpt lat="45.74462" lon="4.69884">
        <ele>306.1</ele>
        <time>2019-09-01T19:57:26.087Z</time>
      </trkpt>
      <trkpt lat="45.7447" lon="4.69876">
        <ele>306.4</ele>
        <time>2019-09-01T19:57:26.295Z</time>
      </trkpt>
      <trkpt lat="45.74497" lon="4.69856">
        <ele>308.1</ele>
        <time>2019-09-01T19:57:26.906Z</time>
      </trkpt>
      <trkpt lat="45.74512" lon="4.69838">
        <ele>308.9</ele>
        <time>2019-09-01T19:57:27.294Z</time>
      </trkpt>
      <trkpt lat="45.74542" lon="4.69794">
        <ele>310.7</ele>
        <time>2019-09-01T19:57:28.153Z</time>
      </trkpt>
      <trkpt lat="45.74545" lon="4.69788">
        <ele>310.9</ele>
        <time>2019-09-01T19:57:28.257Z</time>
      </trkpt>
      <trkpt lat="45.74547" lon="4.69766">
        <ele>311.3</ele>
        <time>2019-09-01T19:57:28.562Z</time>
      </trkpt>
      <trkpt lat="45.74528" lon="4.69328">
        <ele>317</ele>
        <time>2019-09-01T19:57:34.700Z</time>
      </trkpt>
      <trkpt lat="45.74519" lon="4.69288">
        <ele>317</ele>
        <time>2019-09-01T19:57:35.288Z</time>
      </trkpt>
      <trkpt lat="45.74524" lon="4.69222">
        <ele>318.7</ele>
        <time>2019-09-01T19:57:36.219Z</time>
      </trkpt>
      <trkpt lat="45.7452" lon="4.6918">
        <ele>318.4</ele>
        <time>2019-09-01T19:57:36.809Z</time>
      </trkpt>
      <trkpt lat="45.74514" lon="4.69138">
        <ele>318.5</ele>
        <time>2019-09-01T19:57:37.411Z</time>
      </trkpt>
      <trkpt lat="45.74514" lon="4.69112">
        <ele>318</ele>
        <time>2019-09-01T19:57:37.783Z</time>
      </trkpt>
      <trkpt lat="45.7452" lon="4.69052">
        <ele>318.5</ele>
        <time>2019-09-01T19:57:38.625Z</time>
      </trkpt>
      <trkpt lat="45.74522" lon="4.69045">
        <ele>318.6</ele>
        <time>2019-09-01T19:57:38.730Z</time>
      </trkpt>
      <trkpt lat="45.74531" lon="4.69031">
        <ele>319.2</ele>
        <time>2019-09-01T19:57:38.997Z</time>
      </trkpt>
      <trkpt lat="45.74546" lon="4.69016">
        <ele>320.3</ele>
        <time>2019-09-01T19:57:39.357Z</time>
      </trkpt>
      <trkpt lat="45.74546" lon="4.68994">
        <ele>320.3</ele>
        <time>2019-09-01T19:57:39.670Z</time>
      </trkpt>
      <trkpt lat="45.74534" lon="4.68934">
        <ele>320.6</ele>
        <time>2019-09-01T19:57:40.549Z</time>
      </trkpt>
      <trkpt lat="45.74515" lon="4.68878">
        <ele>321.9</ele>
        <time>2019-09-01T19:57:41.413Z</time>
      </trkpt>
      <trkpt lat="45.74483" lon="4.68792">
        <ele>324</ele>
        <time>2019-09-01T19:57:42.781Z</time>
      </trkpt>
      <trkpt lat="45.74463" lon="4.68735">
        <ele>325</ele>
        <time>2019-09-01T19:57:43.670Z</time>
      </trkpt>
      <trkpt lat="45.74443" lon="4.68687">
        <ele>324.9</ele>
        <time>2019-09-01T19:57:44.447Z</time>
      </trkpt>
      <trkpt lat="45.74427" lon="4.68657">
        <ele>325.1</ele>
        <time>2019-09-01T19:57:44.982Z</time>
      </trkpt>
      <trkpt lat="45.74413" lon="4.68634">
        <ele>324.7</ele>
        <time>2019-09-01T19:57:45.404Z</time>
      </trkpt>
      <trkpt lat="45.74392" lon="4.68609">
        <ele>325.7</ele>
        <time>2019-09-01T19:57:45.957Z</time>
      </trkpt>
      <trkpt lat="45.74383" lon="4.68601">
        <ele>324.2</ele>
        <time>2019-09-01T19:57:46.167Z</time>
      </trkpt>
      <trkpt lat="45.74357" lon="4.68582">
        <ele>321.4</ele>
        <time>2019-09-01T19:57:46.758Z</time>
      </trkpt>
      <trkpt lat="45.74325" lon="4.68568">
        <ele>325.1</ele>
        <time>2019-09-01T19:57:47.423Z</time>
      </trkpt>
      <trkpt lat="45.74302" lon="4.68561">
        <ele>328.1</ele>
        <time>2019-09-01T19:57:47.898Z</time>
      </trkpt>
      <trkpt lat="45.74289" lon="4.68561">
        <ele>329</ele>
        <time>2019-09-01T19:57:48.144Z</time>
      </trkpt>
      <trkpt lat="45.74271" lon="4.68563">
        <ele>330.2</ele>
        <time>2019-09-01T19:57:48.506Z</time>
      </trkpt>
      <trkpt lat="45.74243" lon="4.68568">
        <ele>332.1</ele>
        <time>2019-09-01T19:57:49.086Z</time>
      </trkpt>
      <trkpt lat="45.74204" lon="4.68583">
        <ele>333.7</ele>
        <time>2019-09-01T19:57:49.887Z</time>
      </trkpt>
      <trkpt lat="45.74188" lon="4.68587">
        <ele>334.5</ele>
        <time>2019-09-01T19:57:50.220Z</time>
      </trkpt>
      <trkpt lat="45.74172" lon="4.68588">
        <ele>335.5</ele>
        <time>2019-09-01T19:57:50.541Z</time>
      </trkpt>
      <trkpt lat="45.74161" lon="4.68588">
        <ele>336</ele>
        <time>2019-09-01T19:57:50.757Z</time>
      </trkpt>
      <trkpt lat="45.74134" lon="4.68583">
        <ele>337.2</ele>
        <time>2019-09-01T19:57:51.305Z</time>
      </trkpt>
      <trkpt lat="45.74112" lon="4.68576">
        <ele>338</ele>
        <time>2019-09-01T19:57:51.751Z</time>
      </trkpt>
      <trkpt lat="45.74086" lon="4.68562">
        <ele>338.7</ele>
        <time>2019-09-01T19:57:52.307Z</time>
      </trkpt>
      <trkpt lat="45.74066" lon="4.68547">
        <ele>339.3</ele>
        <time>2019-09-01T19:57:52.760Z</time>
      </trkpt>
      <trkpt lat="45.74052" lon="4.68532">
        <ele>339.7</ele>
        <time>2019-09-01T19:57:53.110Z</time>
      </trkpt>
      <trkpt lat="45.74031" lon="4.68503">
        <ele>340</ele>
        <time>2019-09-01T19:57:53.700Z</time>
      </trkpt>
      <trkpt lat="45.73993" lon="4.68436">
        <ele>341</ele>
        <time>2019-09-01T19:57:54.907Z</time>
      </trkpt>
      <trkpt lat="45.73977" lon="4.68411">
        <ele>341.4</ele>
        <time>2019-09-01T19:57:55.388Z</time>
      </trkpt>
      <trkpt lat="45.7396" lon="4.68389">
        <ele>341.5</ele>
        <time>2019-09-01T19:57:55.835Z</time>
      </trkpt>
      <trkpt lat="45.7396" lon="4.68384">
        <ele>341.6</ele>
        <time>2019-09-01T19:57:55.908Z</time>
      </trkpt>
      <trkpt lat="45.73965" lon="4.68375">
        <ele>341.9</ele>
        <time>2019-09-01T19:57:56.074Z</time>
      </trkpt>
      <trkpt lat="45.7397" lon="4.68374">
        <ele>342</ele>
        <time>2019-09-01T19:57:56.168Z</time>
      </trkpt>
      <trkpt lat="45.74016" lon="4.68377">
        <ele>343.4</ele>
        <time>2019-09-01T19:57:57.095Z</time>
      </trkpt>
      <trkpt lat="45.74138" lon="4.68374">
        <ele>343.6</ele>
        <time>2019-09-01T19:57:59.538Z</time>
      </trkpt>
      <trkpt lat="45.74205" lon="4.68369">
        <ele>340.5</ele>
        <time>2019-09-01T19:58:00.878Z</time>
      </trkpt>
      <trkpt lat="45.74266" lon="4.68367">
        <ele>336.6</ele>
        <time>2019-09-01T19:58:02.119Z</time>
      </trkpt>
      <trkpt lat="45.74275" lon="4.68365">
        <ele>336.1</ele>
        <time>2019-09-01T19:58:02.300Z</time>
      </trkpt>
      <trkpt lat="45.74288" lon="4.68352">
        <ele>335.2</ele>
        <time>2019-09-01T19:58:02.613Z</time>
      </trkpt>
      <trkpt lat="45.74296" lon="4.68318">
        <ele>335.4</ele>
        <time>2019-09-01T19:58:03.114Z</time>
      </trkpt>
      <trkpt lat="45.74311" lon="4.68233">
        <ele>335.1</ele>
        <time>2019-09-01T19:58:04.333Z</time>
      </trkpt>
      <trkpt lat="45.74319" lon="4.68198">
        <ele>333.7</ele>
        <time>2019-09-01T19:58:04.848Z</time>
      </trkpt>
      <trkpt lat="45.74323" lon="4.68188">
        <ele>332.6</ele>
        <time>2019-09-01T19:58:05.025Z</time>
      </trkpt>
      <trkpt lat="45.74344" lon="4.68163">
        <ele>330</ele>
        <time>2019-09-01T19:58:05.569Z</time>
      </trkpt>
      <trkpt lat="45.74361" lon="4.68155">
        <ele>330</ele>
        <time>2019-09-01T19:58:05.933Z</time>
      </trkpt>
      <trkpt lat="45.74385" lon="4.68197">
        <ele>330.6</ele>
        <time>2019-09-01T19:58:06.671Z</time>
      </trkpt>
      <trkpt lat="45.7439" lon="4.68201">
        <ele>331</ele>
        <time>2019-09-01T19:58:06.802Z</time>
      </trkpt>
      <trkpt lat="45.74409" lon="4.682">
        <ele>334.2</ele>
        <time>2019-09-01T19:58:07.183Z</time>
      </trkpt>
      <trkpt lat="45.74448" lon="4.68194">
        <ele>338.2</ele>
        <time>2019-09-01T19:58:07.953Z</time>
      </trkpt>
      <trkpt lat="45.74561" lon="4.68167">
        <ele>347.3</ele>
        <time>2019-09-01T19:58:10.250Z</time>
      </trkpt>
      <trkpt lat="45.74575" lon="4.68157">
        <ele>348.8</ele>
        <time>2019-09-01T19:58:10.567Z</time>
      </trkpt>
      <trkpt lat="45.74582" lon="4.68148">
        <ele>349.6</ele>
        <time>2019-09-01T19:58:10.758Z</time>
      </trkpt>
      <trkpt lat="45.74584" lon="4.68136">
        <ele>350.3</ele>
        <time>2019-09-01T19:58:10.934Z</time>
      </trkpt>
      <trkpt lat="45.74582" lon="4.68116">
        <ele>351.6</ele>
        <time>2019-09-01T19:58:11.218Z</time>
      </trkpt>
      <trkpt lat="45.74539" lon="4.67944">
        <ele>350.8</ele>
        <time>2019-09-01T19:58:13.760Z</time>
      </trkpt>
      <trkpt lat="45.74521" lon="4.67861">
        <ele>348</ele>
        <time>2019-09-01T19:58:14.985Z</time>
      </trkpt>
      <trkpt lat="45.74521" lon="4.6784">
        <ele>348.4</ele>
        <time>2019-09-01T19:58:15.276Z</time>
      </trkpt>
      <trkpt lat="45.7453" lon="4.67761">
        <ele>351.8</ele>
        <time>2019-09-01T19:58:16.402Z</time>
      </trkpt>
      <trkpt lat="45.74535" lon="4.6766">
        <ele>354</ele>
        <time>2019-09-01T19:58:17.812Z</time>
      </trkpt>
      <trkpt lat="45.74526" lon="4.67582">
        <ele>352.6</ele>
        <time>2019-09-01T19:58:18.920Z</time>
      </trkpt>
      <trkpt lat="45.74519" lon="4.67493">
        <ele>349.8</ele>
        <time>2019-09-01T19:58:20.175Z</time>
      </trkpt>
      <trkpt lat="45.74513" lon="4.67478">
        <ele>349.3</ele>
        <time>2019-09-01T19:58:20.407Z</time>
      </trkpt>
      <trkpt lat="45.74501" lon="4.67473">
        <ele>348</ele>
        <time>2019-09-01T19:58:20.663Z</time>
      </trkpt>
      <trkpt lat="45.74485" lon="4.67474">
        <ele>346.3</ele>
        <time>2019-09-01T19:58:20.980Z</time>
      </trkpt>
      <trkpt lat="45.7447" lon="4.67471">
        <ele>345.1</ele>
        <time>2019-09-01T19:58:21.289Z</time>
      </trkpt>
      <trkpt lat="45.74458" lon="4.67461">
        <ele>346.3</ele>
        <time>2019-09-01T19:58:21.560Z</time>
      </trkpt>
      <trkpt lat="45.74454" lon="4.67454">
        <ele>347.4</ele>
        <time>2019-09-01T19:58:21.683Z</time>
      </trkpt>
      <trkpt lat="45.7442" lon="4.67313">
        <ele>362.6</ele>
        <time>2019-09-01T19:58:23.770Z</time>
      </trkpt>
      <trkpt lat="45.74392" lon="4.67258">
        <ele>367.1</ele>
        <time>2019-09-01T19:58:24.722Z</time>
      </trkpt>
      <trkpt lat="45.7437" lon="4.67223">
        <ele>369.9</ele>
        <time>2019-09-01T19:58:25.373Z</time>
      </trkpt>
      <trkpt lat="45.74348" lon="4.67174">
        <ele>372.6</ele>
        <time>2019-09-01T19:58:26.197Z</time>
      </trkpt>
      <trkpt lat="45.7434" lon="4.6715">
        <ele>374.2</ele>
        <time>2019-09-01T19:58:26.561Z</time>
      </trkpt>
      <trkpt lat="45.74328" lon="4.67088">
        <ele>379.7</ele>
        <time>2019-09-01T19:58:27.468Z</time>
      </trkpt>
      <trkpt lat="45.74312" lon="4.6703">
        <ele>384.6</ele>
        <time>2019-09-01T19:58:28.329Z</time>
      </trkpt>
      <trkpt lat="45.74266" lon="4.66925">
        <ele>392</ele>
        <time>2019-09-01T19:58:30.073Z</time>
      </trkpt>
      <trkpt lat="45.74251" lon="4.66894">
        <ele>394.6</ele>
        <time>2019-09-01T19:58:30.604Z</time>
      </trkpt>
      <trkpt lat="45.74221" lon="4.6685">
        <ele>399.8</ele>
        <time>2019-09-01T19:58:31.462Z</time>
      </trkpt>
      <trkpt lat="45.74162" lon="4.66794">
        <ele>406.4</ele>
        <time>2019-09-01T19:58:32.866Z</time>
      </trkpt>
      <trkpt lat="45.74158" lon="4.66791">
        <ele>406.9</ele>
        <time>2019-09-01T19:58:32.969Z</time>
      </trkpt>
      <trkpt lat="45.74132" lon="4.66781">
        <ele>408.5</ele>
        <time>2019-09-01T19:58:33.499Z</time>
      </trkpt>
      <trkpt lat="45.74115" lon="4.66771">
        <ele>409.1</ele>
        <time>2019-09-01T19:58:33.872Z</time>
      </trkpt>
      <trkpt lat="45.74093" lon="4.66743">
        <ele>413.3</ele>
        <time>2019-09-01T19:58:34.451Z</time>
      </trkpt>
      <trkpt lat="45.74088" lon="4.66742">
        <ele>413.8</ele>
        <time>2019-09-01T19:58:34.553Z</time>
      </trkpt>
      <trkpt lat="45.7407" lon="4.66743">
        <ele>414.6</ele>
        <time>2019-09-01T19:58:34.930Z</time>
      </trkpt>
      <trkpt lat="45.74051" lon="4.66741">
        <ele>416.2</ele>
        <time>2019-09-01T19:58:35.303Z</time>
      </trkpt>
      <trkpt lat="45.74014" lon="4.66744">
        <ele>418.4</ele>
        <time>2019-09-01T19:58:36.048Z</time>
      </trkpt>
      <trkpt lat="45.73997" lon="4.66747">
        <ele>419.8</ele>
        <time>2019-09-01T19:58:36.393Z</time>
      </trkpt>
      <trkpt lat="45.73964" lon="4.66756">
        <ele>422.4</ele>
        <time>2019-09-01T19:58:37.060Z</time>
      </trkpt>
      <trkpt lat="45.73961" lon="4.66756">
        <ele>422.7</ele>
        <time>2019-09-01T19:58:37.113Z</time>
      </trkpt>
      <trkpt lat="45.73962" lon="4.66748">
        <ele>423.4</ele>
        <time>2019-09-01T19:58:37.226Z</time>
      </trkpt>
      <trkpt lat="45.73979" lon="4.66733">
        <ele>423.7</ele>
        <time>2019-09-01T19:58:37.609Z</time>
      </trkpt>
      <trkpt lat="45.73999" lon="4.66711">
        <ele>424.7</ele>
        <time>2019-09-01T19:58:38.115Z</time>
      </trkpt>
      <trkpt lat="45.74112" lon="4.66569">
        <ele>431</ele>
        <time>2019-09-01T19:58:41.131Z</time>
      </trkpt>
      <trkpt lat="45.74125" lon="4.66548">
        <ele>430.6</ele>
        <time>2019-09-01T19:58:41.528Z</time>
      </trkpt>
      <trkpt lat="45.74134" lon="4.66529">
        <ele>429.6</ele>
        <time>2019-09-01T19:58:41.855Z</time>
      </trkpt>
      <trkpt lat="45.74154" lon="4.66452">
        <ele>425.3</ele>
        <time>2019-09-01T19:58:42.997Z</time>
      </trkpt>
      <trkpt lat="45.74169" lon="4.66429">
        <ele>424.4</ele>
        <time>2019-09-01T19:58:43.438Z</time>
      </trkpt>
      <trkpt lat="45.74175" lon="4.66423">
        <ele>424.5</ele>
        <time>2019-09-01T19:58:43.586Z</time>
      </trkpt>
      <trkpt lat="45.74189" lon="4.66416">
        <ele>424.6</ele>
        <time>2019-09-01T19:58:43.882Z</time>
      </trkpt>
      <trkpt lat="45.74196" lon="4.66414">
        <ele>424.5</ele>
        <time>2019-09-01T19:58:44.026Z</time>
      </trkpt>
      <trkpt lat="45.74222" lon="4.66417">
        <ele>424</ele>
        <time>2019-09-01T19:58:44.550Z</time>
      </trkpt>
      <trkpt lat="45.74238" lon="4.66416">
        <ele>423.5</ele>
        <time>2019-09-01T19:58:44.871Z</time>
      </trkpt>
      <trkpt lat="45.74241" lon="4.66413">
        <ele>423.8</ele>
        <time>2019-09-01T19:58:44.953Z</time>
      </trkpt>
      <trkpt lat="45.74242" lon="4.66396">
        <ele>425.4</ele>
        <time>2019-09-01T19:58:45.185Z</time>
      </trkpt>
      <trkpt lat="45.74239" lon="4.66384">
        <ele>427.7</ele>
        <time>2019-09-01T19:58:45.364Z</time>
      </trkpt>
      <trkpt lat="45.74232" lon="4.66378">
        <ele>430.3</ele>
        <time>2019-09-01T19:58:45.533Z</time>
      </trkpt>
      <trkpt lat="45.74216" lon="4.66375">
        <ele>432.4</ele>
        <time>2019-09-01T19:58:45.845Z</time>
      </trkpt>
      <trkpt lat="45.74206" lon="4.6637">
        <ele>433.9</ele>
        <time>2019-09-01T19:58:46.064Z</time>
      </trkpt>
      <trkpt lat="45.74189" lon="4.66357">
        <ele>436.2</ele>
        <time>2019-09-01T19:58:46.457Z</time>
      </trkpt>
      <trkpt lat="45.74173" lon="4.66342">
        <ele>437.6</ele>
        <time>2019-09-01T19:58:46.826Z</time>
      </trkpt>
      <trkpt lat="45.74164" lon="4.66336">
        <ele>438.5</ele>
        <time>2019-09-01T19:58:47.039Z</time>
      </trkpt>
      <trkpt lat="45.74155" lon="4.66334">
        <ele>439.6</ele>
        <time>2019-09-01T19:58:47.207Z</time>
      </trkpt>
      <trkpt lat="45.74145" lon="4.66344">
        <ele>438.5</ele>
        <time>2019-09-01T19:58:47.462Z</time>
      </trkpt>
      <trkpt lat="45.74118" lon="4.66383">
        <ele>441.3</ele>
        <time>2019-09-01T19:58:48.218Z</time>
      </trkpt>
      <trkpt lat="45.74089" lon="4.66409">
        <ele>444.4</ele>
        <time>2019-09-01T19:58:48.900Z</time>
      </trkpt>
      <trkpt lat="45.74076" lon="4.66424">
        <ele>445.6</ele>
        <time>2019-09-01T19:58:49.247Z</time>
      </trkpt>
      <trkpt lat="45.74059" lon="4.66437">
        <ele>446.4</ele>
        <time>2019-09-01T19:58:49.627Z</time>
      </trkpt>
      <trkpt lat="45.74018" lon="4.66462">
        <ele>448.1</ele>
        <time>2019-09-01T19:58:50.519Z</time>
      </trkpt>
      <trkpt lat="45.73997" lon="4.66472">
        <ele>449.2</ele>
        <time>2019-09-01T19:58:50.959Z</time>
      </trkpt>
      <trkpt lat="45.73983" lon="4.66475">
        <ele>450</ele>
        <time>2019-09-01T19:58:51.258Z</time>
      </trkpt>
      <trkpt lat="45.73958" lon="4.66474">
        <ele>450.9</ele>
        <time>2019-09-01T19:58:51.749Z</time>
      </trkpt>
      <trkpt lat="45.73941" lon="4.66471">
        <ele>451.1</ele>
        <time>2019-09-01T19:58:52.090Z</time>
      </trkpt>
      <trkpt lat="45.73914" lon="4.6646">
        <ele>451.8</ele>
        <time>2019-09-01T19:58:52.661Z</time>
      </trkpt>
      <trkpt lat="45.73873" lon="4.66417">
        <ele>452.8</ele>
        <time>2019-09-01T19:58:53.676Z</time>
      </trkpt>
      <trkpt lat="45.73807" lon="4.66333">
        <ele>450.1</ele>
        <time>2019-09-01T19:58:55.450Z</time>
      </trkpt>
      <trkpt lat="45.73802" lon="4.66327">
        <ele>449.8</ele>
        <time>2019-09-01T19:58:55.567Z</time>
      </trkpt>
      <trkpt lat="45.73798" lon="4.66314">
        <ele>449.6</ele>
        <time>2019-09-01T19:58:55.775Z</time>
      </trkpt>
      <trkpt lat="45.73802" lon="4.66302">
        <ele>450.4</ele>
        <time>2019-09-01T19:58:55.953Z</time>
      </trkpt>
      <trkpt lat="45.73827" lon="4.66307">
        <ele>453.2</ele>
        <time>2019-09-01T19:58:56.446Z</time>
      </trkpt>
      <trkpt lat="45.73835" lon="4.66303">
        <ele>454</ele>
        <time>2019-09-01T19:58:56.612Z</time>
      </trkpt>
      <trkpt lat="45.73836" lon="4.66299">
        <ele>454.1</ele>
        <time>2019-09-01T19:58:56.674Z</time>
      </trkpt>
      <trkpt lat="45.73847" lon="4.66277">
        <ele>454.5</ele>
        <time>2019-09-01T19:58:57.059Z</time>
      </trkpt>
      <trkpt lat="45.73871" lon="4.6622">
        <ele>453.8</ele>
        <time>2019-09-01T19:58:57.984Z</time>
      </trkpt>
      <trkpt lat="45.73899" lon="4.66118">
        <ele>447.6</ele>
        <time>2019-09-01T19:58:59.516Z</time>
      </trkpt>
      <trkpt lat="45.73904" lon="4.66092">
        <ele>447</ele>
        <time>2019-09-01T19:58:59.901Z</time>
      </trkpt>
      <trkpt lat="45.73908" lon="4.66081">
        <ele>446.9</ele>
        <time>2019-09-01T19:59:00.076Z</time>
      </trkpt>
      <trkpt lat="45.73961" lon="4.65977">
        <ele>444</ele>
        <time>2019-09-01T19:59:01.872Z</time>
      </trkpt>
      <trkpt lat="45.74" lon="4.65905">
        <ele>447.5</ele>
        <time>2019-09-01T19:59:03.141Z</time>
      </trkpt>
      <trkpt lat="45.74003" lon="4.65891">
        <ele>447.7</ele>
        <time>2019-09-01T19:59:03.342Z</time>
      </trkpt>
      <trkpt lat="45.74014" lon="4.65781">
        <ele>449.5</ele>
        <time>2019-09-01T19:59:04.898Z</time>
      </trkpt>
      <trkpt lat="45.7405" lon="4.65708">
        <ele>451.3</ele>
        <time>2019-09-01T19:59:06.144Z</time>
      </trkpt>
      <trkpt lat="45.74059" lon="4.6568">
        <ele>451</ele>
        <time>2019-09-01T19:59:06.583Z</time>
      </trkpt>
      <trkpt lat="45.74059" lon="4.65601">
        <ele>448.6</ele>
        <time>2019-09-01T19:59:07.691Z</time>
      </trkpt>
      <trkpt lat="45.74049" lon="4.65562">
        <ele>447</ele>
        <time>2019-09-01T19:59:08.274Z</time>
      </trkpt>
      <trkpt lat="45.74045" lon="4.65529">
        <ele>445.9</ele>
        <time>2019-09-01T19:59:08.741Z</time>
      </trkpt>
      <trkpt lat="45.74037" lon="4.65515">
        <ele>444.6</ele>
        <time>2019-09-01T19:59:08.985Z</time>
      </trkpt>
      <trkpt lat="45.74026" lon="4.65502">
        <ele>442.8</ele>
        <time>2019-09-01T19:59:09.277Z</time>
      </trkpt>
      <trkpt lat="45.7401" lon="4.65477">
        <ele>439.3</ele>
        <time>2019-09-01T19:59:09.751Z</time>
      </trkpt>
      <trkpt lat="45.73991" lon="4.65422">
        <ele>431.5</ele>
        <time>2019-09-01T19:59:10.612Z</time>
      </trkpt>
      <trkpt lat="45.73977" lon="4.65379">
        <ele>425.5</ele>
        <time>2019-09-01T19:59:11.269Z</time>
      </trkpt>
      <trkpt lat="45.73968" lon="4.65341">
        <ele>420.5</ele>
        <time>2019-09-01T19:59:11.830Z</time>
      </trkpt>
      <trkpt lat="45.73928" lon="4.65255">
        <ele>408.3</ele>
        <time>2019-09-01T19:59:13.268Z</time>
      </trkpt>
      <trkpt lat="45.73925" lon="4.65232">
        <ele>407.4</ele>
        <time>2019-09-01T19:59:13.607Z</time>
      </trkpt>
      <trkpt lat="45.73923" lon="4.65209">
        <ele>407.8</ele>
        <time>2019-09-01T19:59:13.930Z</time>
      </trkpt>
      <trkpt lat="45.73921" lon="4.652">
        <ele>408.1</ele>
        <time>2019-09-01T19:59:14.068Z</time>
      </trkpt>
      <trkpt lat="45.73912" lon="4.65185">
        <ele>408.3</ele>
        <time>2019-09-01T19:59:14.336Z</time>
      </trkpt>
      <trkpt lat="45.7387" lon="4.65145">
        <ele>407.3</ele>
        <time>2019-09-01T19:59:15.337Z</time>
      </trkpt>
      <trkpt lat="45.73851" lon="4.65119">
        <ele>407.7</ele>
        <time>2019-09-01T19:59:15.868Z</time>
      </trkpt>
      <trkpt lat="45.73831" lon="4.65062">
        <ele>405.6</ele>
        <time>2019-09-01T19:59:16.760Z</time>
      </trkpt>
      <trkpt lat="45.73811" lon="4.64987">
        <ele>398.1</ele>
        <time>2019-09-01T19:59:17.884Z</time>
      </trkpt>
      <trkpt lat="45.73798" lon="4.6496">
        <ele>395</ele>
        <time>2019-09-01T19:59:18.345Z</time>
      </trkpt>
      <trkpt lat="45.73759" lon="4.64894">
        <ele>392.2</ele>
        <time>2019-09-01T19:59:19.557Z</time>
      </trkpt>
      <trkpt lat="45.73753" lon="4.6488">
        <ele>391.2</ele>
        <time>2019-09-01T19:59:19.783Z</time>
      </trkpt>
      <trkpt lat="45.73749" lon="4.64866">
        <ele>390.7</ele>
        <time>2019-09-01T19:59:20.003Z</time>
      </trkpt>
      <trkpt lat="45.73744" lon="4.64837">
        <ele>392.3</ele>
        <time>2019-09-01T19:59:20.415Z</time>
      </trkpt>
      <trkpt lat="45.73744" lon="4.64741">
        <ele>392.5</ele>
        <time>2019-09-01T19:59:21.752Z</time>
      </trkpt>
      <trkpt lat="45.73739" lon="4.64668">
        <ele>394.6</ele>
        <time>2019-09-01T19:59:22.779Z</time>
      </trkpt>
      <trkpt lat="45.73723" lon="4.64578">
        <ele>404.1</ele>
        <time>2019-09-01T19:59:24.081Z</time>
      </trkpt>
      <trkpt lat="45.73718" lon="4.64564">
        <ele>405.3</ele>
        <time>2019-09-01T19:59:24.299Z</time>
      </trkpt>
      <trkpt lat="45.73697" lon="4.64526">
        <ele>409.7</ele>
        <time>2019-09-01T19:59:24.970Z</time>
      </trkpt>
      <trkpt lat="45.73683" lon="4.64477">
        <ele>414.8</ele>
        <time>2019-09-01T19:59:25.725Z</time>
      </trkpt>
      <trkpt lat="45.73679" lon="4.64449">
        <ele>417</ele>
        <time>2019-09-01T19:59:26.123Z</time>
      </trkpt>
      <trkpt lat="45.73673" lon="4.64441">
        <ele>418.3</ele>
        <time>2019-09-01T19:59:26.285Z</time>
      </trkpt>
      <trkpt lat="45.73669" lon="4.64444">
        <ele>418.7</ele>
        <time>2019-09-01T19:59:26.377Z</time>
      </trkpt>
      <trkpt lat="45.73663" lon="4.64451">
        <ele>418.9</ele>
        <time>2019-09-01T19:59:26.524Z</time>
      </trkpt>
      <trkpt lat="45.73674" lon="4.64431">
        <ele>419</ele>
        <time>2019-09-01T19:59:26.877Z</time>
      </trkpt>
      <trkpt lat="45.73673" lon="4.64428">
        <ele>419.3</ele>
        <time>2019-09-01T19:59:26.922Z</time>
      </trkpt>
      <trkpt lat="45.7367" lon="4.6442">
        <ele>420.3</ele>
        <time>2019-09-01T19:59:27.052Z</time>
      </trkpt>
      <trkpt lat="45.73625" lon="4.64354">
        <ele>431.3</ele>
        <time>2019-09-01T19:59:28.348Z</time>
      </trkpt>
      <trkpt lat="45.73612" lon="4.6433">
        <ele>435</ele>
        <time>2019-09-01T19:59:28.765Z</time>
      </trkpt>
      <trkpt lat="45.73591" lon="4.64298">
        <ele>439.1</ele>
        <time>2019-09-01T19:59:29.371Z</time>
      </trkpt>
      <trkpt lat="45.73583" lon="4.64284">
        <ele>440.8</ele>
        <time>2019-09-01T19:59:29.628Z</time>
      </trkpt>
      <trkpt lat="45.73561" lon="4.64251">
        <ele>446.7</ele>
        <time>2019-09-01T19:59:30.278Z</time>
      </trkpt>
      <trkpt lat="45.73538" lon="4.64206">
        <ele>454.1</ele>
        <time>2019-09-01T19:59:31.055Z</time>
      </trkpt>
      <trkpt lat="45.73525" lon="4.64191">
        <ele>457.9</ele>
        <time>2019-09-01T19:59:31.382Z</time>
      </trkpt>
      <trkpt lat="45.73516" lon="4.64176">
        <ele>461</ele>
        <time>2019-09-01T19:59:31.658Z</time>
      </trkpt>
      <trkpt lat="45.73505" lon="4.64161">
        <ele>463.9</ele>
        <time>2019-09-01T19:59:31.958Z</time>
      </trkpt>
      <trkpt lat="45.73498" lon="4.64142">
        <ele>465.6</ele>
        <time>2019-09-01T19:59:32.268Z</time>
      </trkpt>
      <trkpt lat="45.73489" lon="4.6413">
        <ele>467.8</ele>
        <time>2019-09-01T19:59:32.502Z</time>
      </trkpt>
      <trkpt lat="45.73481" lon="4.64123">
        <ele>470.2</ele>
        <time>2019-09-01T19:59:32.699Z</time>
      </trkpt>
      <trkpt lat="45.73461" lon="4.641">
        <ele>475.5</ele>
        <time>2019-09-01T19:59:33.201Z</time>
      </trkpt>
      <trkpt lat="45.73439" lon="4.64062">
        <ele>481</ele>
        <time>2019-09-01T19:59:33.905Z</time>
      </trkpt>
      <trkpt lat="45.73428" lon="4.64048">
        <ele>484.2</ele>
        <time>2019-09-01T19:59:34.191Z</time>
      </trkpt>
      <trkpt lat="45.7342" lon="4.64035">
        <ele>486.8</ele>
        <time>2019-09-01T19:59:34.438Z</time>
      </trkpt>
      <trkpt lat="45.73417" lon="4.64026">
        <ele>487.8</ele>
        <time>2019-09-01T19:59:34.580Z</time>
      </trkpt>
      <trkpt lat="45.73414" lon="4.64008">
        <ele>488.2</ele>
        <time>2019-09-01T19:59:34.835Z</time>
      </trkpt>
      <trkpt lat="45.73409" lon="4.63991">
        <ele>489.2</ele>
        <time>2019-09-01T19:59:35.100Z</time>
      </trkpt>
      <trkpt lat="45.73401" lon="4.63977">
        <ele>491.4</ele>
        <time>2019-09-01T19:59:35.351Z</time>
      </trkpt>
      <trkpt lat="45.73391" lon="4.63965">
        <ele>494.4</ele>
        <time>2019-09-01T19:59:35.610Z</time>
      </trkpt>
      <trkpt lat="45.73382" lon="4.63946">
        <ele>497.6</ele>
        <time>2019-09-01T19:59:35.929Z</time>
      </trkpt>
      <trkpt lat="45.73375" lon="4.63928">
        <ele>499.6</ele>
        <time>2019-09-01T19:59:36.214Z</time>
      </trkpt>
      <trkpt lat="45.73368" lon="4.63884">
        <ele>502.3</ele>
        <time>2019-09-01T19:59:36.846Z</time>
      </trkpt>
      <trkpt lat="45.73367" lon="4.63871">
        <ele>502.5</ele>
        <time>2019-09-01T19:59:37.035Z</time>
      </trkpt>
      <trkpt lat="45.73363" lon="4.63856">
        <ele>504.3</ele>
        <time>2019-09-01T19:59:37.257Z</time>
      </trkpt>
      <trkpt lat="45.73356" lon="4.63842">
        <ele>507.2</ele>
        <time>2019-09-01T19:59:37.504Z</time>
      </trkpt>
      <trkpt lat="45.73342" lon="4.63804">
        <ele>513.5</ele>
        <time>2019-09-01T19:59:38.102Z</time>
      </trkpt>
      <trkpt lat="45.73338" lon="4.6377">
        <ele>516.4</ele>
        <time>2019-09-01T19:59:38.589Z</time>
      </trkpt>
      <trkpt lat="45.73331" lon="4.63749">
        <ele>519</ele>
        <time>2019-09-01T19:59:38.909Z</time>
      </trkpt>
      <trkpt lat="45.73328" lon="4.63723">
        <ele>521.1</ele>
        <time>2019-09-01T19:59:39.273Z</time>
      </trkpt>
      <trkpt lat="45.73316" lon="4.63661">
        <ele>525.4</ele>
        <time>2019-09-01T19:59:40.167Z</time>
      </trkpt>
      <trkpt lat="45.73313" lon="4.6363">
        <ele>526.5</ele>
        <time>2019-09-01T19:59:40.609Z</time>
      </trkpt>
      <trkpt lat="45.73307" lon="4.63609">
        <ele>528.5</ele>
        <time>2019-09-01T19:59:40.931Z</time>
      </trkpt>
      <trkpt lat="45.73304" lon="4.6357">
        <ele>530</ele>
        <time>2019-09-01T19:59:41.472Z</time>
      </trkpt>
      <trkpt lat="45.73303" lon="4.63533">
        <ele>531.2</ele>
        <time>2019-09-01T19:59:41.990Z</time>
      </trkpt>
      <trkpt lat="45.733" lon="4.63503">
        <ele>533.7</ele>
        <time>2019-09-01T19:59:42.424Z</time>
      </trkpt>
      <trkpt lat="45.73301" lon="4.63482">
        <ele>533.9</ele>
        <time>2019-09-01T19:59:42.713Z</time>
      </trkpt>
      <trkpt lat="45.73299" lon="4.6346">
        <ele>535.4</ele>
        <time>2019-09-01T19:59:43.028Z</time>
      </trkpt>
      <trkpt lat="45.73301" lon="4.63446">
        <ele>535</ele>
        <time>2019-09-01T19:59:43.219Z</time>
      </trkpt>
      <trkpt lat="45.73294" lon="4.63391">
        <ele>540</ele>
        <time>2019-09-01T19:59:44.000Z</time>
      </trkpt>
      <trkpt lat="45.73294" lon="4.63373">
        <ele>541.2</ele>
        <time>2019-09-01T19:59:44.249Z</time>
      </trkpt>
      <trkpt lat="45.73287" lon="4.63349">
        <ele>544.9</ele>
        <time>2019-09-01T19:59:44.619Z</time>
      </trkpt>
      <trkpt lat="45.73283" lon="4.63317">
        <ele>548.2</ele>
        <time>2019-09-01T19:59:45.065Z</time>
      </trkpt>
      <trkpt lat="45.73283" lon="4.63299">
        <ele>550.1</ele>
        <time>2019-09-01T19:59:45.325Z</time>
      </trkpt>
      <trkpt lat="45.73285" lon="4.63291">
        <ele>551</ele>
        <time>2019-09-01T19:59:45.441Z</time>
      </trkpt>
      <trkpt lat="45.73287" lon="4.63284">
        <ele>551.8</ele>
        <time>2019-09-01T19:59:45.541Z</time>
      </trkpt>
      <trkpt lat="45.73294" lon="4.63273">
        <ele>553.4</ele>
        <time>2019-09-01T19:59:45.758Z</time>
      </trkpt>
      <trkpt lat="45.73299" lon="4.63267">
        <ele>554.3</ele>
        <time>2019-09-01T19:59:45.879Z</time>
      </trkpt>
      <trkpt lat="45.73325" lon="4.63266">
        <ele>557.4</ele>
        <time>2019-09-01T19:59:46.403Z</time>
      </trkpt>
      <trkpt lat="45.73335" lon="4.63256">
        <ele>560.7</ele>
        <time>2019-09-01T19:59:46.648Z</time>
      </trkpt>
      <trkpt lat="45.73343" lon="4.63243">
        <ele>563.2</ele>
        <time>2019-09-01T19:59:46.880Z</time>
      </trkpt>
      <trkpt lat="45.73346" lon="4.63225">
        <ele>566.5</ele>
        <time>2019-09-01T19:59:47.147Z</time>
      </trkpt>
      <trkpt lat="45.73335" lon="4.63194">
        <ele>571.1</ele>
        <time>2019-09-01T19:59:47.627Z</time>
      </trkpt>
      <trkpt lat="45.73332" lon="4.63182">
        <ele>573.6</ele>
        <time>2019-09-01T19:59:47.812Z</time>
      </trkpt>
      <trkpt lat="45.73329" lon="4.63176">
        <ele>574.7</ele>
        <time>2019-09-01T19:59:47.914Z</time>
      </trkpt>
      <trkpt lat="45.73317" lon="4.63163">
        <ele>576.7</ele>
        <time>2019-09-01T19:59:48.211Z</time>
      </trkpt>
      <trkpt lat="45.73287" lon="4.63154">
        <ele>577.4</ele>
        <time>2019-09-01T19:59:48.828Z</time>
      </trkpt>
      <trkpt lat="45.73279" lon="4.63149">
        <ele>578.5</ele>
        <time>2019-09-01T19:59:49.010Z</time>
      </trkpt>
      <trkpt lat="45.73271" lon="4.6314">
        <ele>580.7</ele>
        <time>2019-09-01T19:59:49.209Z</time>
      </trkpt>
      <trkpt lat="45.73254" lon="4.63129">
        <ele>583.4</ele>
        <time>2019-09-01T19:59:49.582Z</time>
      </trkpt>
      <trkpt lat="45.7324" lon="4.63122">
        <ele>585.8</ele>
        <time>2019-09-01T19:59:49.875Z</time>
      </trkpt>
      <trkpt lat="45.73233" lon="4.63121">
        <ele>586.6</ele>
        <time>2019-09-01T19:59:50.027Z</time>
      </trkpt>
      <trkpt lat="45.73224" lon="4.63115">
        <ele>588.2</ele>
        <time>2019-09-01T19:59:50.216Z</time>
      </trkpt>
      <trkpt lat="45.73204" lon="4.63091">
        <ele>595.3</ele>
        <time>2019-09-01T19:59:50.738Z</time>
      </trkpt>
      <trkpt lat="45.73164" lon="4.63035">
        <ele>602.2</ele>
        <time>2019-09-01T19:59:51.861Z</time>
      </trkpt>
      <trkpt lat="45.73161" lon="4.63031">
        <ele>602.2</ele>
        <time>2019-09-01T19:59:51.947Z</time>
      </trkpt>
      <trkpt lat="45.73157" lon="4.63018">
        <ele>602.3</ele>
        <time>2019-09-01T19:59:52.143Z</time>
      </trkpt>
      <trkpt lat="45.73153" lon="4.62973">
        <ele>602.6</ele>
        <time>2019-09-01T19:59:52.783Z</time>
      </trkpt>
      <trkpt lat="45.7316" lon="4.6292">
        <ele>606.4</ele>
        <time>2019-09-01T19:59:53.533Z</time>
      </trkpt>
      <trkpt lat="45.73161" lon="4.62883">
        <ele>606.7</ele>
        <time>2019-09-01T19:59:54.052Z</time>
      </trkpt>
      <trkpt lat="45.73165" lon="4.62856">
        <ele>608.1</ele>
        <time>2019-09-01T19:59:54.443Z</time>
      </trkpt>
      <trkpt lat="45.73185" lon="4.62806">
        <ele>613.8</ele>
        <time>2019-09-01T19:59:55.249Z</time>
      </trkpt>
      <trkpt lat="45.73192" lon="4.62785">
        <ele>615.5</ele>
        <time>2019-09-01T19:59:55.572Z</time>
      </trkpt>
      <trkpt lat="45.73195" lon="4.62767">
        <ele>615.9</ele>
        <time>2019-09-01T19:59:55.835Z</time>
      </trkpt>
      <trkpt lat="45.73198" lon="4.62731">
        <ele>614.7</ele>
        <time>2019-09-01T19:59:56.343Z</time>
      </trkpt>
      <trkpt lat="45.73201" lon="4.62729">
        <ele>615.3</ele>
        <time>2019-09-01T19:59:56.408Z</time>
      </trkpt>
      <trkpt lat="45.73204" lon="4.62729">
        <ele>616.3</ele>
        <time>2019-09-01T19:59:56.470Z</time>
      </trkpt>
      <trkpt lat="45.73203" lon="4.6274">
        <ele>616.9</ele>
        <time>2019-09-01T19:59:56.625Z</time>
      </trkpt>
      <trkpt lat="45.73207" lon="4.62747">
        <ele>618.8</ele>
        <time>2019-09-01T19:59:56.755Z</time>
      </trkpt>
      <trkpt lat="45.73208" lon="4.62757">
        <ele>619.7</ele>
        <time>2019-09-01T19:59:56.893Z</time>
      </trkpt>
      <trkpt lat="45.73212" lon="4.62773">
        <ele>622.2</ele>
        <time>2019-09-01T19:59:57.135Z</time>
      </trkpt>
      <trkpt lat="45.73217" lon="4.62806">
        <ele>625.2</ele>
        <time>2019-09-01T19:59:57.614Z</time>
      </trkpt>
      <trkpt lat="45.73222" lon="4.62826">
        <ele>627.7</ele>
        <time>2019-09-01T19:59:57.913Z</time>
      </trkpt>
      <trkpt lat="45.73226" lon="4.62829">
        <ele>628.8</ele>
        <time>2019-09-01T19:59:57.997Z</time>
      </trkpt>
      <trkpt lat="45.7323" lon="4.62828">
        <ele>629.9</ele>
        <time>2019-09-01T19:59:58.090Z</time>
      </trkpt>
      <trkpt lat="45.73235" lon="4.62823">
        <ele>631</ele>
        <time>2019-09-01T19:59:58.205Z</time>
      </trkpt>
      <trkpt lat="45.7325" lon="4.62813">
        <ele>634.9</ele>
        <time>2019-09-01T19:59:58.536Z</time>
      </trkpt>
      <trkpt lat="45.73266" lon="4.62796">
        <ele>638</ele>
        <time>2019-09-01T19:59:58.924Z</time>
      </trkpt>
      <trkpt lat="45.73276" lon="4.62788">
        <ele>639.9</ele>
        <time>2019-09-01T19:59:59.158Z</time>
      </trkpt>
      <trkpt lat="45.73285" lon="4.62784">
        <ele>641.4</ele>
        <time>2019-09-01T19:59:59.343Z</time>
      </trkpt>
      <trkpt lat="45.73299" lon="4.62782">
        <ele>643.8</ele>
        <time>2019-09-01T19:59:59.629Z</time>
      </trkpt>
      <trkpt lat="45.73316" lon="4.62772">
        <ele>645.5</ele>
        <time>2019-09-01T20:00:00.008Z</time>
      </trkpt>
      <trkpt lat="45.73337" lon="4.62764">
        <ele>647.2</ele>
        <time>2019-09-01T20:00:00.439Z</time>
      </trkpt>
      <trkpt lat="45.73357" lon="4.62754">
        <ele>648</ele>
        <time>2019-09-01T20:00:00.862Z</time>
      </trkpt>
      <trkpt lat="45.73378" lon="4.62749">
        <ele>649.2</ele>
        <time>2019-09-01T20:00:01.284Z</time>
      </trkpt>
      <trkpt lat="45.73389" lon="4.62744">
        <ele>649.8</ele>
        <time>2019-09-01T20:00:01.523Z</time>
      </trkpt>
      <trkpt lat="45.73415" lon="4.62724">
        <ele>653.8</ele>
        <time>2019-09-01T20:00:02.113Z</time>
      </trkpt>
      <trkpt lat="45.73442" lon="4.62698">
        <ele>656.7</ele>
        <time>2019-09-01T20:00:02.771Z</time>
      </trkpt>
      <trkpt lat="45.73476" lon="4.62662">
        <ele>661.9</ele>
        <time>2019-09-01T20:00:03.620Z</time>
      </trkpt>
      <trkpt lat="45.73485" lon="4.6265">
        <ele>663.8</ele>
        <time>2019-09-01T20:00:03.850Z</time>
      </trkpt>
      <trkpt lat="45.73503" lon="4.62633">
        <ele>668.4</ele>
        <time>2019-09-01T20:00:04.283Z</time>
      </trkpt>
      <trkpt lat="45.73507" lon="4.62604">
        <ele>669.3</ele>
        <time>2019-09-01T20:00:04.692Z</time>
      </trkpt>
      <trkpt lat="45.73512" lon="4.62586">
        <ele>670.9</ele>
        <time>2019-09-01T20:00:04.968Z</time>
      </trkpt>
      <trkpt lat="45.73519" lon="4.62571">
        <ele>673.7</ele>
        <time>2019-09-01T20:00:05.218Z</time>
      </trkpt>
      <trkpt lat="45.73517" lon="4.62543">
        <ele>674.3</ele>
        <time>2019-09-01T20:00:05.610Z</time>
      </trkpt>
      <trkpt lat="45.7352" lon="4.62525">
        <ele>676.3</ele>
        <time>2019-09-01T20:00:05.878Z</time>
      </trkpt>
      <trkpt lat="45.7351" lon="4.62487">
        <ele>676.2</ele>
        <time>2019-09-01T20:00:06.439Z</time>
      </trkpt>
      <trkpt lat="45.73485" lon="4.62451">
        <ele>671.9</ele>
        <time>2019-09-01T20:00:07.152Z</time>
      </trkpt>
      <trkpt lat="45.73472" lon="4.62417">
        <ele>673.6</ele>
        <time>2019-09-01T20:00:07.694Z</time>
      </trkpt>
      <trkpt lat="45.73446" lon="4.62361">
        <ele>672.7</ele>
        <time>2019-09-01T20:00:08.630Z</time>
      </trkpt>
      <trkpt lat="45.73412" lon="4.62326">
        <ele>665.1</ele>
        <time>2019-09-01T20:00:09.467Z</time>
      </trkpt>
      <trkpt lat="45.73402" lon="4.623">
        <ele>663.8</ele>
        <time>2019-09-01T20:00:09.879Z</time>
      </trkpt>
      <trkpt lat="45.73394" lon="4.62283">
        <ele>661.7</ele>
        <time>2019-09-01T20:00:10.171Z</time>
      </trkpt>
      <trkpt lat="45.73368" lon="4.62245">
        <ele>653.9</ele>
        <time>2019-09-01T20:00:10.920Z</time>
      </trkpt>
      <trkpt lat="45.73368" lon="4.62235">
        <ele>653.3</ele>
        <time>2019-09-01T20:00:11.057Z</time>
      </trkpt>
      <trkpt lat="45.73371" lon="4.62223">
        <ele>653.6</ele>
        <time>2019-09-01T20:00:11.233Z</time>
      </trkpt>
      <trkpt lat="45.73389" lon="4.62169">
        <ele>657.1</ele>
        <time>2019-09-01T20:00:12.065Z</time>
      </trkpt>
      <trkpt lat="45.73397" lon="4.62126">
        <ele>658.3</ele>
        <time>2019-09-01T20:00:12.693Z</time>
      </trkpt>
      <trkpt lat="45.73401" lon="4.62081">
        <ele>660.3</ele>
        <time>2019-09-01T20:00:13.319Z</time>
      </trkpt>
      <trkpt lat="45.73401" lon="4.62012">
        <ele>663.1</ele>
        <time>2019-09-01T20:00:14.286Z</time>
      </trkpt>
      <trkpt lat="45.73399" lon="4.61991">
        <ele>663.9</ele>
        <time>2019-09-01T20:00:14.591Z</time>
      </trkpt>
      <trkpt lat="45.73394" lon="4.61968">
        <ele>663.7</ele>
        <time>2019-09-01T20:00:14.928Z</time>
      </trkpt>
      <trkpt lat="45.73375" lon="4.61939">
        <ele>660.4</ele>
        <time>2019-09-01T20:00:15.483Z</time>
      </trkpt>
      <trkpt lat="45.73359" lon="4.61922">
        <ele>658.1</ele>
        <time>2019-09-01T20:00:15.884Z</time>
      </trkpt>
      <trkpt lat="45.73352" lon="4.61909">
        <ele>659.2</ele>
        <time>2019-09-01T20:00:16.122Z</time>
      </trkpt>
      <trkpt lat="45.73331" lon="4.6186">
        <ele>661.2</ele>
        <time>2019-09-01T20:00:16.922Z</time>
      </trkpt>
      <trkpt lat="45.73304" lon="4.61748">
        <ele>660.1</ele>
        <time>2019-09-01T20:00:18.581Z</time>
      </trkpt>
      <trkpt lat="45.73304" lon="4.61722">
        <ele>660.1</ele>
        <time>2019-09-01T20:00:18.939Z</time>
      </trkpt>
      <trkpt lat="45.73307" lon="4.61696">
        <ele>659.9</ele>
        <time>2019-09-01T20:00:19.307Z</time>
      </trkpt>
      <trkpt lat="45.73315" lon="4.61674">
        <ele>660.4</ele>
        <time>2019-09-01T20:00:19.663Z</time>
      </trkpt>
      <trkpt lat="45.73344" lon="4.61614">
        <ele>662.9</ele>
        <time>2019-09-01T20:00:20.670Z</time>
      </trkpt>
      <trkpt lat="45.73361" lon="4.61589">
        <ele>665.5</ele>
        <time>2019-09-01T20:00:21.158Z</time>
      </trkpt>
      <trkpt lat="45.73365" lon="4.61577">
        <ele>665.4</ele>
        <time>2019-09-01T20:00:21.351Z</time>
      </trkpt>
      <trkpt lat="45.73388" lon="4.61484">
        <ele>662.2</ele>
        <time>2019-09-01T20:00:22.732Z</time>
      </trkpt>
      <trkpt lat="45.73404" lon="4.61425">
        <ele>666</ele>
        <time>2019-09-01T20:00:23.610Z</time>
      </trkpt>
      <trkpt lat="45.73396" lon="4.61418">
        <ele>662.7</ele>
        <time>2019-09-01T20:00:23.807Z</time>
      </trkpt>
      <trkpt lat="45.73344" lon="4.61404">
        <ele>657.1</ele>
        <time>2019-09-01T20:00:24.854Z</time>
      </trkpt>
      <trkpt lat="45.73323" lon="4.61403">
        <ele>656.9</ele>
        <time>2019-09-01T20:00:25.286Z</time>
      </trkpt>
      <trkpt lat="45.73315" lon="4.61398">
        <ele>658.3</ele>
        <time>2019-09-01T20:00:25.460Z</time>
      </trkpt>
      <trkpt lat="45.73288" lon="4.61378">
        <ele>663.7</ele>
        <time>2019-09-01T20:00:26.072Z</time>
      </trkpt>
      <trkpt lat="45.73264" lon="4.61344">
        <ele>666.4</ele>
        <time>2019-09-01T20:00:26.745Z</time>
      </trkpt>
      <trkpt lat="45.73248" lon="4.61308">
        <ele>666</ele>
        <time>2019-09-01T20:00:27.346Z</time>
      </trkpt>
      <trkpt lat="45.73245" lon="4.61295">
        <ele>666.4</ele>
        <time>2019-09-01T20:00:27.536Z</time>
      </trkpt>
      <trkpt lat="45.73241" lon="4.61266">
        <ele>667.1</ele>
        <time>2019-09-01T20:00:27.945Z</time>
      </trkpt>
      <trkpt lat="45.7324" lon="4.61233">
        <ele>668</ele>
        <time>2019-09-01T20:00:28.414Z</time>
      </trkpt>
      <trkpt lat="45.73235" lon="4.61181">
        <ele>667.7</ele>
        <time>2019-09-01T20:00:29.136Z</time>
      </trkpt>
      <trkpt lat="45.73224" lon="4.61128">
        <ele>667.7</ele>
        <time>2019-09-01T20:00:29.913Z</time>
      </trkpt>
      <trkpt lat="45.73216" lon="4.61106">
        <ele>668.7</ele>
        <time>2019-09-01T20:00:30.260Z</time>
      </trkpt>
      <trkpt lat="45.73206" lon="4.61095">
        <ele>668.2</ele>
        <time>2019-09-01T20:00:30.510Z</time>
      </trkpt>
      <trkpt lat="45.73201" lon="4.61092">
        <ele>667.5</ele>
        <time>2019-09-01T20:00:30.624Z</time>
      </trkpt>
      <trkpt lat="45.73188" lon="4.61092">
        <ele>665.9</ele>
        <time>2019-09-01T20:00:30.889Z</time>
      </trkpt>
      <trkpt lat="45.73176" lon="4.61108">
        <ele>662.4</ele>
        <time>2019-09-01T20:00:31.216Z</time>
      </trkpt>
      <trkpt lat="45.73166" lon="4.61117">
        <ele>660.8</ele>
        <time>2019-09-01T20:00:31.446Z</time>
      </trkpt>
      <trkpt lat="45.73146" lon="4.61127">
        <ele>661.2</ele>
        <time>2019-09-01T20:00:31.877Z</time>
      </trkpt>
      <trkpt lat="45.73122" lon="4.61133">
        <ele>664</ele>
        <time>2019-09-01T20:00:32.359Z</time>
      </trkpt>
      <trkpt lat="45.73107" lon="4.6115">
        <ele>662.8</ele>
        <time>2019-09-01T20:00:32.741Z</time>
      </trkpt>
      <trkpt lat="45.73063" lon="4.6121">
        <ele>656.9</ele>
        <time>2019-09-01T20:00:33.962Z</time>
      </trkpt>
      <trkpt lat="45.73056" lon="4.61216">
        <ele>657.2</ele>
        <time>2019-09-01T20:00:34.127Z</time>
      </trkpt>
      <trkpt lat="45.73045" lon="4.61222">
        <ele>658.7</ele>
        <time>2019-09-01T20:00:34.352Z</time>
      </trkpt>
      <trkpt lat="45.73026" lon="4.61224">
        <ele>662.9</ele>
        <time>2019-09-01T20:00:34.742Z</time>
      </trkpt>
      <trkpt lat="45.72991" lon="4.61224">
        <ele>667.6</ele>
        <time>2019-09-01T20:00:35.443Z</time>
      </trkpt>
      <trkpt lat="45.72975" lon="4.61221">
        <ele>669.8</ele>
        <time>2019-09-01T20:00:35.760Z</time>
      </trkpt>
      <trkpt lat="45.72962" lon="4.61217">
        <ele>671.7</ele>
        <time>2019-09-01T20:00:36.034Z</time>
      </trkpt>
      <trkpt lat="45.72948" lon="4.61209">
        <ele>673.7</ele>
        <time>2019-09-01T20:00:36.336Z</time>
      </trkpt>
      <trkpt lat="45.72934" lon="4.61206">
        <ele>674</ele>
        <time>2019-09-01T20:00:36.614Z</time>
      </trkpt>
      <trkpt lat="45.72854" lon="4.61166">
        <ele>674.1</ele>
        <time>2019-09-01T20:00:38.313Z</time>
      </trkpt>
      <trkpt lat="45.72848" lon="4.61165">
        <ele>673.5</ele>
        <time>2019-09-01T20:00:38.435Z</time>
      </trkpt>
      <trkpt lat="45.72822" lon="4.61164">
        <ele>670.6</ele>
        <time>2019-09-01T20:00:38.954Z</time>
      </trkpt>
      <trkpt lat="45.72775" lon="4.61179">
        <ele>667.1</ele>
        <time>2019-09-01T20:00:39.918Z</time>
      </trkpt>
      <trkpt lat="45.72748" lon="4.61199">
        <ele>664.9</ele>
        <time>2019-09-01T20:00:40.526Z</time>
      </trkpt>
      <trkpt lat="45.72723" lon="4.61212">
        <ele>665</ele>
        <time>2019-09-01T20:00:41.067Z</time>
      </trkpt>
      <trkpt lat="45.72715" lon="4.6121">
        <ele>666.5</ele>
        <time>2019-09-01T20:00:41.219Z</time>
      </trkpt>
      <trkpt lat="45.72682" lon="4.61215">
        <ele>669.3</ele>
        <time>2019-09-01T20:00:41.884Z</time>
      </trkpt>
      <trkpt lat="45.7267" lon="4.61216">
        <ele>670.5</ele>
        <time>2019-09-01T20:00:42.121Z</time>
      </trkpt>
      <trkpt lat="45.72665" lon="4.61214">
        <ele>671.4</ele>
        <time>2019-09-01T20:00:42.237Z</time>
      </trkpt>
      <trkpt lat="45.7263" lon="4.61196">
        <ele>676.8</ele>
        <time>2019-09-01T20:00:42.971Z</time>
      </trkpt>
      <trkpt lat="45.72619" lon="4.61196">
        <ele>675.4</ele>
        <time>2019-09-01T20:00:43.203Z</time>
      </trkpt>
      <trkpt lat="45.726" lon="4.61206">
        <ele>671.8</ele>
        <time>2019-09-01T20:00:43.612Z</time>
      </trkpt>
      <trkpt lat="45.72574" lon="4.61226">
        <ele>667.6</ele>
        <time>2019-09-01T20:00:44.204Z</time>
      </trkpt>
      <trkpt lat="45.72558" lon="4.61249">
        <ele>663.7</ele>
        <time>2019-09-01T20:00:44.648Z</time>
      </trkpt>
      <trkpt lat="45.72538" lon="4.61273">
        <ele>662.7</ele>
        <time>2019-09-01T20:00:45.183Z</time>
      </trkpt>
      <trkpt lat="45.72527" lon="4.61281">
        <ele>663.3</ele>
        <time>2019-09-01T20:00:45.418Z</time>
      </trkpt>
      <trkpt lat="45.72518" lon="4.61286">
        <ele>664.5</ele>
        <time>2019-09-01T20:00:45.616Z</time>
      </trkpt>
      <trkpt lat="45.72451" lon="4.613">
        <ele>671.2</ele>
        <time>2019-09-01T20:00:46.973Z</time>
      </trkpt>
      <trkpt lat="45.72445" lon="4.61293">
        <ele>672.4</ele>
        <time>2019-09-01T20:00:47.132Z</time>
      </trkpt>
      <trkpt lat="45.72444" lon="4.61266">
        <ele>674.8</ele>
        <time>2019-09-01T20:00:47.512Z</time>
      </trkpt>
      <trkpt lat="45.72443" lon="4.61266">
        <ele>674.7</ele>
        <time>2019-09-01T20:00:47.536Z</time>
      </trkpt>
      <trkpt lat="45.72435" lon="4.61242">
        <ele>674.7</ele>
        <time>2019-09-01T20:00:47.911Z</time>
      </trkpt>
      <trkpt lat="45.72431" lon="4.61211">
        <ele>673.7</ele>
        <time>2019-09-01T20:00:48.346Z</time>
      </trkpt>
      <trkpt lat="45.72443" lon="4.61147">
        <ele>673.6</ele>
        <time>2019-09-01T20:00:49.273Z</time>
      </trkpt>
      <trkpt lat="45.72447" lon="4.61113">
        <ele>673.1</ele>
        <time>2019-09-01T20:00:49.758Z</time>
      </trkpt>
      <trkpt lat="45.72448" lon="4.6107">
        <ele>673.4</ele>
        <time>2019-09-01T20:00:50.355Z</time>
      </trkpt>
      <trkpt lat="45.7246" lon="4.60915">
        <ele>675.4</ele>
        <time>2019-09-01T20:00:52.541Z</time>
      </trkpt>
      <trkpt lat="45.72469" lon="4.60853">
        <ele>676.2</ele>
        <time>2019-09-01T20:00:53.426Z</time>
      </trkpt>
      <trkpt lat="45.72482" lon="4.6078">
        <ele>679.4</ele>
        <time>2019-09-01T20:00:54.476Z</time>
      </trkpt>
      <trkpt lat="45.72485" lon="4.6074">
        <ele>683.2</ele>
        <time>2019-09-01T20:00:55.044Z</time>
      </trkpt>
      <trkpt lat="45.72484" lon="4.60733">
        <ele>683.5</ele>
        <time>2019-09-01T20:00:55.135Z</time>
      </trkpt>
      <trkpt lat="45.72478" lon="4.60725">
        <ele>681.8</ele>
        <time>2019-09-01T20:00:55.315Z</time>
      </trkpt>
      <trkpt lat="45.72464" lon="4.6072">
        <ele>678.4</ele>
        <time>2019-09-01T20:00:55.602Z</time>
      </trkpt>
      <trkpt lat="45.72378" lon="4.60723">
        <ele>674.3</ele>
        <time>2019-09-01T20:00:57.328Z</time>
      </trkpt>
      <trkpt lat="45.72343" lon="4.60714">
        <ele>677.7</ele>
        <time>2019-09-01T20:00:58.035Z</time>
      </trkpt>
      <trkpt lat="45.72281" lon="4.6067">
        <ele>681.5</ele>
        <time>2019-09-01T20:00:59.422Z</time>
      </trkpt>
      <trkpt lat="45.72252" lon="4.60653">
        <ele>679.4</ele>
        <time>2019-09-01T20:01:00.045Z</time>
      </trkpt>
      <trkpt lat="45.72214" lon="4.60623">
        <ele>679.3</ele>
        <time>2019-09-01T20:01:00.919Z</time>
      </trkpt>
      <trkpt lat="45.7219" lon="4.60598">
        <ele>680.8</ele>
        <time>2019-09-01T20:01:01.514Z</time>
      </trkpt>
      <trkpt lat="45.72182" lon="4.60574">
        <ele>682.6</ele>
        <time>2019-09-01T20:01:01.881Z</time>
      </trkpt>
      <trkpt lat="45.72164" lon="4.60511">
        <ele>683</ele>
        <time>2019-09-01T20:01:02.841Z</time>
      </trkpt>
      <trkpt lat="45.72148" lon="4.60469">
        <ele>681.7</ele>
        <time>2019-09-01T20:01:03.496Z</time>
      </trkpt>
      <trkpt lat="45.72126" lon="4.60426">
        <ele>680.1</ele>
        <time>2019-09-01T20:01:04.251Z</time>
      </trkpt>
      <trkpt lat="45.72123" lon="4.60406">
        <ele>681.3</ele>
        <time>2019-09-01T20:01:04.528Z</time>
      </trkpt>
      <trkpt lat="45.72128" lon="4.60365">
        <ele>684.3</ele>
        <time>2019-09-01T20:01:05.121Z</time>
      </trkpt>
      <trkpt lat="45.72132" lon="4.60284">
        <ele>678.7</ele>
        <time>2019-09-01T20:01:06.253Z</time>
      </trkpt>
      <trkpt lat="45.72128" lon="4.60267">
        <ele>677.5</ele>
        <time>2019-09-01T20:01:06.499Z</time>
      </trkpt>
      <trkpt lat="45.72107" lon="4.60216">
        <ele>677.4</ele>
        <time>2019-09-01T20:01:07.320Z</time>
      </trkpt>
      <trkpt lat="45.72094" lon="4.60152">
        <ele>681.5</ele>
        <time>2019-09-01T20:01:08.257Z</time>
      </trkpt>
      <trkpt lat="45.72083" lon="4.60138">
        <ele>676.1</ele>
        <time>2019-09-01T20:01:08.560Z</time>
      </trkpt>
      <trkpt lat="45.72011" lon="4.60124">
        <ele>673.4</ele>
        <time>2019-09-01T20:01:10.005Z</time>
      </trkpt>
      <trkpt lat="45.71994" lon="4.60123">
        <ele>675.2</ele>
        <time>2019-09-01T20:01:10.348Z</time>
      </trkpt>
      <trkpt lat="45.71966" lon="4.60116">
        <ele>679.5</ele>
        <time>2019-09-01T20:01:10.918Z</time>
      </trkpt>
      <trkpt lat="45.71951" lon="4.60108">
        <ele>681.8</ele>
        <time>2019-09-01T20:01:11.248Z</time>
      </trkpt>
      <trkpt lat="45.71937" lon="4.60098">
        <ele>683.4</ele>
        <time>2019-09-01T20:01:11.554Z</time>
      </trkpt>
      <trkpt lat="45.71911" lon="4.6005">
        <ele>683.8</ele>
        <time>2019-09-01T20:01:12.407Z</time>
      </trkpt>
      <trkpt lat="45.71907" lon="4.60032">
        <ele>683.9</ele>
        <time>2019-09-01T20:01:12.671Z</time>
      </trkpt>
      <trkpt lat="45.71902" lon="4.5998">
        <ele>683.5</ele>
        <time>2019-09-01T20:01:13.404Z</time>
      </trkpt>
      <trkpt lat="45.71902" lon="4.59924">
        <ele>683.4</ele>
        <time>2019-09-01T20:01:14.185Z</time>
      </trkpt>
      <trkpt lat="45.71905" lon="4.59877">
        <ele>682.8</ele>
        <time>2019-09-01T20:01:14.856Z</time>
      </trkpt>
      <trkpt lat="45.71915" lon="4.59827">
        <ele>684.1</ele>
        <time>2019-09-01T20:01:15.584Z</time>
      </trkpt>
      <trkpt lat="45.71918" lon="4.59779">
        <ele>684.5</ele>
        <time>2019-09-01T20:01:16.251Z</time>
      </trkpt>
      <trkpt lat="45.71912" lon="4.5974">
        <ele>681.5</ele>
        <time>2019-09-01T20:01:16.803Z</time>
      </trkpt>
      <trkpt lat="45.71902" lon="4.59694">
        <ele>680.5</ele>
        <time>2019-09-01T20:01:17.487Z</time>
      </trkpt>
      <trkpt lat="45.71889" lon="4.59675">
        <ele>678.6</ele>
        <time>2019-09-01T20:01:17.856Z</time>
      </trkpt>
      <trkpt lat="45.7187" lon="4.59665">
        <ele>678.2</ele>
        <time>2019-09-01T20:01:18.261Z</time>
      </trkpt>
      <trkpt lat="45.7186" lon="4.59665">
        <ele>677.4</ele>
        <time>2019-09-01T20:01:18.453Z</time>
      </trkpt>
      <trkpt lat="45.7183" lon="4.59671">
        <ele>678.2</ele>
        <time>2019-09-01T20:01:19.068Z</time>
      </trkpt>
      <trkpt lat="45.71811" lon="4.59672">
        <ele>680.7</ele>
        <time>2019-09-01T20:01:19.455Z</time>
      </trkpt>
      <trkpt lat="45.71763" lon="4.59689">
        <ele>684.5</ele>
        <time>2019-09-01T20:01:20.433Z</time>
      </trkpt>
      <trkpt lat="45.71742" lon="4.59692">
        <ele>687.1</ele>
        <time>2019-09-01T20:01:20.872Z</time>
      </trkpt>
      <trkpt lat="45.71716" lon="4.59691">
        <ele>690.6</ele>
        <time>2019-09-01T20:01:21.391Z</time>
      </trkpt>
      <trkpt lat="45.71692" lon="4.59695">
        <ele>690</ele>
        <time>2019-09-01T20:01:21.861Z</time>
      </trkpt>
      <trkpt lat="45.71664" lon="4.5971">
        <ele>687.8</ele>
        <time>2019-09-01T20:01:22.464Z</time>
      </trkpt>
      <trkpt lat="45.71623" lon="4.59728">
        <ele>691</ele>
        <time>2019-09-01T20:01:23.335Z</time>
      </trkpt>
      <trkpt lat="45.71603" lon="4.5974">
        <ele>692.3</ele>
        <time>2019-09-01T20:01:23.768Z</time>
      </trkpt>
      <trkpt lat="45.71582" lon="4.59755">
        <ele>692.5</ele>
        <time>2019-09-01T20:01:24.224Z</time>
      </trkpt>
      <trkpt lat="45.71567" lon="4.59761">
        <ele>693.3</ele>
        <time>2019-09-01T20:01:24.554Z</time>
      </trkpt>
      <trkpt lat="45.71537" lon="4.59759">
        <ele>695.5</ele>
        <time>2019-09-01T20:01:25.138Z</time>
      </trkpt>
      <trkpt lat="45.7152" lon="4.59748">
        <ele>696.5</ele>
        <time>2019-09-01T20:01:25.527Z</time>
      </trkpt>
      <trkpt lat="45.71492" lon="4.59726">
        <ele>694.3</ele>
        <time>2019-09-01T20:01:26.160Z</time>
      </trkpt>
      <trkpt lat="45.71465" lon="4.59708">
        <ele>688.9</ele>
        <time>2019-09-01T20:01:26.751Z</time>
      </trkpt>
      <trkpt lat="45.71443" lon="4.59673">
        <ele>687.4</ele>
        <time>2019-09-01T20:01:27.412Z</time>
      </trkpt>
      <trkpt lat="45.71434" lon="4.59647">
        <ele>687.4</ele>
        <time>2019-09-01T20:01:27.824Z</time>
      </trkpt>
      <trkpt lat="45.71431" lon="4.59632">
        <ele>687.8</ele>
        <time>2019-09-01T20:01:28.034Z</time>
      </trkpt>
      <trkpt lat="45.71427" lon="4.59598">
        <ele>687.2</ele>
        <time>2019-09-01T20:01:28.525Z</time>
      </trkpt>
      <trkpt lat="45.71429" lon="4.59437">
        <ele>686.3</ele>
        <time>2019-09-01T20:01:30.765Z</time>
      </trkpt>
      <trkpt lat="45.71423" lon="4.59375">
        <ele>685.8</ele>
        <time>2019-09-01T20:01:31.641Z</time>
      </trkpt>
      <trkpt lat="45.71422" lon="4.59296">
        <ele>686.9</ele>
        <time>2019-09-01T20:01:32.759Z</time>
      </trkpt>
      <trkpt lat="45.71427" lon="4.59261">
        <ele>686.7</ele>
        <time>2019-09-01T20:01:33.255Z</time>
      </trkpt>
      <trkpt lat="45.71428" lon="4.59228">
        <ele>686.2</ele>
        <time>2019-09-01T20:01:33.715Z</time>
      </trkpt>
      <trkpt lat="45.71426" lon="4.59202">
        <ele>686.1</ele>
        <time>2019-09-01T20:01:34.084Z</time>
      </trkpt>
      <trkpt lat="45.71422" lon="4.5919">
        <ele>685.7</ele>
        <time>2019-09-01T20:01:34.272Z</time>
      </trkpt>
      <trkpt lat="45.71403" lon="4.59171">
        <ele>684.4</ele>
        <time>2019-09-01T20:01:34.724Z</time>
      </trkpt>
      <trkpt lat="45.71389" lon="4.59159">
        <ele>684.9</ele>
        <time>2019-09-01T20:01:35.049Z</time>
      </trkpt>
      <trkpt lat="45.71361" lon="4.59126">
        <ele>688.8</ele>
        <time>2019-09-01T20:01:35.791Z</time>
      </trkpt>
      <trkpt lat="45.71346" lon="4.59122">
        <ele>690.6</ele>
        <time>2019-09-01T20:01:36.098Z</time>
      </trkpt>
      <trkpt lat="45.7132" lon="4.59123">
        <ele>692.3</ele>
        <time>2019-09-01T20:01:36.617Z</time>
      </trkpt>
      <trkpt lat="45.71306" lon="4.59126">
        <ele>693.2</ele>
        <time>2019-09-01T20:01:36.894Z</time>
      </trkpt>
      <trkpt lat="45.71295" lon="4.59129">
        <ele>692.8</ele>
        <time>2019-09-01T20:01:37.115Z</time>
      </trkpt>
      <trkpt lat="45.71247" lon="4.5915">
        <ele>689.8</ele>
        <time>2019-09-01T20:01:38.128Z</time>
      </trkpt>
      <trkpt lat="45.71173" lon="4.5919">
        <ele>688.8</ele>
        <time>2019-09-01T20:01:39.705Z</time>
      </trkpt>
      <trkpt lat="45.71158" lon="4.59199">
        <ele>690</ele>
        <time>2019-09-01T20:01:40.033Z</time>
      </trkpt>
      <trkpt lat="45.71136" lon="4.59223">
        <ele>688.1</ele>
        <time>2019-09-01T20:01:40.586Z</time>
      </trkpt>
      <trkpt lat="45.71124" lon="4.59233">
        <ele>687</ele>
        <time>2019-09-01T20:01:40.867Z</time>
      </trkpt>
      <trkpt lat="45.71102" lon="4.59232">
        <ele>685.4</ele>
        <time>2019-09-01T20:01:41.306Z</time>
      </trkpt>
      <trkpt lat="45.71096" lon="4.59227">
        <ele>683.8</ele>
        <time>2019-09-01T20:01:41.457Z</time>
      </trkpt>
      <trkpt lat="45.71085" lon="4.59214">
        <ele>680.2</ele>
        <time>2019-09-01T20:01:41.734Z</time>
      </trkpt>
      <trkpt lat="45.71075" lon="4.59197">
        <ele>674.9</ele>
        <time>2019-09-01T20:01:42.055Z</time>
      </trkpt>
      <trkpt lat="45.71061" lon="4.59179">
        <ele>674.8</ele>
        <time>2019-09-01T20:01:42.425Z</time>
      </trkpt>
      <trkpt lat="45.71005" lon="4.59134">
        <ele>672.6</ele>
        <time>2019-09-01T20:01:43.707Z</time>
      </trkpt>
      <trkpt lat="45.70969" lon="4.59097">
        <ele>674.2</ele>
        <time>2019-09-01T20:01:44.606Z</time>
      </trkpt>
      <trkpt lat="45.70943" lon="4.59059">
        <ele>677.9</ele>
        <time>2019-09-01T20:01:45.346Z</time>
      </trkpt>
      <trkpt lat="45.70902" lon="4.59003">
        <ele>683.6</ele>
        <time>2019-09-01T20:01:46.479Z</time>
      </trkpt>
      <trkpt lat="45.70886" lon="4.58985">
        <ele>684.2</ele>
        <time>2019-09-01T20:01:46.884Z</time>
      </trkpt>
      <trkpt lat="45.70821" lon="4.58928">
        <ele>690.1</ele>
        <time>2019-09-01T20:01:48.407Z</time>
      </trkpt>
      <trkpt lat="45.70811" lon="4.58908">
        <ele>690.2</ele>
        <time>2019-09-01T20:01:48.750Z</time>
      </trkpt>
      <trkpt lat="45.70808" lon="4.58884">
        <ele>690.6</ele>
        <time>2019-09-01T20:01:49.094Z</time>
      </trkpt>
      <trkpt lat="45.70821" lon="4.58732">
        <ele>697.4</ele>
        <time>2019-09-01T20:01:51.243Z</time>
      </trkpt>
      <trkpt lat="45.70836" lon="4.58596">
        <ele>701.2</ele>
        <time>2019-09-01T20:01:53.176Z</time>
      </trkpt>
      <trkpt lat="45.70843" lon="4.58551">
        <ele>703.8</ele>
        <time>2019-09-01T20:01:53.820Z</time>
      </trkpt>
      <trkpt lat="45.70871" lon="4.58443">
        <ele>705.4</ele>
        <time>2019-09-01T20:01:55.436Z</time>
      </trkpt>
      <trkpt lat="45.7089" lon="4.58363">
        <ele>710.1</ele>
        <time>2019-09-01T20:01:56.611Z</time>
      </trkpt>
      <trkpt lat="45.70892" lon="4.58324">
        <ele>709.9</ele>
        <time>2019-09-01T20:01:57.154Z</time>
      </trkpt>
      <trkpt lat="45.70903" lon="4.58272">
        <ele>709.6</ele>
        <time>2019-09-01T20:01:57.919Z</time>
      </trkpt>
      <trkpt lat="45.70897" lon="4.58258">
        <ele>708.9</ele>
        <time>2019-09-01T20:01:58.142Z</time>
      </trkpt>
      <trkpt lat="45.70886" lon="4.58251">
        <ele>708</ele>
        <time>2019-09-01T20:01:58.399Z</time>
      </trkpt>
      <trkpt lat="45.70788" lon="4.58207">
        <ele>708.3</ele>
        <time>2019-09-01T20:02:00.457Z</time>
      </trkpt>
      <trkpt lat="45.70782" lon="4.5819">
        <ele>709.7</ele>
        <time>2019-09-01T20:02:00.723Z</time>
      </trkpt>
      <trkpt lat="45.70805" lon="4.58108">
        <ele>709.3</ele>
        <time>2019-09-01T20:02:01.955Z</time>
      </trkpt>
      <trkpt lat="45.70817" lon="4.58056">
        <ele>710.4</ele>
        <time>2019-09-01T20:02:02.719Z</time>
      </trkpt>
      <trkpt lat="45.70837" lon="4.57995">
        <ele>708.8</ele>
        <time>2019-09-01T20:02:03.663Z</time>
      </trkpt>
      <trkpt lat="45.70846" lon="4.57971">
        <ele>708.7</ele>
        <time>2019-09-01T20:02:04.043Z</time>
      </trkpt>
      <trkpt lat="45.70856" lon="4.5796">
        <ele>709.1</ele>
        <time>2019-09-01T20:02:04.291Z</time>
      </trkpt>
      <trkpt lat="45.70923" lon="4.57916">
        <ele>709.7</ele>
        <time>2019-09-01T20:02:05.781Z</time>
      </trkpt>
      <trkpt lat="45.70964" lon="4.57899">
        <ele>709.3</ele>
        <time>2019-09-01T20:02:06.633Z</time>
      </trkpt>
      <trkpt lat="45.70979" lon="4.57888">
        <ele>709.9</ele>
        <time>2019-09-01T20:02:06.957Z</time>
      </trkpt>
      <trkpt lat="45.70997" lon="4.57877">
        <ele>710.9</ele>
        <time>2019-09-01T20:02:07.361Z</time>
      </trkpt>
      <trkpt lat="45.71058" lon="4.57822">
        <ele>712.1</ele>
        <time>2019-09-01T20:02:08.810Z</time>
      </trkpt>
      <trkpt lat="45.71154" lon="4.57726">
        <ele>714.9</ele>
        <time>2019-09-01T20:02:11.151Z</time>
      </trkpt>
      <trkpt lat="45.71197" lon="4.57686">
        <ele>716.7</ele>
        <time>2019-09-01T20:02:12.184Z</time>
      </trkpt>
      <trkpt lat="45.71197" lon="4.57683">
        <ele>716.8</ele>
        <time>2019-09-01T20:02:12.216Z</time>
      </trkpt>
      <trkpt lat="45.71178" lon="4.57619">
        <ele>722.2</ele>
        <time>2019-09-01T20:02:13.196Z</time>
      </trkpt>
      <trkpt lat="45.71149" lon="4.57574">
        <ele>728.7</ele>
        <time>2019-09-01T20:02:14.057Z</time>
      </trkpt>
      <trkpt lat="45.71141" lon="4.57567">
        <ele>730.2</ele>
        <time>2019-09-01T20:02:14.233Z</time>
      </trkpt>
      <trkpt lat="45.71135" lon="4.57568">
        <ele>731.6</ele>
        <time>2019-09-01T20:02:14.371Z</time>
      </trkpt>
      <trkpt lat="45.71121" lon="4.57588">
        <ele>734.4</ele>
        <time>2019-09-01T20:02:14.767Z</time>
      </trkpt>
      <trkpt lat="45.71117" lon="4.5759">
        <ele>735</ele>
        <time>2019-09-01T20:02:14.841Z</time>
      </trkpt>
      <trkpt lat="45.71113" lon="4.5759">
        <ele>736.2</ele>
        <time>2019-09-01T20:02:14.935Z</time>
      </trkpt>
      <trkpt lat="45.71109" lon="4.57587">
        <ele>737.2</ele>
        <time>2019-09-01T20:02:15.011Z</time>
      </trkpt>
      <trkpt lat="45.71104" lon="4.5757">
        <ele>738.9</ele>
        <time>2019-09-01T20:02:15.270Z</time>
      </trkpt>
      <trkpt lat="45.71093" lon="4.57549">
        <ele>742.4</ele>
        <time>2019-09-01T20:02:15.636Z</time>
      </trkpt>
      <trkpt lat="45.71092" lon="4.57543">
        <ele>743.1</ele>
        <time>2019-09-01T20:02:15.730Z</time>
      </trkpt>
      <trkpt lat="45.71094" lon="4.57536">
        <ele>743.1</ele>
        <time>2019-09-01T20:02:15.835Z</time>
      </trkpt>
      <trkpt lat="45.71108" lon="4.57491">
        <ele>745.5</ele>
        <time>2019-09-01T20:02:16.517Z</time>
      </trkpt>
      <trkpt lat="45.71115" lon="4.57452">
        <ele>748.4</ele>
        <time>2019-09-01T20:02:17.082Z</time>
      </trkpt>
      <trkpt lat="45.71112" lon="4.57432">
        <ele>750.2</ele>
        <time>2019-09-01T20:02:17.369Z</time>
      </trkpt>
      <trkpt lat="45.71104" lon="4.57407">
        <ele>752.5</ele>
        <time>2019-09-01T20:02:17.745Z</time>
      </trkpt>
      <trkpt lat="45.71097" lon="4.57368">
        <ele>754.6</ele>
        <time>2019-09-01T20:02:18.312Z</time>
      </trkpt>
      <trkpt lat="45.71078" lon="4.57319">
        <ele>756.4</ele>
        <time>2019-09-01T20:02:19.096Z</time>
      </trkpt>
      <trkpt lat="45.7105" lon="4.57262">
        <ele>760.5</ele>
        <time>2019-09-01T20:02:20.073Z</time>
      </trkpt>
      <trkpt lat="45.71044" lon="4.57242">
        <ele>761.9</ele>
        <time>2019-09-01T20:02:20.371Z</time>
      </trkpt>
      <trkpt lat="45.71031" lon="4.57218">
        <ele>764</ele>
        <time>2019-09-01T20:02:20.805Z</time>
      </trkpt>
      <trkpt lat="45.71026" lon="4.57211">
        <ele>765.2</ele>
        <time>2019-09-01T20:02:20.944Z</time>
      </trkpt>
      <trkpt lat="45.71023" lon="4.57202">
        <ele>765.7</ele>
        <time>2019-09-01T20:02:21.080Z</time>
      </trkpt>
      <trkpt lat="45.71012" lon="4.57147">
        <ele>763.5</ele>
        <time>2019-09-01T20:02:21.881Z</time>
      </trkpt>
      <trkpt lat="45.71006" lon="4.57127">
        <ele>764.1</ele>
        <time>2019-09-01T20:02:22.193Z</time>
      </trkpt>
      <trkpt lat="45.70992" lon="4.57094">
        <ele>766.8</ele>
        <time>2019-09-01T20:02:22.726Z</time>
      </trkpt>
      <trkpt lat="45.70975" lon="4.5704">
        <ele>770.8</ele>
        <time>2019-09-01T20:02:23.549Z</time>
      </trkpt>
      <trkpt lat="45.70966" lon="4.57022">
        <ele>772.7</ele>
        <time>2019-09-01T20:02:23.859Z</time>
      </trkpt>
      <trkpt lat="45.70937" lon="4.56974">
        <ele>777</ele>
        <time>2019-09-01T20:02:24.763Z</time>
      </trkpt>
      <trkpt lat="45.70931" lon="4.56961">
        <ele>777.9</ele>
        <time>2019-09-01T20:02:24.980Z</time>
      </trkpt>
      <trkpt lat="45.7089" lon="4.56911">
        <ele>783.8</ele>
        <time>2019-09-01T20:02:26.045Z</time>
      </trkpt>
      <trkpt lat="45.70886" lon="4.56896">
        <ele>783</ele>
        <time>2019-09-01T20:02:26.284Z</time>
      </trkpt>
      <trkpt lat="45.70865" lon="4.56857">
        <ele>783.1</ele>
        <time>2019-09-01T20:02:26.964Z</time>
      </trkpt>
      <trkpt lat="45.70854" lon="4.56827">
        <ele>785.2</ele>
        <time>2019-09-01T20:02:27.430Z</time>
      </trkpt>
      <trkpt lat="45.70835" lon="4.56783">
        <ele>788.2</ele>
        <time>2019-09-01T20:02:28.172Z</time>
      </trkpt>
      <trkpt lat="45.7082" lon="4.56742">
        <ele>791.1</ele>
        <time>2019-09-01T20:02:28.822Z</time>
      </trkpt>
      <trkpt lat="45.70807" lon="4.56701">
        <ele>794.5</ele>
        <time>2019-09-01T20:02:29.440Z</time>
      </trkpt>
      <trkpt lat="45.70803" lon="4.56692">
        <ele>795.6</ele>
        <time>2019-09-01T20:02:29.586Z</time>
      </trkpt>
      <trkpt lat="45.7079" lon="4.56675">
        <ele>799.2</ele>
        <time>2019-09-01T20:02:29.940Z</time>
      </trkpt>
      <trkpt lat="45.70784" lon="4.5666">
        <ele>801</ele>
        <time>2019-09-01T20:02:30.184Z</time>
      </trkpt>
      <trkpt lat="45.70756" lon="4.56586">
        <ele>811.5</ele>
        <time>2019-09-01T20:02:31.365Z</time>
      </trkpt>
      <trkpt lat="45.70743" lon="4.56544">
        <ele>817.3</ele>
        <time>2019-09-01T20:02:32.005Z</time>
      </trkpt>
      <trkpt lat="45.70735" lon="4.56527">
        <ele>819.2</ele>
        <time>2019-09-01T20:02:32.299Z</time>
      </trkpt>
      <trkpt lat="45.70729" lon="4.56522">
        <ele>820.3</ele>
        <time>2019-09-01T20:02:32.442Z</time>
      </trkpt>
      <trkpt lat="45.7072" lon="4.56522">
        <ele>822.4</ele>
        <time>2019-09-01T20:02:32.626Z</time>
      </trkpt>
      <trkpt lat="45.70714" lon="4.56527">
        <ele>824</ele>
        <time>2019-09-01T20:02:32.759Z</time>
      </trkpt>
      <trkpt lat="45.70708" lon="4.56546">
        <ele>826.5</ele>
        <time>2019-09-01T20:02:33.043Z</time>
      </trkpt>
      <trkpt lat="45.70694" lon="4.56558">
        <ele>830.4</ele>
        <time>2019-09-01T20:02:33.381Z</time>
      </trkpt>
      <trkpt lat="45.70688" lon="4.56559">
        <ele>831.8</ele>
        <time>2019-09-01T20:02:33.495Z</time>
      </trkpt>
      <trkpt lat="45.70672" lon="4.56569">
        <ele>836.2</ele>
        <time>2019-09-01T20:02:33.844Z</time>
      </trkpt>
      <trkpt lat="45.70665" lon="4.5657">
        <ele>837.8</ele>
        <time>2019-09-01T20:02:33.979Z</time>
      </trkpt>
      <trkpt lat="45.7065" lon="4.56576">
        <ele>841.2</ele>
        <time>2019-09-01T20:02:34.305Z</time>
      </trkpt>
      <trkpt lat="45.70636" lon="4.56585">
        <ele>844.6</ele>
        <time>2019-09-01T20:02:34.610Z</time>
      </trkpt>
      <trkpt lat="45.70617" lon="4.56601">
        <ele>849.2</ele>
        <time>2019-09-01T20:02:35.061Z</time>
      </trkpt>
      <trkpt lat="45.70601" lon="4.56611">
        <ele>852.7</ele>
        <time>2019-09-01T20:02:35.393Z</time>
      </trkpt>
      <trkpt lat="45.70571" lon="4.56623">
        <ele>859.9</ele>
        <time>2019-09-01T20:02:36.018Z</time>
      </trkpt>
      <trkpt lat="45.70567" lon="4.56626">
        <ele>861.2</ele>
        <time>2019-09-01T20:02:36.122Z</time>
      </trkpt>
      <trkpt lat="45.70554" lon="4.56631">
        <ele>864.3</ele>
        <time>2019-09-01T20:02:36.381Z</time>
      </trkpt>
      <trkpt lat="45.70512" lon="4.56691">
        <ele>875.8</ele>
        <time>2019-09-01T20:02:37.575Z</time>
      </trkpt>
      <trkpt lat="45.70491" lon="4.56713">
        <ele>878.5</ele>
        <time>2019-09-01T20:02:38.091Z</time>
      </trkpt>
      <trkpt lat="45.70485" lon="4.56715">
        <ele>879.2</ele>
        <time>2019-09-01T20:02:38.225Z</time>
      </trkpt>
      <trkpt lat="45.70483" lon="4.56714">
        <ele>879.4</ele>
        <time>2019-09-01T20:02:38.268Z</time>
      </trkpt>
      <trkpt lat="45.70472" lon="4.56698">
        <ele>879.3</ele>
        <time>2019-09-01T20:02:38.576Z</time>
      </trkpt>
      <trkpt lat="45.70457" lon="4.56669">
        <ele>879.4</ele>
        <time>2019-09-01T20:02:39.087Z</time>
      </trkpt>
      <trkpt lat="45.7044" lon="4.56629">
        <ele>880.8</ele>
        <time>2019-09-01T20:02:39.739Z</time>
      </trkpt>
      <trkpt lat="45.70432" lon="4.56602">
        <ele>881.6</ele>
        <time>2019-09-01T20:02:40.147Z</time>
      </trkpt>
      <trkpt lat="45.70425" lon="4.56441">
        <ele>877.1</ele>
        <time>2019-09-01T20:02:42.402Z</time>
      </trkpt>
      <trkpt lat="45.70419" lon="4.56411">
        <ele>876.3</ele>
        <time>2019-09-01T20:02:42.846Z</time>
      </trkpt>
      <trkpt lat="45.70417" lon="4.56378">
        <ele>875.2</ele>
        <time>2019-09-01T20:02:43.308Z</time>
      </trkpt>
      <trkpt lat="45.70417" lon="4.56324">
        <ele>872.6</ele>
        <time>2019-09-01T20:02:44.064Z</time>
      </trkpt>
      <trkpt lat="45.70423" lon="4.56265">
        <ele>869.4</ele>
        <time>2019-09-01T20:02:44.894Z</time>
      </trkpt>
      <trkpt lat="45.70421" lon="4.56262">
        <ele>869.1</ele>
        <time>2019-09-01T20:02:44.952Z</time>
      </trkpt>
      <trkpt lat="45.70411" lon="4.56264">
        <ele>868.3</ele>
        <time>2019-09-01T20:02:45.147Z</time>
      </trkpt>
      <trkpt lat="45.70378" lon="4.56289">
        <ele>866.4</ele>
        <time>2019-09-01T20:02:45.911Z</time>
      </trkpt>
      <trkpt lat="45.70359" lon="4.5631">
        <ele>866.4</ele>
        <time>2019-09-01T20:02:46.380Z</time>
      </trkpt>
      <trkpt lat="45.70339" lon="4.56325">
        <ele>866.9</ele>
        <time>2019-09-01T20:02:46.838Z</time>
      </trkpt>
      <trkpt lat="45.70322" lon="4.56335">
        <ele>867</ele>
        <time>2019-09-01T20:02:47.211Z</time>
      </trkpt>
      <trkpt lat="45.70291" lon="4.56349">
        <ele>866.5</ele>
        <time>2019-09-01T20:02:47.860Z</time>
      </trkpt>
      <trkpt lat="45.70264" lon="4.56356">
        <ele>866.1</ele>
        <time>2019-09-01T20:02:48.397Z</time>
      </trkpt>
      <trkpt lat="45.70215" lon="4.56359">
        <ele>864.4</ele>
        <time>2019-09-01T20:02:49.388Z</time>
      </trkpt>
      <trkpt lat="45.70205" lon="4.56365">
        <ele>865</ele>
        <time>2019-09-01T20:02:49.602Z</time>
      </trkpt>
      <trkpt lat="45.70178" lon="4.56386">
        <ele>867.5</ele>
        <time>2019-09-01T20:02:50.212Z</time>
      </trkpt>
      <trkpt lat="45.70157" lon="4.56434">
        <ele>871.9</ele>
        <time>2019-09-01T20:02:51.004Z</time>
      </trkpt>
      <trkpt lat="45.70153" lon="4.56435">
        <ele>872.2</ele>
        <time>2019-09-01T20:02:51.102Z</time>
      </trkpt>
      <trkpt lat="45.70142" lon="4.56431">
        <ele>872.4</ele>
        <time>2019-09-01T20:02:51.319Z</time>
      </trkpt>
      <trkpt lat="45.70131" lon="4.5643">
        <ele>873.5</ele>
        <time>2019-09-01T20:02:51.542Z</time>
      </trkpt>
      <trkpt lat="45.7012" lon="4.56431">
        <ele>874.9</ele>
        <time>2019-09-01T20:02:51.759Z</time>
      </trkpt>
      <trkpt lat="45.70109" lon="4.56438">
        <ele>876.6</ele>
        <time>2019-09-01T20:02:51.998Z</time>
      </trkpt>
      <trkpt lat="45.701" lon="4.56441">
        <ele>877.2</ele>
        <time>2019-09-01T20:02:52.182Z</time>
      </trkpt>
      <trkpt lat="45.70087" lon="4.56452">
        <ele>877.8</ele>
        <time>2019-09-01T20:02:52.493Z</time>
      </trkpt>
      <trkpt lat="45.70074" lon="4.56457">
        <ele>878.1</ele>
        <time>2019-09-01T20:02:52.757Z</time>
      </trkpt>
      <trkpt lat="45.70058" lon="4.56466">
        <ele>878.7</ele>
        <time>2019-09-01T20:02:53.096Z</time>
      </trkpt>
      <trkpt lat="45.70019" lon="4.56477">
        <ele>877.7</ele>
        <time>2019-09-01T20:02:53.896Z</time>
      </trkpt>
      <trkpt lat="45.70006" lon="4.56474">
        <ele>875.8</ele>
        <time>2019-09-01T20:02:54.174Z</time>
      </trkpt>
      <trkpt lat="45.69967" lon="4.56459">
        <ele>870.3</ele>
        <time>2019-09-01T20:02:54.979Z</time>
      </trkpt>
      <trkpt lat="45.69949" lon="4.56457">
        <ele>869</ele>
        <time>2019-09-01T20:02:55.334Z</time>
      </trkpt>
      <trkpt lat="45.69931" lon="4.56459">
        <ele>867.8</ele>
        <time>2019-09-01T20:02:55.704Z</time>
      </trkpt>
      <trkpt lat="45.69875" lon="4.56469">
        <ele>865.8</ele>
        <time>2019-09-01T20:02:56.836Z</time>
      </trkpt>
      <trkpt lat="45.69833" lon="4.56468">
        <ele>864.2</ele>
        <time>2019-09-01T20:02:57.672Z</time>
      </trkpt>
      <trkpt lat="45.69799" lon="4.56461">
        <ele>865.1</ele>
        <time>2019-09-01T20:02:58.362Z</time>
      </trkpt>
      <trkpt lat="45.69774" lon="4.56459">
        <ele>866.5</ele>
        <time>2019-09-01T20:02:58.865Z</time>
      </trkpt>
      <trkpt lat="45.69728" lon="4.5644">
        <ele>866.8</ele>
        <time>2019-09-01T20:02:59.812Z</time>
      </trkpt>
      <trkpt lat="45.69705" lon="4.56434">
        <ele>866.4</ele>
        <time>2019-09-01T20:03:00.286Z</time>
      </trkpt>
      <trkpt lat="45.69688" lon="4.56433">
        <ele>866.5</ele>
        <time>2019-09-01T20:03:00.627Z</time>
      </trkpt>
      <trkpt lat="45.69661" lon="4.56432">
        <ele>867.2</ele>
        <time>2019-09-01T20:03:01.160Z</time>
      </trkpt>
      <trkpt lat="45.69626" lon="4.56438">
        <ele>867.9</ele>
        <time>2019-09-01T20:03:01.884Z</time>
      </trkpt>
      <trkpt lat="45.69585" lon="4.56441">
        <ele>864.9</ele>
        <time>2019-09-01T20:03:02.701Z</time>
      </trkpt>
      <trkpt lat="45.69563" lon="4.56446">
        <ele>862.3</ele>
        <time>2019-09-01T20:03:03.151Z</time>
      </trkpt>
      <trkpt lat="45.69534" lon="4.56461">
        <ele>859.3</ele>
        <time>2019-09-01T20:03:03.760Z</time>
      </trkpt>
      <trkpt lat="45.69513" lon="4.5647">
        <ele>857.2</ele>
        <time>2019-09-01T20:03:04.209Z</time>
      </trkpt>
      <trkpt lat="45.69506" lon="4.56476">
        <ele>856.8</ele>
        <time>2019-09-01T20:03:04.360Z</time>
      </trkpt>
      <trkpt lat="45.69483" lon="4.56489">
        <ele>854.7</ele>
        <time>2019-09-01T20:03:04.863Z</time>
      </trkpt>
      <trkpt lat="45.6948" lon="4.56494">
        <ele>854.7</ele>
        <time>2019-09-01T20:03:04.957Z</time>
      </trkpt>
      <trkpt lat="45.6948" lon="4.56511">
        <ele>854.6</ele>
        <time>2019-09-01T20:03:05.191Z</time>
      </trkpt>
      <trkpt lat="45.69491" lon="4.56555">
        <ele>855.3</ele>
        <time>2019-09-01T20:03:05.840Z</time>
      </trkpt>
      <trkpt lat="45.69506" lon="4.56592">
        <ele>858.5</ele>
        <time>2019-09-01T20:03:06.439Z</time>
      </trkpt>
      <trkpt lat="45.69518" lon="4.56611">
        <ele>861.4</ele>
        <time>2019-09-01T20:03:06.789Z</time>
      </trkpt>
      <trkpt lat="45.69547" lon="4.56669">
        <ele>869.1</ele>
        <time>2019-09-01T20:03:07.800Z</time>
      </trkpt>
      <trkpt lat="45.69582" lon="4.56761">
        <ele>876.1</ele>
        <time>2019-09-01T20:03:09.263Z</time>
      </trkpt>
      <trkpt lat="45.69609" lon="4.56846">
        <ele>876.7</ele>
        <time>2019-09-01T20:03:10.564Z</time>
      </trkpt>
      <trkpt lat="45.69624" lon="4.56875">
        <ele>876.6</ele>
        <time>2019-09-01T20:03:11.073Z</time>
      </trkpt>
      <trkpt lat="45.69648" lon="4.56936">
        <ele>872.5</ele>
        <time>2019-09-01T20:03:12.056Z</time>
      </trkpt>
      <trkpt lat="45.69661" lon="4.56965">
        <ele>870.4</ele>
        <time>2019-09-01T20:03:12.539Z</time>
      </trkpt>
      <trkpt lat="45.69667" lon="4.56966">
        <ele>870.7</ele>
        <time>2019-09-01T20:03:12.652Z</time>
      </trkpt>
      <trkpt lat="45.69678" lon="4.56959">
        <ele>873.1</ele>
        <time>2019-09-01T20:03:12.894Z</time>
      </trkpt>
      <trkpt lat="45.69686" lon="4.56956">
        <ele>874.6</ele>
        <time>2019-09-01T20:03:13.065Z</time>
      </trkpt>
      <trkpt lat="45.69696" lon="4.5695">
        <ele>876.6</ele>
        <time>2019-09-01T20:03:13.287Z</time>
      </trkpt>
      <trkpt lat="45.69703" lon="4.56949">
        <ele>877.4</ele>
        <time>2019-09-01T20:03:13.420Z</time>
      </trkpt>
      <trkpt lat="45.69712" lon="4.56945">
        <ele>878.8</ele>
        <time>2019-09-01T20:03:13.608Z</time>
      </trkpt>
      <trkpt lat="45.69722" lon="4.56926">
        <ele>882.7</ele>
        <time>2019-09-01T20:03:13.952Z</time>
      </trkpt>
      <trkpt lat="45.69743" lon="4.569">
        <ele>884.5</ele>
        <time>2019-09-01T20:03:14.502Z</time>
      </trkpt>
      <trkpt lat="45.69767" lon="4.56853">
        <ele>888.3</ele>
        <time>2019-09-01T20:03:15.314Z</time>
      </trkpt>
      <trkpt lat="45.69796" lon="4.56825">
        <ele>889.5</ele>
        <time>2019-09-01T20:03:16.012Z</time>
      </trkpt>
      <trkpt lat="45.69825" lon="4.56787">
        <ele>891.1</ele>
        <time>2019-09-01T20:03:16.801Z</time>
      </trkpt>
      <trkpt lat="45.69839" lon="4.56772">
        <ele>891.2</ele>
        <time>2019-09-01T20:03:17.159Z</time>
      </trkpt>
      <trkpt lat="45.69858" lon="4.5676">
        <ele>890.9</ele>
        <time>2019-09-01T20:03:17.571Z</time>
      </trkpt>
      <trkpt lat="45.69869" lon="4.5675">
        <ele>890.9</ele>
        <time>2019-09-01T20:03:17.838Z</time>
      </trkpt>
      <trkpt lat="45.69877" lon="4.56739">
        <ele>890.8</ele>
        <time>2019-09-01T20:03:18.059Z</time>
      </trkpt>
      <trkpt lat="45.69905" lon="4.56684">
        <ele>888.9</ele>
        <time>2019-09-01T20:03:19.005Z</time>
      </trkpt>
      <trkpt lat="45.6996" lon="4.5659">
        <ele>882.9</ele>
        <time>2019-09-01T20:03:20.713Z</time>
      </trkpt>
      <trkpt lat="45.69984" lon="4.5656">
        <ele>878.8</ele>
        <time>2019-09-01T20:03:21.365Z</time>
      </trkpt>
      <trkpt lat="45.70009" lon="4.56517">
        <ele>876.5</ele>
        <time>2019-09-01T20:03:22.148Z</time>
      </trkpt>
      <trkpt lat="45.70016" lon="4.56517">
        <ele>876.4</ele>
        <time>2019-09-01T20:03:22.274Z</time>
      </trkpt>
      <trkpt lat="45.70034" lon="4.56542">
        <ele>873.7</ele>
        <time>2019-09-01T20:03:22.783Z</time>
      </trkpt>
      <trkpt lat="45.7005" lon="4.56558">
        <ele>871</ele>
        <time>2019-09-01T20:03:23.181Z</time>
      </trkpt>
      <trkpt lat="45.70083" lon="4.5657">
        <ele>865</ele>
        <time>2019-09-01T20:03:23.855Z</time>
      </trkpt>
      <trkpt lat="45.70063" lon="4.56607">
        <ele>859.3</ele>
        <time>2019-09-01T20:03:24.501Z</time>
      </trkpt>
      <trkpt lat="45.70033" lon="4.56639">
        <ele>856.5</ele>
        <time>2019-09-01T20:03:25.251Z</time>
      </trkpt>
      <trkpt lat="45.70023" lon="4.56652">
        <ele>855.6</ele>
        <time>2019-09-01T20:03:25.523Z</time>
      </trkpt>
      <trkpt lat="45.70016" lon="4.56669">
        <ele>853.1</ele>
        <time>2019-09-01T20:03:25.807Z</time>
      </trkpt>
      <trkpt lat="45.69993" lon="4.5676">
        <ele>838.8</ele>
        <time>2019-09-01T20:03:27.151Z</time>
      </trkpt>
      <trkpt lat="45.69984" lon="4.56776">
        <ele>838.7</ele>
        <time>2019-09-01T20:03:27.439Z</time>
      </trkpt>
      <trkpt lat="45.69979" lon="4.56783">
        <ele>839</ele>
        <time>2019-09-01T20:03:27.579Z</time>
      </trkpt>
      <trkpt lat="45.69971" lon="4.56791">
        <ele>840.4</ele>
        <time>2019-09-01T20:03:27.781Z</time>
      </trkpt>
      <trkpt lat="45.69965" lon="4.56799">
        <ele>840.7</ele>
        <time>2019-09-01T20:03:27.939Z</time>
      </trkpt>
      <trkpt lat="45.6993" lon="4.56875">
        <ele>833.5</ele>
        <time>2019-09-01T20:03:29.221Z</time>
      </trkpt>
      <trkpt lat="45.69941" lon="4.56873">
        <ele>831</ele>
        <time>2019-09-01T20:03:29.437Z</time>
      </trkpt>
      <trkpt lat="45.6997" lon="4.56857">
        <ele>825</ele>
        <time>2019-09-01T20:03:30.053Z</time>
      </trkpt>
      <trkpt lat="45.69977" lon="4.56848">
        <ele>824.8</ele>
        <time>2019-09-01T20:03:30.244Z</time>
      </trkpt>
      <trkpt lat="45.69988" lon="4.56826">
        <ele>825.8</ele>
        <time>2019-09-01T20:03:30.627Z</time>
      </trkpt>
      <trkpt lat="45.70005" lon="4.56804">
        <ele>824.6</ele>
        <time>2019-09-01T20:03:31.090Z</time>
      </trkpt>
      <trkpt lat="45.70011" lon="4.56803">
        <ele>822.4</ele>
        <time>2019-09-01T20:03:31.218Z</time>
      </trkpt>
      <trkpt lat="45.70016" lon="4.56844">
        <ele>812.4</ele>
        <time>2019-09-01T20:03:31.799Z</time>
      </trkpt>
      <trkpt lat="45.70018" lon="4.569">
        <ele>799.4</ele>
        <time>2019-09-01T20:03:32.586Z</time>
      </trkpt>
      <trkpt lat="45.69999" lon="4.56946">
        <ele>793.8</ele>
        <time>2019-09-01T20:03:33.333Z</time>
      </trkpt>
      <trkpt lat="45.69992" lon="4.56959">
        <ele>792</ele>
        <time>2019-09-01T20:03:33.561Z</time>
      </trkpt>
      <trkpt lat="45.69995" lon="4.56961">
        <ele>790.5</ele>
        <time>2019-09-01T20:03:33.631Z</time>
      </trkpt>
      <trkpt lat="45.70003" lon="4.56962">
        <ele>788.1</ele>
        <time>2019-09-01T20:03:33.804Z</time>
      </trkpt>
      <trkpt lat="45.70012" lon="4.56961">
        <ele>785.6</ele>
        <time>2019-09-01T20:03:33.987Z</time>
      </trkpt>
      <trkpt lat="45.70023" lon="4.56956">
        <ele>783.5</ele>
        <time>2019-09-01T20:03:34.217Z</time>
      </trkpt>
      <trkpt lat="45.70038" lon="4.56944">
        <ele>781.7</ele>
        <time>2019-09-01T20:03:34.562Z</time>
      </trkpt>
      <trkpt lat="45.70065" lon="4.56917">
        <ele>779.6</ele>
        <time>2019-09-01T20:03:35.219Z</time>
      </trkpt>
      <trkpt lat="45.70086" lon="4.56874">
        <ele>780.4</ele>
        <time>2019-09-01T20:03:35.943Z</time>
      </trkpt>
      <trkpt lat="45.70113" lon="4.56805">
        <ele>783.5</ele>
        <time>2019-09-01T20:03:37.053Z</time>
      </trkpt>
      <trkpt lat="45.70116" lon="4.56803">
        <ele>783</ele>
        <time>2019-09-01T20:03:37.123Z</time>
      </trkpt>
      <trkpt lat="45.70125" lon="4.56806">
        <ele>780</ele>
        <time>2019-09-01T20:03:37.302Z</time>
      </trkpt>
      <trkpt lat="45.70159" lon="4.5683">
        <ele>773.1</ele>
        <time>2019-09-01T20:03:38.073Z</time>
      </trkpt>
      <trkpt lat="45.7019" lon="4.56869">
        <ele>773</ele>
        <time>2019-09-01T20:03:38.892Z</time>
      </trkpt>
      <trkpt lat="45.70194" lon="4.56877">
        <ele>773</ele>
        <time>2019-09-01T20:03:39.029Z</time>
      </trkpt>
      <trkpt lat="45.70203" lon="4.56901">
        <ele>774</ele>
        <time>2019-09-01T20:03:39.419Z</time>
      </trkpt>
      <trkpt lat="45.70221" lon="4.56972">
        <ele>773.2</ele>
        <time>2019-09-01T20:03:40.463Z</time>
      </trkpt>
      <trkpt lat="45.70235" lon="4.57018">
        <ele>772</ele>
        <time>2019-09-01T20:03:41.167Z</time>
      </trkpt>
      <trkpt lat="45.70242" lon="4.57049">
        <ele>769.9</ele>
        <time>2019-09-01T20:03:41.626Z</time>
      </trkpt>
      <trkpt lat="45.70246" lon="4.57114">
        <ele>765.7</ele>
        <time>2019-09-01T20:03:42.544Z</time>
      </trkpt>
      <trkpt lat="45.70247" lon="4.5717">
        <ele>762.5</ele>
        <time>2019-09-01T20:03:43.328Z</time>
      </trkpt>
      <trkpt lat="45.70242" lon="4.57227">
        <ele>758.6</ele>
        <time>2019-09-01T20:03:44.130Z</time>
      </trkpt>
      <trkpt lat="45.70243" lon="4.57253">
        <ele>757.9</ele>
        <time>2019-09-01T20:03:44.496Z</time>
      </trkpt>
      <trkpt lat="45.70256" lon="4.57321">
        <ele>761.8</ele>
        <time>2019-09-01T20:03:45.483Z</time>
      </trkpt>
      <trkpt lat="45.70265" lon="4.57392">
        <ele>764.4</ele>
        <time>2019-09-01T20:03:46.493Z</time>
      </trkpt>
      <trkpt lat="45.70264" lon="4.57402">
        <ele>763.7</ele>
        <time>2019-09-01T20:03:46.626Z</time>
      </trkpt>
      <trkpt lat="45.7027" lon="4.57436">
        <ele>766.5</ele>
        <time>2019-09-01T20:03:47.114Z</time>
      </trkpt>
      <trkpt lat="45.70272" lon="4.57492">
        <ele>767.7</ele>
        <time>2019-09-01T20:03:47.911Z</time>
      </trkpt>
      <trkpt lat="45.70285" lon="4.57541">
        <ele>769.2</ele>
        <time>2019-09-01T20:03:48.631Z</time>
      </trkpt>
      <trkpt lat="45.70295" lon="4.5756">
        <ele>769.6</ele>
        <time>2019-09-01T20:03:48.971Z</time>
      </trkpt>
      <trkpt lat="45.70344" lon="4.57637">
        <ele>771.3</ele>
        <time>2019-09-01T20:03:50.433Z</time>
      </trkpt>
      <trkpt lat="45.70353" lon="4.57655">
        <ele>771.9</ele>
        <time>2019-09-01T20:03:50.744Z</time>
      </trkpt>
      <trkpt lat="45.7038" lon="4.57689">
        <ele>775.3</ele>
        <time>2019-09-01T20:03:51.457Z</time>
      </trkpt>
      <trkpt lat="45.70388" lon="4.57695">
        <ele>776.9</ele>
        <time>2019-09-01T20:03:51.649Z</time>
      </trkpt>
      <trkpt lat="45.7041" lon="4.57702">
        <ele>778.5</ele>
        <time>2019-09-01T20:03:52.102Z</time>
      </trkpt>
      <trkpt lat="45.70428" lon="4.57703">
        <ele>778.3</ele>
        <time>2019-09-01T20:03:52.449Z</time>
      </trkpt>
      <trkpt lat="45.70459" lon="4.57708">
        <ele>775.2</ele>
        <time>2019-09-01T20:03:53.077Z</time>
      </trkpt>
      <trkpt lat="45.7048" lon="4.57722">
        <ele>771.9</ele>
        <time>2019-09-01T20:03:53.538Z</time>
      </trkpt>
      <trkpt lat="45.70497" lon="4.57752">
        <ele>769.8</ele>
        <time>2019-09-01T20:03:54.080Z</time>
      </trkpt>
      <trkpt lat="45.70526" lon="4.57812">
        <ele>765.2</ele>
        <time>2019-09-01T20:03:55.097Z</time>
      </trkpt>
      <trkpt lat="45.70593" lon="4.57926">
        <ele>755</ele>
        <time>2019-09-01T20:03:57.190Z</time>
      </trkpt>
      <trkpt lat="45.70623" lon="4.57986">
        <ele>749.8</ele>
        <time>2019-09-01T20:03:58.216Z</time>
      </trkpt>
      <trkpt lat="45.70644" lon="4.58035">
        <ele>745.3</ele>
        <time>2019-09-01T20:03:59.021Z</time>
      </trkpt>
      <trkpt lat="45.70667" lon="4.58107">
        <ele>739.2</ele>
        <time>2019-09-01T20:04:00.141Z</time>
      </trkpt>
      <trkpt lat="45.70682" lon="4.58164">
        <ele>737.2</ele>
        <time>2019-09-01T20:04:00.982Z</time>
      </trkpt>
      <trkpt lat="45.70697" lon="4.58236">
        <ele>729.8</ele>
        <time>2019-09-01T20:04:02.035Z</time>
      </trkpt>
      <trkpt lat="45.70699" lon="4.58272">
        <ele>727.7</ele>
        <time>2019-09-01T20:04:02.543Z</time>
      </trkpt>
      <trkpt lat="45.70695" lon="4.58325">
        <ele>725.6</ele>
        <time>2019-09-01T20:04:03.287Z</time>
      </trkpt>
      <trkpt lat="45.70674" lon="4.58465">
        <ele>722.4</ele>
        <time>2019-09-01T20:04:05.285Z</time>
      </trkpt>
      <trkpt lat="45.70671" lon="4.5848">
        <ele>722.6</ele>
        <time>2019-09-01T20:04:05.506Z</time>
      </trkpt>
      <trkpt lat="45.70671" lon="4.58489">
        <ele>722.5</ele>
        <time>2019-09-01T20:04:05.641Z</time>
      </trkpt>
      <trkpt lat="45.7068" lon="4.58523">
        <ele>722</ele>
        <time>2019-09-01T20:04:06.134Z</time>
      </trkpt>
      <trkpt lat="45.70684" lon="4.58553">
        <ele>721.5</ele>
        <time>2019-09-01T20:04:06.571Z</time>
      </trkpt>
      <trkpt lat="45.7069" lon="4.58647">
        <ele>719.6</ele>
        <time>2019-09-01T20:04:07.897Z</time>
      </trkpt>
      <trkpt lat="45.70686" lon="4.58658">
        <ele>720.4</ele>
        <time>2019-09-01T20:04:08.064Z</time>
      </trkpt>
      <trkpt lat="45.70673" lon="4.58663">
        <ele>722.6</ele>
        <time>2019-09-01T20:04:08.318Z</time>
      </trkpt>
      <trkpt lat="45.70667" lon="4.58669">
        <ele>724.1</ele>
        <time>2019-09-01T20:04:08.476Z</time>
      </trkpt>
      <trkpt lat="45.70665" lon="4.58674">
        <ele>724.5</ele>
        <time>2019-09-01T20:04:08.553Z</time>
      </trkpt>
      <trkpt lat="45.70667" lon="4.58734">
        <ele>727.4</ele>
        <time>2019-09-01T20:04:09.385Z</time>
      </trkpt>
      <trkpt lat="45.70665" lon="4.58772">
        <ele>728.8</ele>
        <time>2019-09-01T20:04:09.923Z</time>
      </trkpt>
      <trkpt lat="45.70658" lon="4.58795">
        <ele>729.1</ele>
        <time>2019-09-01T20:04:10.276Z</time>
      </trkpt>
      <trkpt lat="45.7065" lon="4.58816">
        <ele>729.6</ele>
        <time>2019-09-01T20:04:10.608Z</time>
      </trkpt>
      <trkpt lat="45.7064" lon="4.58835">
        <ele>729.9</ele>
        <time>2019-09-01T20:04:10.952Z</time>
      </trkpt>
      <trkpt lat="45.70631" lon="4.5887">
        <ele>727.9</ele>
        <time>2019-09-01T20:04:11.462Z</time>
      </trkpt>
      <trkpt lat="45.70628" lon="4.58903">
        <ele>726.3</ele>
        <time>2019-09-01T20:04:11.933Z</time>
      </trkpt>
      <trkpt lat="45.7064" lon="4.58966">
        <ele>726.3</ele>
        <time>2019-09-01T20:04:12.837Z</time>
      </trkpt>
      <trkpt lat="45.70643" lon="4.59015">
        <ele>725.5</ele>
        <time>2019-09-01T20:04:13.528Z</time>
      </trkpt>
      <trkpt lat="45.7064" lon="4.59054">
        <ele>726.9</ele>
        <time>2019-09-01T20:04:14.076Z</time>
      </trkpt>
      <trkpt lat="45.70633" lon="4.59108">
        <ele>727.6</ele>
        <time>2019-09-01T20:04:14.846Z</time>
      </trkpt>
      <trkpt lat="45.70627" lon="4.59131">
        <ele>728.2</ele>
        <time>2019-09-01T20:04:15.186Z</time>
      </trkpt>
      <trkpt lat="45.70619" lon="4.59152">
        <ele>728.4</ele>
        <time>2019-09-01T20:04:15.526Z</time>
      </trkpt>
      <trkpt lat="45.70605" lon="4.59177">
        <ele>728.4</ele>
        <time>2019-09-01T20:04:15.973Z</time>
      </trkpt>
      <trkpt lat="45.70554" lon="4.59258">
        <ele>728.5</ele>
        <time>2019-09-01T20:04:17.500Z</time>
      </trkpt>
      <trkpt lat="45.70544" lon="4.59268">
        <ele>728.5</ele>
        <time>2019-09-01T20:04:17.747Z</time>
      </trkpt>
      <trkpt lat="45.70468" lon="4.59318">
        <ele>730.1</ele>
        <time>2019-09-01T20:04:19.419Z</time>
      </trkpt>
      <trkpt lat="45.70464" lon="4.59323">
        <ele>730.1</ele>
        <time>2019-09-01T20:04:19.530Z</time>
      </trkpt>
      <trkpt lat="45.70453" lon="4.59345">
        <ele>730.3</ele>
        <time>2019-09-01T20:04:19.916Z</time>
      </trkpt>
      <trkpt lat="45.7044" lon="4.59379">
        <ele>731.6</ele>
        <time>2019-09-01T20:04:20.456Z</time>
      </trkpt>
      <trkpt lat="45.70405" lon="4.59481">
        <ele>742.1</ele>
        <time>2019-09-01T20:04:22.049Z</time>
      </trkpt>
      <trkpt lat="45.704" lon="4.5952">
        <ele>743.7</ele>
        <time>2019-09-01T20:04:22.606Z</time>
      </trkpt>
      <trkpt lat="45.70393" lon="4.5956">
        <ele>746.7</ele>
        <time>2019-09-01T20:04:23.174Z</time>
      </trkpt>
      <trkpt lat="45.70391" lon="4.5958">
        <ele>749.5</ele>
        <time>2019-09-01T20:04:23.459Z</time>
      </trkpt>
      <trkpt lat="45.70393" lon="4.59583">
        <ele>749.9</ele>
        <time>2019-09-01T20:04:23.510Z</time>
      </trkpt>
      <trkpt lat="45.70408" lon="4.5959">
        <ele>751.6</ele>
        <time>2019-09-01T20:04:23.824Z</time>
      </trkpt>
      <trkpt lat="45.7042" lon="4.59599">
        <ele>752.9</ele>
        <time>2019-09-01T20:04:24.102Z</time>
      </trkpt>
      <trkpt lat="45.70435" lon="4.59616">
        <ele>752.5</ele>
        <time>2019-09-01T20:04:24.483Z</time>
      </trkpt>
      <trkpt lat="45.70446" lon="4.59631">
        <ele>750.9</ele>
        <time>2019-09-01T20:04:24.792Z</time>
      </trkpt>
      <trkpt lat="45.70454" lon="4.59652">
        <ele>749.9</ele>
        <time>2019-09-01T20:04:25.116Z</time>
      </trkpt>
      <trkpt lat="45.70465" lon="4.59675">
        <ele>747.9</ele>
        <time>2019-09-01T20:04:25.519Z</time>
      </trkpt>
      <trkpt lat="45.70483" lon="4.59757">
        <ele>747.8</ele>
        <time>2019-09-01T20:04:26.720Z</time>
      </trkpt>
      <trkpt lat="45.70495" lon="4.59829">
        <ele>750.6</ele>
        <time>2019-09-01T20:04:27.758Z</time>
      </trkpt>
      <trkpt lat="45.70495" lon="4.59878">
        <ele>751.7</ele>
        <time>2019-09-01T20:04:28.440Z</time>
      </trkpt>
      <trkpt lat="45.7049" lon="4.59918">
        <ele>751.8</ele>
        <time>2019-09-01T20:04:29.002Z</time>
      </trkpt>
      <trkpt lat="45.70473" lon="4.59988">
        <ele>752.6</ele>
        <time>2019-09-01T20:04:30.040Z</time>
      </trkpt>
      <trkpt lat="45.70462" lon="4.6005">
        <ele>753.2</ele>
        <time>2019-09-01T20:04:30.935Z</time>
      </trkpt>
      <trkpt lat="45.70467" lon="4.6013">
        <ele>751</ele>
        <time>2019-09-01T20:04:32.065Z</time>
      </trkpt>
      <trkpt lat="45.70471" lon="4.60172">
        <ele>751.4</ele>
        <time>2019-09-01T20:04:32.657Z</time>
      </trkpt>
      <trkpt lat="45.70475" lon="4.60303">
        <ele>758.9</ele>
        <time>2019-09-01T20:04:34.482Z</time>
      </trkpt>
      <trkpt lat="45.70478" lon="4.60341">
        <ele>760.9</ele>
        <time>2019-09-01T20:04:35.030Z</time>
      </trkpt>
      <trkpt lat="45.70481" lon="4.60369">
        <ele>762</ele>
        <time>2019-09-01T20:04:35.416Z</time>
      </trkpt>
      <trkpt lat="45.70494" lon="4.60433">
        <ele>762.9</ele>
        <time>2019-09-01T20:04:36.346Z</time>
      </trkpt>
      <trkpt lat="45.70498" lon="4.60474">
        <ele>763.7</ele>
        <time>2019-09-01T20:04:36.925Z</time>
      </trkpt>
      <trkpt lat="45.70494" lon="4.60521">
        <ele>765.5</ele>
        <time>2019-09-01T20:04:37.586Z</time>
      </trkpt>
      <trkpt lat="45.70487" lon="4.60556">
        <ele>766.2</ele>
        <time>2019-09-01T20:04:38.096Z</time>
      </trkpt>
      <trkpt lat="45.70481" lon="4.60578">
        <ele>766.1</ele>
        <time>2019-09-01T20:04:38.431Z</time>
      </trkpt>
      <trkpt lat="45.70479" lon="4.60596">
        <ele>764.6</ele>
        <time>2019-09-01T20:04:38.681Z</time>
      </trkpt>
      <trkpt lat="45.70474" lon="4.6062">
        <ele>762.1</ele>
        <time>2019-09-01T20:04:39.037Z</time>
      </trkpt>
      <trkpt lat="45.70463" lon="4.60639">
        <ele>762.2</ele>
        <time>2019-09-01T20:04:39.384Z</time>
      </trkpt>
      <trkpt lat="45.70443" lon="4.60664">
        <ele>762.4</ele>
        <time>2019-09-01T20:04:39.913Z</time>
      </trkpt>
      <trkpt lat="45.70421" lon="4.60687">
        <ele>762.8</ele>
        <time>2019-09-01T20:04:40.466Z</time>
      </trkpt>
      <trkpt lat="45.7041" lon="4.60693">
        <ele>764.5</ele>
        <time>2019-09-01T20:04:40.696Z</time>
      </trkpt>
      <trkpt lat="45.70398" lon="4.60696">
        <ele>767</ele>
        <time>2019-09-01T20:04:40.943Z</time>
      </trkpt>
      <trkpt lat="45.70355" lon="4.60701">
        <ele>773.4</ele>
        <time>2019-09-01T20:04:41.805Z</time>
      </trkpt>
      <trkpt lat="45.70324" lon="4.6071">
        <ele>772.5</ele>
        <time>2019-09-01T20:04:42.441Z</time>
      </trkpt>
      <trkpt lat="45.70293" lon="4.60713">
        <ele>773.5</ele>
        <time>2019-09-01T20:04:43.061Z</time>
      </trkpt>
      <trkpt lat="45.70275" lon="4.60718">
        <ele>773.2</ele>
        <time>2019-09-01T20:04:43.427Z</time>
      </trkpt>
      <trkpt lat="45.7027" lon="4.60717">
        <ele>773.3</ele>
        <time>2019-09-01T20:04:43.532Z</time>
      </trkpt>
      <trkpt lat="45.7023" lon="4.60723">
        <ele>772.7</ele>
        <time>2019-09-01T20:04:44.334Z</time>
      </trkpt>
      <trkpt lat="45.70218" lon="4.60728">
        <ele>772.5</ele>
        <time>2019-09-01T20:04:44.584Z</time>
      </trkpt>
      <trkpt lat="45.70198" lon="4.60727">
        <ele>772.9</ele>
        <time>2019-09-01T20:04:44.973Z</time>
      </trkpt>
      <trkpt lat="45.70168" lon="4.60745">
        <ele>773</ele>
        <time>2019-09-01T20:04:45.618Z</time>
      </trkpt>
      <trkpt lat="45.70159" lon="4.60743">
        <ele>772.6</ele>
        <time>2019-09-01T20:04:45.811Z</time>
      </trkpt>
      <trkpt lat="45.7015" lon="4.6074">
        <ele>772.2</ele>
        <time>2019-09-01T20:04:45.990Z</time>
      </trkpt>
      <trkpt lat="45.70145" lon="4.60732">
        <ele>771.7</ele>
        <time>2019-09-01T20:04:46.137Z</time>
      </trkpt>
      <trkpt lat="45.70146" lon="4.60716">
        <ele>771.5</ele>
        <time>2019-09-01T20:04:46.362Z</time>
      </trkpt>
      <trkpt lat="45.70149" lon="4.60705">
        <ele>771.7</ele>
        <time>2019-09-01T20:04:46.526Z</time>
      </trkpt>
      <trkpt lat="45.70157" lon="4.60687">
        <ele>772.2</ele>
        <time>2019-09-01T20:04:46.831Z</time>
      </trkpt>
      <trkpt lat="45.70158" lon="4.60665">
        <ele>772.1</ele>
        <time>2019-09-01T20:04:47.129Z</time>
      </trkpt>
      <trkpt lat="45.7015" lon="4.60607">
        <ele>773.3</ele>
        <time>2019-09-01T20:04:47.958Z</time>
      </trkpt>
      <trkpt lat="45.70142" lon="4.60583">
        <ele>774.5</ele>
        <time>2019-09-01T20:04:48.325Z</time>
      </trkpt>
      <trkpt lat="45.70117" lon="4.60555">
        <ele>774.8</ele>
        <time>2019-09-01T20:04:48.976Z</time>
      </trkpt>
      <trkpt lat="45.701" lon="4.6053">
        <ele>778.3</ele>
        <time>2019-09-01T20:04:49.459Z</time>
      </trkpt>
      <trkpt lat="45.70092" lon="4.60523">
        <ele>778.8</ele>
        <time>2019-09-01T20:04:49.647Z</time>
      </trkpt>
      <trkpt lat="45.70065" lon="4.60482">
        <ele>778.7</ele>
        <time>2019-09-01T20:04:50.443Z</time>
      </trkpt>
      <trkpt lat="45.70055" lon="4.60459">
        <ele>779.8</ele>
        <time>2019-09-01T20:04:50.812Z</time>
      </trkpt>
      <trkpt lat="45.7005" lon="4.60436">
        <ele>781.1</ele>
        <time>2019-09-01T20:04:51.148Z</time>
      </trkpt>
      <trkpt lat="45.70048" lon="4.6041">
        <ele>782.1</ele>
        <time>2019-09-01T20:04:51.518Z</time>
      </trkpt>
      <trkpt lat="45.70058" lon="4.60362">
        <ele>785</ele>
        <time>2019-09-01T20:04:52.219Z</time>
      </trkpt>
      <trkpt lat="45.70067" lon="4.60339">
        <ele>786.2</ele>
        <time>2019-09-01T20:04:52.598Z</time>
      </trkpt>
      <trkpt lat="45.70089" lon="4.60303">
        <ele>789.4</ele>
        <time>2019-09-01T20:04:53.251Z</time>
      </trkpt>
      <trkpt lat="45.70096" lon="4.60286">
        <ele>788.6</ele>
        <time>2019-09-01T20:04:53.542Z</time>
      </trkpt>
      <trkpt lat="45.70121" lon="4.6025">
        <ele>790.7</ele>
        <time>2019-09-01T20:04:54.244Z</time>
      </trkpt>
      <trkpt lat="45.70125" lon="4.60241">
        <ele>790.1</ele>
        <time>2019-09-01T20:04:54.389Z</time>
      </trkpt>
      <trkpt lat="45.7014" lon="4.60218">
        <ele>791.3</ele>
        <time>2019-09-01T20:04:54.829Z</time>
      </trkpt>
      <trkpt lat="45.70163" lon="4.60153">
        <ele>783.9</ele>
        <time>2019-09-01T20:04:55.860Z</time>
      </trkpt>
      <trkpt lat="45.70171" lon="4.60127">
        <ele>779.9</ele>
        <time>2019-09-01T20:04:56.244Z</time>
      </trkpt>
      <trkpt lat="45.7017" lon="4.60119">
        <ele>777.7</ele>
        <time>2019-09-01T20:04:56.365Z</time>
      </trkpt>
      <trkpt lat="45.70167" lon="4.60118">
        <ele>776.8</ele>
        <time>2019-09-01T20:04:56.408Z</time>
      </trkpt>
      <trkpt lat="45.70113" lon="4.60146">
        <ele>765.9</ele>
        <time>2019-09-01T20:04:57.569Z</time>
      </trkpt>
      <trkpt lat="45.70103" lon="4.60155">
        <ele>764.7</ele>
        <time>2019-09-01T20:04:57.807Z</time>
      </trkpt>
      <trkpt lat="45.7009" lon="4.60174">
        <ele>765</ele>
        <time>2019-09-01T20:04:58.170Z</time>
      </trkpt>
      <trkpt lat="45.70084" lon="4.60188">
        <ele>766.6</ele>
        <time>2019-09-01T20:04:58.398Z</time>
      </trkpt>
      <trkpt lat="45.70066" lon="4.60217">
        <ele>764.9</ele>
        <time>2019-09-01T20:04:58.950Z</time>
      </trkpt>
      <trkpt lat="45.70037" lon="4.60252">
        <ele>761.9</ele>
        <time>2019-09-01T20:04:59.709Z</time>
      </trkpt>
      <trkpt lat="45.69995" lon="4.60295">
        <ele>752.9</ele>
        <time>2019-09-01T20:05:00.756Z</time>
      </trkpt>
      <trkpt lat="45.69984" lon="4.6031">
        <ele>752</ele>
        <time>2019-09-01T20:05:01.043Z</time>
      </trkpt>
      <trkpt lat="45.69967" lon="4.60346">
        <ele>749.4</ele>
        <time>2019-09-01T20:05:01.651Z</time>
      </trkpt>
      <trkpt lat="45.69957" lon="4.60374">
        <ele>747.5</ele>
        <time>2019-09-01T20:05:02.100Z</time>
      </trkpt>
      <trkpt lat="45.69951" lon="4.60383">
        <ele>745.6</ele>
        <time>2019-09-01T20:05:02.264Z</time>
      </trkpt>
      <trkpt lat="45.6994" lon="4.60389">
        <ele>741</ele>
        <time>2019-09-01T20:05:02.511Z</time>
      </trkpt>
      <trkpt lat="45.69931" lon="4.60376">
        <ele>737.3</ele>
        <time>2019-09-01T20:05:02.764Z</time>
      </trkpt>
      <trkpt lat="45.69926" lon="4.60366">
        <ele>735.5</ele>
        <time>2019-09-01T20:05:02.926Z</time>
      </trkpt>
      <trkpt lat="45.69925" lon="4.60359">
        <ele>734.8</ele>
        <time>2019-09-01T20:05:03.027Z</time>
      </trkpt>
      <trkpt lat="45.69929" lon="4.60324">
        <ele>732.8</ele>
        <time>2019-09-01T20:05:03.520Z</time>
      </trkpt>
      <trkpt lat="45.69934" lon="4.60293">
        <ele>730.3</ele>
        <time>2019-09-01T20:05:03.966Z</time>
      </trkpt>
      <trkpt lat="45.69939" lon="4.6028">
        <ele>729.9</ele>
        <time>2019-09-01T20:05:04.177Z</time>
      </trkpt>
      <trkpt lat="45.69952" lon="4.60259">
        <ele>730.2</ele>
        <time>2019-09-01T20:05:04.567Z</time>
      </trkpt>
      <trkpt lat="45.69967" lon="4.60221">
        <ele>727.3</ele>
        <time>2019-09-01T20:05:05.175Z</time>
      </trkpt>
      <trkpt lat="45.69981" lon="4.6017">
        <ele>721.8</ele>
        <time>2019-09-01T20:05:05.943Z</time>
      </trkpt>
      <trkpt lat="45.69998" lon="4.60123">
        <ele>717.7</ele>
        <time>2019-09-01T20:05:06.684Z</time>
      </trkpt>
      <trkpt lat="45.70008" lon="4.6008">
        <ele>712.5</ele>
        <time>2019-09-01T20:05:07.311Z</time>
      </trkpt>
      <trkpt lat="45.7003" lon="4.6002">
        <ele>707.4</ele>
        <time>2019-09-01T20:05:08.268Z</time>
      </trkpt>
      <trkpt lat="45.7003" lon="4.60014">
        <ele>706.2</ele>
        <time>2019-09-01T20:05:08.350Z</time>
      </trkpt>
      <trkpt lat="45.70009" lon="4.60043">
        <ele>704.1</ele>
        <time>2019-09-01T20:05:08.932Z</time>
      </trkpt>
      <trkpt lat="45.69988" lon="4.60079">
        <ele>704.1</ele>
        <time>2019-09-01T20:05:09.587Z</time>
      </trkpt>
      <trkpt lat="45.69968" lon="4.60106">
        <ele>703.1</ele>
        <time>2019-09-01T20:05:10.137Z</time>
      </trkpt>
      <trkpt lat="45.69937" lon="4.60142">
        <ele>701.3</ele>
        <time>2019-09-01T20:05:10.936Z</time>
      </trkpt>
      <trkpt lat="45.69886" lon="4.6021">
        <ele>704.3</ele>
        <time>2019-09-01T20:05:12.333Z</time>
      </trkpt>
      <trkpt lat="45.69873" lon="4.60229">
        <ele>705.5</ele>
        <time>2019-09-01T20:05:12.705Z</time>
      </trkpt>
      <trkpt lat="45.69864" lon="4.60247">
        <ele>706.3</ele>
        <time>2019-09-01T20:05:13.016Z</time>
      </trkpt>
      <trkpt lat="45.69861" lon="4.60269">
        <ele>708.1</ele>
        <time>2019-09-01T20:05:13.324Z</time>
      </trkpt>
      <trkpt lat="45.69853" lon="4.60436">
        <ele>703.3</ele>
        <time>2019-09-01T20:05:15.664Z</time>
      </trkpt>
      <trkpt lat="45.69853" lon="4.6051">
        <ele>701.9</ele>
        <time>2019-09-01T20:05:16.705Z</time>
      </trkpt>
      <trkpt lat="45.69856" lon="4.60558">
        <ele>700.8</ele>
        <time>2019-09-01T20:05:17.382Z</time>
      </trkpt>
      <trkpt lat="45.69863" lon="4.60588">
        <ele>699.7</ele>
        <time>2019-09-01T20:05:17.813Z</time>
      </trkpt>
      <trkpt lat="45.69866" lon="4.60596">
        <ele>698.9</ele>
        <time>2019-09-01T20:05:17.956Z</time>
      </trkpt>
      <trkpt lat="45.69895" lon="4.60641">
        <ele>694.5</ele>
        <time>2019-09-01T20:05:18.810Z</time>
      </trkpt>
      <trkpt lat="45.69903" lon="4.6066">
        <ele>694</ele>
        <time>2019-09-01T20:05:19.114Z</time>
      </trkpt>
      <trkpt lat="45.69925" lon="4.60747">
        <ele>696.8</ele>
        <time>2019-09-01T20:05:20.410Z</time>
      </trkpt>
      <trkpt lat="45.69925" lon="4.6077">
        <ele>697.5</ele>
        <time>2019-09-01T20:05:20.724Z</time>
      </trkpt>
      <trkpt lat="45.69924" lon="4.6079">
        <ele>698.3</ele>
        <time>2019-09-01T20:05:21.005Z</time>
      </trkpt>
      <trkpt lat="45.69918" lon="4.60833">
        <ele>701.4</ele>
        <time>2019-09-01T20:05:21.624Z</time>
      </trkpt>
      <trkpt lat="45.69915" lon="4.60847">
        <ele>702.1</ele>
        <time>2019-09-01T20:05:21.836Z</time>
      </trkpt>
      <trkpt lat="45.699" lon="4.60897">
        <ele>704.3</ele>
        <time>2019-09-01T20:05:22.586Z</time>
      </trkpt>
      <trkpt lat="45.69886" lon="4.60965">
        <ele>710.1</ele>
        <time>2019-09-01T20:05:23.588Z</time>
      </trkpt>
      <trkpt lat="45.6989" lon="4.61039">
        <ele>713.6</ele>
        <time>2019-09-01T20:05:24.629Z</time>
      </trkpt>
      <trkpt lat="45.69908" lon="4.61099">
        <ele>716</ele>
        <time>2019-09-01T20:05:25.538Z</time>
      </trkpt>
      <trkpt lat="45.69911" lon="4.61124">
        <ele>715.9</ele>
        <time>2019-09-01T20:05:25.895Z</time>
      </trkpt>
      <trkpt lat="45.6991" lon="4.61148">
        <ele>715</ele>
        <time>2019-09-01T20:05:26.231Z</time>
      </trkpt>
      <trkpt lat="45.69901" lon="4.61175">
        <ele>713.2</ele>
        <time>2019-09-01T20:05:26.638Z</time>
      </trkpt>
      <trkpt lat="45.69879" lon="4.61209">
        <ele>712.5</ele>
        <time>2019-09-01T20:05:27.286Z</time>
      </trkpt>
      <trkpt lat="45.69864" lon="4.61227">
        <ele>712</ele>
        <time>2019-09-01T20:05:27.688Z</time>
      </trkpt>
      <trkpt lat="45.69856" lon="4.61237">
        <ele>711.8</ele>
        <time>2019-09-01T20:05:27.897Z</time>
      </trkpt>
      <trkpt lat="45.69841" lon="4.6125">
        <ele>710.7</ele>
        <time>2019-09-01T20:05:28.258Z</time>
      </trkpt>
      <trkpt lat="45.69825" lon="4.61265">
        <ele>710.5</ele>
        <time>2019-09-01T20:05:28.639Z</time>
      </trkpt>
      <trkpt lat="45.69804" lon="4.613">
        <ele>712.1</ele>
        <time>2019-09-01T20:05:29.275Z</time>
      </trkpt>
      <trkpt lat="45.69799" lon="4.61316">
        <ele>712.7</ele>
        <time>2019-09-01T20:05:29.526Z</time>
      </trkpt>
      <trkpt lat="45.69794" lon="4.61353">
        <ele>714.8</ele>
        <time>2019-09-01T20:05:30.057Z</time>
      </trkpt>
      <trkpt lat="45.69795" lon="4.61379">
        <ele>715.8</ele>
        <time>2019-09-01T20:05:30.417Z</time>
      </trkpt>
      <trkpt lat="45.69801" lon="4.61415">
        <ele>717.3</ele>
        <time>2019-09-01T20:05:30.936Z</time>
      </trkpt>
      <trkpt lat="45.69803" lon="4.61438">
        <ele>717.8</ele>
        <time>2019-09-01T20:05:31.258Z</time>
      </trkpt>
      <trkpt lat="45.69805" lon="4.61519">
        <ele>716.8</ele>
        <time>2019-09-01T20:05:32.396Z</time>
      </trkpt>
      <trkpt lat="45.69803" lon="4.61577">
        <ele>715.9</ele>
        <time>2019-09-01T20:05:33.216Z</time>
      </trkpt>
      <trkpt lat="45.69804" lon="4.61603">
        <ele>715.8</ele>
        <time>2019-09-01T20:05:33.574Z</time>
      </trkpt>
      <trkpt lat="45.69811" lon="4.61635">
        <ele>718.2</ele>
        <time>2019-09-01T20:05:34.045Z</time>
      </trkpt>
      <trkpt lat="45.69822" lon="4.61672">
        <ele>720.5</ele>
        <time>2019-09-01T20:05:34.609Z</time>
      </trkpt>
      <trkpt lat="45.69836" lon="4.61701">
        <ele>721.5</ele>
        <time>2019-09-01T20:05:35.096Z</time>
      </trkpt>
      <trkpt lat="45.69846" lon="4.61715">
        <ele>721.7</ele>
        <time>2019-09-01T20:05:35.369Z</time>
      </trkpt>
      <trkpt lat="45.69853" lon="4.61722">
        <ele>722.6</ele>
        <time>2019-09-01T20:05:35.542Z</time>
      </trkpt>
      <trkpt lat="45.69898" lon="4.61757">
        <ele>724.6</ele>
        <time>2019-09-01T20:05:36.587Z</time>
      </trkpt>
      <trkpt lat="45.69918" lon="4.61776">
        <ele>725.6</ele>
        <time>2019-09-01T20:05:37.064Z</time>
      </trkpt>
      <trkpt lat="45.69931" lon="4.61794">
        <ele>725.5</ele>
        <time>2019-09-01T20:05:37.416Z</time>
      </trkpt>
      <trkpt lat="45.69948" lon="4.61849">
        <ele>722.8</ele>
        <time>2019-09-01T20:05:38.268Z</time>
      </trkpt>
      <trkpt lat="45.69969" lon="4.61888">
        <ele>723.6</ele>
        <time>2019-09-01T20:05:38.949Z</time>
      </trkpt>
      <trkpt lat="45.69991" lon="4.61925">
        <ele>723.2</ele>
        <time>2019-09-01T20:05:39.624Z</time>
      </trkpt>
      <trkpt lat="45.69994" lon="4.61926">
        <ele>723.3</ele>
        <time>2019-09-01T20:05:39.690Z</time>
      </trkpt>
      <trkpt lat="45.7" lon="4.61926">
        <ele>724</ele>
        <time>2019-09-01T20:05:39.816Z</time>
      </trkpt>
      <trkpt lat="45.70006" lon="4.61923">
        <ele>724.5</ele>
        <time>2019-09-01T20:05:39.934Z</time>
      </trkpt>
      <trkpt lat="45.70014" lon="4.61921">
        <ele>725.1</ele>
        <time>2019-09-01T20:05:40.110Z</time>
      </trkpt>
      <trkpt lat="45.70025" lon="4.61932">
        <ele>724.7</ele>
        <time>2019-09-01T20:05:40.382Z</time>
      </trkpt>
      <trkpt lat="45.70082" lon="4.62024">
        <ele>720.5</ele>
        <time>2019-09-01T20:05:42.096Z</time>
      </trkpt>
      <trkpt lat="45.70087" lon="4.62027">
        <ele>720.6</ele>
        <time>2019-09-01T20:05:42.197Z</time>
      </trkpt>
      <trkpt lat="45.70079" lon="4.62015">
        <ele>721.3</ele>
        <time>2019-09-01T20:05:42.428Z</time>
      </trkpt>
      <trkpt lat="45.70076" lon="4.62015">
        <ele>721.1</ele>
        <time>2019-09-01T20:05:42.474Z</time>
      </trkpt>
      <trkpt lat="45.70069" lon="4.6203">
        <ele>718.5</ele>
        <time>2019-09-01T20:05:42.733Z</time>
      </trkpt>
      <trkpt lat="45.70065" lon="4.62044">
        <ele>716</ele>
        <time>2019-09-01T20:05:42.937Z</time>
      </trkpt>
      <trkpt lat="45.70065" lon="4.6205">
        <ele>715</ele>
        <time>2019-09-01T20:05:43.025Z</time>
      </trkpt>
      <trkpt lat="45.70072" lon="4.6207">
        <ele>712</ele>
        <time>2019-09-01T20:05:43.327Z</time>
      </trkpt>
      <trkpt lat="45.70068" lon="4.62087">
        <ele>707.6</ele>
        <time>2019-09-01T20:05:43.586Z</time>
      </trkpt>
      <trkpt lat="45.70084" lon="4.62121">
        <ele>700.7</ele>
        <time>2019-09-01T20:05:44.162Z</time>
      </trkpt>
      <trkpt lat="45.70088" lon="4.62134">
        <ele>697.4</ele>
        <time>2019-09-01T20:05:44.361Z</time>
      </trkpt>
      <trkpt lat="45.70091" lon="4.62141">
        <ele>695.8</ele>
        <time>2019-09-01T20:05:44.479Z</time>
      </trkpt>
      <trkpt lat="45.70101" lon="4.62152">
        <ele>693.5</ele>
        <time>2019-09-01T20:05:44.719Z</time>
      </trkpt>
      <trkpt lat="45.70135" lon="4.62182">
        <ele>688.5</ele>
        <time>2019-09-01T20:05:45.534Z</time>
      </trkpt>
      <trkpt lat="45.70156" lon="4.62207">
        <ele>685</ele>
        <time>2019-09-01T20:05:46.072Z</time>
      </trkpt>
      <trkpt lat="45.7018" lon="4.6224">
        <ele>681.3</ele>
        <time>2019-09-01T20:05:46.748Z</time>
      </trkpt>
      <trkpt lat="45.70252" lon="4.6235">
        <ele>672.7</ele>
        <time>2019-09-01T20:05:48.851Z</time>
      </trkpt>
      <trkpt lat="45.70272" lon="4.62386">
        <ele>671.5</ele>
        <time>2019-09-01T20:05:49.494Z</time>
      </trkpt>
      <trkpt lat="45.70315" lon="4.62477">
        <ele>669.1</ele>
        <time>2019-09-01T20:05:51.023Z</time>
      </trkpt>
      <trkpt lat="45.70321" lon="4.62493">
        <ele>668.5</ele>
        <time>2019-09-01T20:05:51.287Z</time>
      </trkpt>
      <trkpt lat="45.70324" lon="4.62541">
        <ele>664.4</ele>
        <time>2019-09-01T20:05:51.963Z</time>
      </trkpt>
      <trkpt lat="45.7033" lon="4.62563">
        <ele>663</ele>
        <time>2019-09-01T20:05:52.283Z</time>
      </trkpt>
      <trkpt lat="45.70336" lon="4.62581">
        <ele>660.4</ele>
        <time>2019-09-01T20:05:52.565Z</time>
      </trkpt>
      <trkpt lat="45.70337" lon="4.62592">
        <ele>658.9</ele>
        <time>2019-09-01T20:05:52.722Z</time>
      </trkpt>
      <trkpt lat="45.70334" lon="4.62596">
        <ele>658.6</ele>
        <time>2019-09-01T20:05:52.804Z</time>
      </trkpt>
      <trkpt lat="45.70324" lon="4.62601">
        <ele>656.9</ele>
        <time>2019-09-01T20:05:53.022Z</time>
      </trkpt>
      <trkpt lat="45.70319" lon="4.62605">
        <ele>656</ele>
        <time>2019-09-01T20:05:53.130Z</time>
      </trkpt>
      <trkpt lat="45.70312" lon="4.62615">
        <ele>654.7</ele>
        <time>2019-09-01T20:05:53.328Z</time>
      </trkpt>
      <trkpt lat="45.70299" lon="4.62643">
        <ele>652</ele>
        <time>2019-09-01T20:05:53.793Z</time>
      </trkpt>
      <trkpt lat="45.70275" lon="4.62716">
        <ele>646.1</ele>
        <time>2019-09-01T20:05:54.933Z</time>
      </trkpt>
      <trkpt lat="45.70249" lon="4.6277">
        <ele>642</ele>
        <time>2019-09-01T20:05:55.847Z</time>
      </trkpt>
      <trkpt lat="45.7024" lon="4.62784">
        <ele>640.3</ele>
        <time>2019-09-01T20:05:56.115Z</time>
      </trkpt>
      <trkpt lat="45.70208" lon="4.6282">
        <ele>633.1</ele>
        <time>2019-09-01T20:05:56.924Z</time>
      </trkpt>
      <trkpt lat="45.70186" lon="4.62855">
        <ele>630.5</ele>
        <time>2019-09-01T20:05:57.587Z</time>
      </trkpt>
      <trkpt lat="45.70167" lon="4.62879">
        <ele>627.9</ele>
        <time>2019-09-01T20:05:58.101Z</time>
      </trkpt>
      <trkpt lat="45.70142" lon="4.62916">
        <ele>626.1</ele>
        <time>2019-09-01T20:05:58.807Z</time>
      </trkpt>
      <trkpt lat="45.70114" lon="4.62943">
        <ele>625.4</ele>
        <time>2019-09-01T20:05:59.492Z</time>
      </trkpt>
      <trkpt lat="45.70092" lon="4.62958">
        <ele>622.8</ele>
        <time>2019-09-01T20:05:59.979Z</time>
      </trkpt>
      <trkpt lat="45.70058" lon="4.62975">
        <ele>618.3</ele>
        <time>2019-09-01T20:06:00.711Z</time>
      </trkpt>
      <trkpt lat="45.69992" lon="4.63">
        <ele>612.2</ele>
        <time>2019-09-01T20:06:02.068Z</time>
      </trkpt>
      <trkpt lat="45.69952" lon="4.63004">
        <ele>604.3</ele>
        <time>2019-09-01T20:06:02.872Z</time>
      </trkpt>
      <trkpt lat="45.69944" lon="4.63004">
        <ele>602.4</ele>
        <time>2019-09-01T20:06:03.036Z</time>
      </trkpt>
      <trkpt lat="45.69927" lon="4.63009">
        <ele>598.6</ele>
        <time>2019-09-01T20:06:03.391Z</time>
      </trkpt>
      <trkpt lat="45.69909" lon="4.6303">
        <ele>596</ele>
        <time>2019-09-01T20:06:03.847Z</time>
      </trkpt>
      <trkpt lat="45.699" lon="4.63039">
        <ele>593.4</ele>
        <time>2019-09-01T20:06:04.075Z</time>
      </trkpt>
      <trkpt lat="45.69865" lon="4.63101">
        <ele>584.8</ele>
        <time>2019-09-01T20:06:05.193Z</time>
      </trkpt>
      <trkpt lat="45.6984" lon="4.63134">
        <ele>578</ele>
        <time>2019-09-01T20:06:05.864Z</time>
      </trkpt>
      <trkpt lat="45.69821" lon="4.63168">
        <ele>574.2</ele>
        <time>2019-09-01T20:06:06.475Z</time>
      </trkpt>
      <trkpt lat="45.69809" lon="4.63199">
        <ele>570.8</ele>
        <time>2019-09-01T20:06:06.975Z</time>
      </trkpt>
      <trkpt lat="45.69798" lon="4.63262">
        <ele>564.3</ele>
        <time>2019-09-01T20:06:07.872Z</time>
      </trkpt>
      <trkpt lat="45.69795" lon="4.6331">
        <ele>558.7</ele>
        <time>2019-09-01T20:06:08.550Z</time>
      </trkpt>
      <trkpt lat="45.69797" lon="4.63335">
        <ele>555.5</ele>
        <time>2019-09-01T20:06:08.906Z</time>
      </trkpt>
      <trkpt lat="45.69799" lon="4.63343">
        <ele>554.6</ele>
        <time>2019-09-01T20:06:09.021Z</time>
      </trkpt>
      <trkpt lat="45.69812" lon="4.63364">
        <ele>552.6</ele>
        <time>2019-09-01T20:06:09.408Z</time>
      </trkpt>
      <trkpt lat="45.69828" lon="4.63384">
        <ele>550.5</ele>
        <time>2019-09-01T20:06:09.834Z</time>
      </trkpt>
      <trkpt lat="45.69852" lon="4.6341">
        <ele>548.2</ele>
        <time>2019-09-01T20:06:10.446Z</time>
      </trkpt>
      <trkpt lat="45.69859" lon="4.63424">
        <ele>546.4</ele>
        <time>2019-09-01T20:06:10.686Z</time>
      </trkpt>
      <trkpt lat="45.69866" lon="4.63442">
        <ele>545.3</ele>
        <time>2019-09-01T20:06:10.968Z</time>
      </trkpt>
      <trkpt lat="45.69868" lon="4.63461">
        <ele>544.3</ele>
        <time>2019-09-01T20:06:11.237Z</time>
      </trkpt>
      <trkpt lat="45.69866" lon="4.63504">
        <ele>539.1</ele>
        <time>2019-09-01T20:06:11.839Z</time>
      </trkpt>
      <trkpt lat="45.69869" lon="4.63539">
        <ele>537.3</ele>
        <time>2019-09-01T20:06:12.335Z</time>
      </trkpt>
      <trkpt lat="45.69868" lon="4.63547">
        <ele>536.7</ele>
        <time>2019-09-01T20:06:12.452Z</time>
      </trkpt>
      <trkpt lat="45.69862" lon="4.63562">
        <ele>534.6</ele>
        <time>2019-09-01T20:06:12.691Z</time>
      </trkpt>
      <trkpt lat="45.69851" lon="4.63598">
        <ele>531.7</ele>
        <time>2019-09-01T20:06:13.243Z</time>
      </trkpt>
      <trkpt lat="45.69844" lon="4.63627">
        <ele>529.1</ele>
        <time>2019-09-01T20:06:13.672Z</time>
      </trkpt>
      <trkpt lat="45.69838" lon="4.63666">
        <ele>525.6</ele>
        <time>2019-09-01T20:06:14.236Z</time>
      </trkpt>
      <trkpt lat="45.69828" lon="4.63701">
        <ele>523.3</ele>
        <time>2019-09-01T20:06:14.755Z</time>
      </trkpt>
      <trkpt lat="45.69803" lon="4.63736">
        <ele>520.1</ele>
        <time>2019-09-01T20:06:15.461Z</time>
      </trkpt>
      <trkpt lat="45.69779" lon="4.63784">
        <ele>515.8</ele>
        <time>2019-09-01T20:06:16.286Z</time>
      </trkpt>
      <trkpt lat="45.69763" lon="4.63803">
        <ele>512.5</ele>
        <time>2019-09-01T20:06:16.709Z</time>
      </trkpt>
      <trkpt lat="45.6976" lon="4.63828">
        <ele>509.2</ele>
        <time>2019-09-01T20:06:17.051Z</time>
      </trkpt>
      <trkpt lat="45.69769" lon="4.63869">
        <ele>503.7</ele>
        <time>2019-09-01T20:06:17.649Z</time>
      </trkpt>
      <trkpt lat="45.6977" lon="4.63883">
        <ele>501.2</ele>
        <time>2019-09-01T20:06:17.854Z</time>
      </trkpt>
      <trkpt lat="45.69767" lon="4.63889">
        <ele>499.8</ele>
        <time>2019-09-01T20:06:17.954Z</time>
      </trkpt>
      <trkpt lat="45.69756" lon="4.63896">
        <ele>497.6</ele>
        <time>2019-09-01T20:06:18.186Z</time>
      </trkpt>
      <trkpt lat="45.69746" lon="4.63896">
        <ele>496.8</ele>
        <time>2019-09-01T20:06:18.400Z</time>
      </trkpt>
      <trkpt lat="45.69742" lon="4.63897">
        <ele>496.4</ele>
        <time>2019-09-01T20:06:18.469Z</time>
      </trkpt>
      <trkpt lat="45.69744" lon="4.63903">
        <ele>495.7</ele>
        <time>2019-09-01T20:06:18.554Z</time>
      </trkpt>
      <trkpt lat="45.69752" lon="4.63908">
        <ele>495.4</ele>
        <time>2019-09-01T20:06:18.718Z</time>
      </trkpt>
      <trkpt lat="45.69787" lon="4.63923">
        <ele>497.6</ele>
        <time>2019-09-01T20:06:19.459Z</time>
      </trkpt>
      <trkpt lat="45.69795" lon="4.63937">
        <ele>498.6</ele>
        <time>2019-09-01T20:06:19.709Z</time>
      </trkpt>
      <trkpt lat="45.69794" lon="4.63946">
        <ele>498.3</ele>
        <time>2019-09-01T20:06:19.834Z</time>
      </trkpt>
      <trkpt lat="45.69777" lon="4.63981">
        <ele>497.8</ele>
        <time>2019-09-01T20:06:20.432Z</time>
      </trkpt>
      <trkpt lat="45.69769" lon="4.64003">
        <ele>497.9</ele>
        <time>2019-09-01T20:06:20.779Z</time>
      </trkpt>
      <trkpt lat="45.69765" lon="4.64037">
        <ele>499.2</ele>
        <time>2019-09-01T20:06:21.260Z</time>
      </trkpt>
      <trkpt lat="45.69767" lon="4.64054">
        <ele>499.7</ele>
        <time>2019-09-01T20:06:21.514Z</time>
      </trkpt>
      <trkpt lat="45.69773" lon="4.64071">
        <ele>499.2</ele>
        <time>2019-09-01T20:06:21.770Z</time>
      </trkpt>
      <trkpt lat="45.69783" lon="4.6409">
        <ele>499.8</ele>
        <time>2019-09-01T20:06:22.096Z</time>
      </trkpt>
      <trkpt lat="45.69801" lon="4.64116">
        <ele>502.3</ele>
        <time>2019-09-01T20:06:22.623Z</time>
      </trkpt>
      <trkpt lat="45.69809" lon="4.64131">
        <ele>503.1</ele>
        <time>2019-09-01T20:06:22.886Z</time>
      </trkpt>
      <trkpt lat="45.69811" lon="4.64138">
        <ele>502.7</ele>
        <time>2019-09-01T20:06:22.990Z</time>
      </trkpt>
      <trkpt lat="45.69802" lon="4.6416">
        <ele>501.9</ele>
        <time>2019-09-01T20:06:23.337Z</time>
      </trkpt>
      <trkpt lat="45.69789" lon="4.64175">
        <ele>502.1</ele>
        <time>2019-09-01T20:06:23.682Z</time>
      </trkpt>
      <trkpt lat="45.69772" lon="4.64202">
        <ele>504</ele>
        <time>2019-09-01T20:06:24.185Z</time>
      </trkpt>
      <trkpt lat="45.69751" lon="4.64227">
        <ele>503.9</ele>
        <time>2019-09-01T20:06:24.732Z</time>
      </trkpt>
      <trkpt lat="45.69741" lon="4.64236">
        <ele>503.5</ele>
        <time>2019-09-01T20:06:24.963Z</time>
      </trkpt>
      <trkpt lat="45.69726" lon="4.64253">
        <ele>503</ele>
        <time>2019-09-01T20:06:25.349Z</time>
      </trkpt>
      <trkpt lat="45.69716" lon="4.64279">
        <ele>504.3</ele>
        <time>2019-09-01T20:06:25.768Z</time>
      </trkpt>
      <trkpt lat="45.69709" lon="4.64312">
        <ele>506.1</ele>
        <time>2019-09-01T20:06:26.246Z</time>
      </trkpt>
      <trkpt lat="45.69705" lon="4.64339">
        <ele>507</ele>
        <time>2019-09-01T20:06:26.638Z</time>
      </trkpt>
      <trkpt lat="45.69705" lon="4.64363">
        <ele>506.7</ele>
        <time>2019-09-01T20:06:26.974Z</time>
      </trkpt>
      <trkpt lat="45.69709" lon="4.64392">
        <ele>506.3</ele>
        <time>2019-09-01T20:06:27.382Z</time>
      </trkpt>
      <trkpt lat="45.69722" lon="4.64422">
        <ele>504.6</ele>
        <time>2019-09-01T20:06:27.874Z</time>
      </trkpt>
      <trkpt lat="45.69732" lon="4.64435">
        <ele>502.5</ele>
        <time>2019-09-01T20:06:28.155Z</time>
      </trkpt>
      <trkpt lat="45.69753" lon="4.64448">
        <ele>501.1</ele>
        <time>2019-09-01T20:06:28.606Z</time>
      </trkpt>
      <trkpt lat="45.69778" lon="4.6445">
        <ele>501.2</ele>
        <time>2019-09-01T20:06:29.102Z</time>
      </trkpt>
      <trkpt lat="45.69792" lon="4.64455">
        <ele>501.4</ele>
        <time>2019-09-01T20:06:29.406Z</time>
      </trkpt>
      <trkpt lat="45.69804" lon="4.64468">
        <ele>501.1</ele>
        <time>2019-09-01T20:06:29.693Z</time>
      </trkpt>
      <trkpt lat="45.69806" lon="4.64476">
        <ele>501.3</ele>
        <time>2019-09-01T20:06:29.813Z</time>
      </trkpt>
      <trkpt lat="45.69804" lon="4.64492">
        <ele>502.2</ele>
        <time>2019-09-01T20:06:30.040Z</time>
      </trkpt>
      <trkpt lat="45.69794" lon="4.64513">
        <ele>502.5</ele>
        <time>2019-09-01T20:06:30.407Z</time>
      </trkpt>
      <trkpt lat="45.69762" lon="4.64553">
        <ele>502.7</ele>
        <time>2019-09-01T20:06:31.254Z</time>
      </trkpt>
      <trkpt lat="45.69739" lon="4.64584">
        <ele>503.8</ele>
        <time>2019-09-01T20:06:31.877Z</time>
      </trkpt>
      <trkpt lat="45.6972" lon="4.64625">
        <ele>507.2</ele>
        <time>2019-09-01T20:06:32.571Z</time>
      </trkpt>
      <trkpt lat="45.69701" lon="4.64676">
        <ele>511.4</ele>
        <time>2019-09-01T20:06:33.375Z</time>
      </trkpt>
      <trkpt lat="45.69693" lon="4.64733">
        <ele>513.8</ele>
        <time>2019-09-01T20:06:34.183Z</time>
      </trkpt>
      <trkpt lat="45.69691" lon="4.64771">
        <ele>513.5</ele>
        <time>2019-09-01T20:06:34.724Z</time>
      </trkpt>
      <trkpt lat="45.69693" lon="4.6481">
        <ele>513.8</ele>
        <time>2019-09-01T20:06:35.264Z</time>
      </trkpt>
      <trkpt lat="45.69699" lon="4.64859">
        <ele>513.8</ele>
        <time>2019-09-01T20:06:35.971Z</time>
      </trkpt>
      <trkpt lat="45.69722" lon="4.64953">
        <ele>513</ele>
        <time>2019-09-01T20:06:37.358Z</time>
      </trkpt>
      <trkpt lat="45.6973" lon="4.64994">
        <ele>514.7</ele>
        <time>2019-09-01T20:06:37.960Z</time>
      </trkpt>
      <trkpt lat="45.69734" lon="4.65037">
        <ele>515.9</ele>
        <time>2019-09-01T20:06:38.572Z</time>
      </trkpt>
      <trkpt lat="45.69738" lon="4.65046">
        <ele>516.1</ele>
        <time>2019-09-01T20:06:38.704Z</time>
      </trkpt>
      <trkpt lat="45.6974" lon="4.65048">
        <ele>516.3</ele>
        <time>2019-09-01T20:06:38.770Z</time>
      </trkpt>
      <trkpt lat="45.69752" lon="4.65056">
        <ele>517.1</ele>
        <time>2019-09-01T20:06:39.035Z</time>
      </trkpt>
      <trkpt lat="45.69811" lon="4.65064">
        <ele>517</ele>
        <time>2019-09-01T20:06:40.212Z</time>
      </trkpt>
      <trkpt lat="45.69845" lon="4.65066">
        <ele>516.7</ele>
        <time>2019-09-01T20:06:40.892Z</time>
      </trkpt>
      <trkpt lat="45.69874" lon="4.65071">
        <ele>515.8</ele>
        <time>2019-09-01T20:06:41.491Z</time>
      </trkpt>
      <trkpt lat="45.69968" lon="4.65081">
        <ele>514.5</ele>
        <time>2019-09-01T20:06:43.362Z</time>
      </trkpt>
      <trkpt lat="45.6999" lon="4.6508">
        <ele>514.7</ele>
        <time>2019-09-01T20:06:43.819Z</time>
      </trkpt>
      <trkpt lat="45.70007" lon="4.65082">
        <ele>514</ele>
        <time>2019-09-01T20:06:44.149Z</time>
      </trkpt>
      <trkpt lat="45.70045" lon="4.65083">
        <ele>511.9</ele>
        <time>2019-09-01T20:06:44.919Z</time>
      </trkpt>
      <trkpt lat="45.70068" lon="4.6508">
        <ele>510.4</ele>
        <time>2019-09-01T20:06:45.369Z</time>
      </trkpt>
      <trkpt lat="45.70091" lon="4.65071">
        <ele>509.5</ele>
        <time>2019-09-01T20:06:45.847Z</time>
      </trkpt>
      <trkpt lat="45.70097" lon="4.65067">
        <ele>509.3</ele>
        <time>2019-09-01T20:06:45.992Z</time>
      </trkpt>
      <trkpt lat="45.7012" lon="4.65043">
        <ele>510.3</ele>
        <time>2019-09-01T20:06:46.555Z</time>
      </trkpt>
      <trkpt lat="45.70143" lon="4.65022">
        <ele>511.2</ele>
        <time>2019-09-01T20:06:47.106Z</time>
      </trkpt>
      <trkpt lat="45.70154" lon="4.65009">
        <ele>510.3</ele>
        <time>2019-09-01T20:06:47.387Z</time>
      </trkpt>
      <trkpt lat="45.70182" lon="4.64953">
        <ele>507.8</ele>
        <time>2019-09-01T20:06:48.354Z</time>
      </trkpt>
      <trkpt lat="45.70215" lon="4.64939">
        <ele>507.3</ele>
        <time>2019-09-01T20:06:49.043Z</time>
      </trkpt>
      <trkpt lat="45.7022" lon="4.64934">
        <ele>507.7</ele>
        <time>2019-09-01T20:06:49.173Z</time>
      </trkpt>
      <trkpt lat="45.70247" lon="4.64882">
        <ele>507.7</ele>
        <time>2019-09-01T20:06:50.073Z</time>
      </trkpt>
      <trkpt lat="45.70268" lon="4.6487">
        <ele>508.9</ele>
        <time>2019-09-01T20:06:50.528Z</time>
      </trkpt>
      <trkpt lat="45.70278" lon="4.64862">
        <ele>510.9</ele>
        <time>2019-09-01T20:06:50.763Z</time>
      </trkpt>
      <trkpt lat="45.70303" lon="4.64834">
        <ele>517.9</ele>
        <time>2019-09-01T20:06:51.391Z</time>
      </trkpt>
      <trkpt lat="45.70309" lon="4.64824">
        <ele>519.2</ele>
        <time>2019-09-01T20:06:51.583Z</time>
      </trkpt>
      <trkpt lat="45.70321" lon="4.64789">
        <ele>521.7</ele>
        <time>2019-09-01T20:06:52.115Z</time>
      </trkpt>
      <trkpt lat="45.70329" lon="4.64773">
        <ele>521.9</ele>
        <time>2019-09-01T20:06:52.395Z</time>
      </trkpt>
      <trkpt lat="45.70335" lon="4.64772">
        <ele>520.9</ele>
        <time>2019-09-01T20:06:52.514Z</time>
      </trkpt>
      <trkpt lat="45.70371" lon="4.64788">
        <ele>518.3</ele>
        <time>2019-09-01T20:06:53.264Z</time>
      </trkpt>
      <trkpt lat="45.70381" lon="4.64795">
        <ele>519.7</ele>
        <time>2019-09-01T20:06:53.488Z</time>
      </trkpt>
      <trkpt lat="45.70385" lon="4.648">
        <ele>519.8</ele>
        <time>2019-09-01T20:06:53.596Z</time>
      </trkpt>
      <trkpt lat="45.70391" lon="4.64857">
        <ele>513.5</ele>
        <time>2019-09-01T20:06:54.410Z</time>
      </trkpt>
      <trkpt lat="45.70394" lon="4.64867">
        <ele>513.2</ele>
        <time>2019-09-01T20:06:54.561Z</time>
      </trkpt>
      <trkpt lat="45.7042" lon="4.64926">
        <ele>516.5</ele>
        <time>2019-09-01T20:06:55.545Z</time>
      </trkpt>
      <trkpt lat="45.7043" lon="4.64972">
        <ele>516</ele>
        <time>2019-09-01T20:06:56.207Z</time>
      </trkpt>
      <trkpt lat="45.70442" lon="4.64999">
        <ele>517.5</ele>
        <time>2019-09-01T20:06:56.663Z</time>
      </trkpt>
      <trkpt lat="45.70435" lon="4.65081">
        <ele>514.5</ele>
        <time>2019-09-01T20:06:57.816Z</time>
      </trkpt>
      <trkpt lat="45.70435" lon="4.65123">
        <ele>512.7</ele>
        <time>2019-09-01T20:06:58.395Z</time>
      </trkpt>
      <trkpt lat="45.70447" lon="4.65181">
        <ele>509.4</ele>
        <time>2019-09-01T20:06:59.252Z</time>
      </trkpt>
      <trkpt lat="45.70453" lon="4.652">
        <ele>507.9</ele>
        <time>2019-09-01T20:06:59.536Z</time>
      </trkpt>
      <trkpt lat="45.70501" lon="4.65292">
        <ele>500.5</ele>
        <time>2019-09-01T20:07:01.154Z</time>
      </trkpt>
      <trkpt lat="45.70529" lon="4.6533">
        <ele>496.5</ele>
        <time>2019-09-01T20:07:01.919Z</time>
      </trkpt>
      <trkpt lat="45.70548" lon="4.65347">
        <ele>494</ele>
        <time>2019-09-01T20:07:02.365Z</time>
      </trkpt>
      <trkpt lat="45.70565" lon="4.65358">
        <ele>492.1</ele>
        <time>2019-09-01T20:07:02.746Z</time>
      </trkpt>
      <trkpt lat="45.70582" lon="4.65374">
        <ele>488.7</ele>
        <time>2019-09-01T20:07:03.161Z</time>
      </trkpt>
      <trkpt lat="45.7062" lon="4.65434">
        <ele>478.1</ele>
        <time>2019-09-01T20:07:04.285Z</time>
      </trkpt>
      <trkpt lat="45.70636" lon="4.65469">
        <ele>473.5</ele>
        <time>2019-09-01T20:07:04.863Z</time>
      </trkpt>
      <trkpt lat="45.70651" lon="4.65488">
        <ele>469.8</ele>
        <time>2019-09-01T20:07:05.279Z</time>
      </trkpt>
      <trkpt lat="45.70659" lon="4.65494">
        <ele>468.5</ele>
        <time>2019-09-01T20:07:05.450Z</time>
      </trkpt>
      <trkpt lat="45.70663" lon="4.6549">
        <ele>468.7</ele>
        <time>2019-09-01T20:07:05.547Z</time>
      </trkpt>
      <trkpt lat="45.70666" lon="4.65481">
        <ele>469.9</ele>
        <time>2019-09-01T20:07:05.691Z</time>
      </trkpt>
      <trkpt lat="45.70677" lon="4.6546">
        <ele>472.6</ele>
        <time>2019-09-01T20:07:06.058Z</time>
      </trkpt>
      <trkpt lat="45.70684" lon="4.65439">
        <ele>475</ele>
        <time>2019-09-01T20:07:06.387Z</time>
      </trkpt>
      <trkpt lat="45.70685" lon="4.65429">
        <ele>476</ele>
        <time>2019-09-01T20:07:06.526Z</time>
      </trkpt>
      <trkpt lat="45.70683" lon="4.65417">
        <ele>477.4</ele>
        <time>2019-09-01T20:07:06.696Z</time>
      </trkpt>
      <trkpt lat="45.70674" lon="4.65394">
        <ele>480.2</ele>
        <time>2019-09-01T20:07:07.067Z</time>
      </trkpt>
      <trkpt lat="45.70673" lon="4.65378">
        <ele>482.8</ele>
        <time>2019-09-01T20:07:07.291Z</time>
      </trkpt>
      <trkpt lat="45.70677" lon="4.65368">
        <ele>484.4</ele>
        <time>2019-09-01T20:07:07.446Z</time>
      </trkpt>
      <trkpt lat="45.70686" lon="4.65357">
        <ele>486</ele>
        <time>2019-09-01T20:07:07.690Z</time>
      </trkpt>
      <trkpt lat="45.70695" lon="4.65339">
        <ele>488.2</ele>
        <time>2019-09-01T20:07:07.992Z</time>
      </trkpt>
      <trkpt lat="45.70715" lon="4.65263">
        <ele>498.2</ele>
        <time>2019-09-01T20:07:09.132Z</time>
      </trkpt>
      <trkpt lat="45.70725" lon="4.65246">
        <ele>499.7</ele>
        <time>2019-09-01T20:07:09.439Z</time>
      </trkpt>
      <trkpt lat="45.70733" lon="4.65243">
        <ele>500.2</ele>
        <time>2019-09-01T20:07:09.600Z</time>
      </trkpt>
      <trkpt lat="45.70739" lon="4.65245">
        <ele>500.1</ele>
        <time>2019-09-01T20:07:09.739Z</time>
      </trkpt>
      <trkpt lat="45.70749" lon="4.65251">
        <ele>499.9</ele>
        <time>2019-09-01T20:07:09.960Z</time>
      </trkpt>
      <trkpt lat="45.70772" lon="4.65282">
        <ele>500.4</ele>
        <time>2019-09-01T20:07:10.576Z</time>
      </trkpt>
      <trkpt lat="45.70785" lon="4.65291">
        <ele>500.8</ele>
        <time>2019-09-01T20:07:10.879Z</time>
      </trkpt>
      <trkpt lat="45.708" lon="4.65296">
        <ele>502.3</ele>
        <time>2019-09-01T20:07:11.188Z</time>
      </trkpt>
      <trkpt lat="45.70815" lon="4.65294">
        <ele>504.3</ele>
        <time>2019-09-01T20:07:11.485Z</time>
      </trkpt>
      <trkpt lat="45.70829" lon="4.65289">
        <ele>506.7</ele>
        <time>2019-09-01T20:07:11.772Z</time>
      </trkpt>
      <trkpt lat="45.70841" lon="4.65289">
        <ele>508.1</ele>
        <time>2019-09-01T20:07:12.021Z</time>
      </trkpt>
      <trkpt lat="45.70869" lon="4.65296">
        <ele>510</ele>
        <time>2019-09-01T20:07:12.582Z</time>
      </trkpt>
      <trkpt lat="45.70881" lon="4.65298">
        <ele>512.3</ele>
        <time>2019-09-01T20:07:12.829Z</time>
      </trkpt>
      <trkpt lat="45.70903" lon="4.65305">
        <ele>515.7</ele>
        <time>2019-09-01T20:07:13.286Z</time>
      </trkpt>
      <trkpt lat="45.70933" lon="4.65328">
        <ele>518</ele>
        <time>2019-09-01T20:07:13.960Z</time>
      </trkpt>
      <trkpt lat="45.70945" lon="4.65335">
        <ele>519.9</ele>
        <time>2019-09-01T20:07:14.209Z</time>
      </trkpt>
      <trkpt lat="45.70959" lon="4.65348">
        <ele>521.8</ele>
        <time>2019-09-01T20:07:14.548Z</time>
      </trkpt>
      <trkpt lat="45.70983" lon="4.65394">
        <ele>524.6</ele>
        <time>2019-09-01T20:07:15.363Z</time>
      </trkpt>
      <trkpt lat="45.70995" lon="4.65408">
        <ele>525.7</ele>
        <time>2019-09-01T20:07:15.658Z</time>
      </trkpt>
      <trkpt lat="45.7102" lon="4.6542">
        <ele>527.1</ele>
        <time>2019-09-01T20:07:16.196Z</time>
      </trkpt>
      <trkpt lat="45.71037" lon="4.65422">
        <ele>527.8</ele>
        <time>2019-09-01T20:07:16.528Z</time>
      </trkpt>
      <trkpt lat="45.7105" lon="4.65421">
        <ele>528.5</ele>
        <time>2019-09-01T20:07:16.804Z</time>
      </trkpt>
      <trkpt lat="45.71055" lon="4.65425">
        <ele>528.4</ele>
        <time>2019-09-01T20:07:16.921Z</time>
      </trkpt>
      <trkpt lat="45.7107" lon="4.65454">
        <ele>526</ele>
        <time>2019-09-01T20:07:17.424Z</time>
      </trkpt>
      <trkpt lat="45.71136" lon="4.65553">
        <ele>518</ele>
        <time>2019-09-01T20:07:19.331Z</time>
      </trkpt>
      <trkpt lat="45.71176" lon="4.65618">
        <ele>517.9</ele>
        <time>2019-09-01T20:07:20.546Z</time>
      </trkpt>
      <trkpt lat="45.71196" lon="4.6566">
        <ele>518.7</ele>
        <time>2019-09-01T20:07:21.249Z</time>
      </trkpt>
      <trkpt lat="45.71233" lon="4.6575">
        <ele>513.2</ele>
        <time>2019-09-01T20:07:22.720Z</time>
      </trkpt>
      <trkpt lat="45.71245" lon="4.65768">
        <ele>510.5</ele>
        <time>2019-09-01T20:07:23.064Z</time>
      </trkpt>
      <trkpt lat="45.71251" lon="4.65776">
        <ele>509.1</ele>
        <time>2019-09-01T20:07:23.223Z</time>
      </trkpt>
      <trkpt lat="45.71298" lon="4.65811">
        <ele>498.3</ele>
        <time>2019-09-01T20:07:24.300Z</time>
      </trkpt>
      <trkpt lat="45.71317" lon="4.65828">
        <ele>494.9</ele>
        <time>2019-09-01T20:07:24.750Z</time>
      </trkpt>
      <trkpt lat="45.71327" lon="4.65838">
        <ele>493.1</ele>
        <time>2019-09-01T20:07:24.985Z</time>
      </trkpt>
      <trkpt lat="45.71357" lon="4.65879">
        <ele>487.4</ele>
        <time>2019-09-01T20:07:25.822Z</time>
      </trkpt>
      <trkpt lat="45.71361" lon="4.6588">
        <ele>486.7</ele>
        <time>2019-09-01T20:07:25.895Z</time>
      </trkpt>
      <trkpt lat="45.71353" lon="4.65868">
        <ele>487.9</ele>
        <time>2019-09-01T20:07:26.128Z</time>
      </trkpt>
      <trkpt lat="45.71356" lon="4.65852">
        <ele>487.1</ele>
        <time>2019-09-01T20:07:26.357Z</time>
      </trkpt>
      <trkpt lat="45.71346" lon="4.65763">
        <ele>487.5</ele>
        <time>2019-09-01T20:07:27.626Z</time>
      </trkpt>
      <trkpt lat="45.71358" lon="4.65685">
        <ele>478.3</ele>
        <time>2019-09-01T20:07:28.740Z</time>
      </trkpt>
      <trkpt lat="45.71376" lon="4.65621">
        <ele>465.5</ele>
        <time>2019-09-01T20:07:29.707Z</time>
      </trkpt>
      <trkpt lat="45.71379" lon="4.65601">
        <ele>463.1</ele>
        <time>2019-09-01T20:07:29.989Z</time>
      </trkpt>
      <trkpt lat="45.71383" lon="4.65573">
        <ele>459.1</ele>
        <time>2019-09-01T20:07:30.396Z</time>
      </trkpt>
      <trkpt lat="45.71382" lon="4.65535">
        <ele>453.9</ele>
        <time>2019-09-01T20:07:30.926Z</time>
      </trkpt>
      <trkpt lat="45.71384" lon="4.65527">
        <ele>452.6</ele>
        <time>2019-09-01T20:07:31.039Z</time>
      </trkpt>
      <trkpt lat="45.7139" lon="4.65517">
        <ele>452.5</ele>
        <time>2019-09-01T20:07:31.216Z</time>
      </trkpt>
      <trkpt lat="45.71425" lon="4.65503">
        <ele>447.5</ele>
        <time>2019-09-01T20:07:31.946Z</time>
      </trkpt>
      <trkpt lat="45.7143" lon="4.65496">
        <ele>448.3</ele>
        <time>2019-09-01T20:07:32.091Z</time>
      </trkpt>
      <trkpt lat="45.71434" lon="4.6548">
        <ele>450.6</ele>
        <time>2019-09-01T20:07:32.335Z</time>
      </trkpt>
      <trkpt lat="45.71433" lon="4.65456">
        <ele>452.4</ele>
        <time>2019-09-01T20:07:32.678Z</time>
      </trkpt>
      <trkpt lat="45.71427" lon="4.65438">
        <ele>453.5</ele>
        <time>2019-09-01T20:07:32.942Z</time>
      </trkpt>
      <trkpt lat="45.71408" lon="4.65414">
        <ele>456.8</ele>
        <time>2019-09-01T20:07:33.469Z</time>
      </trkpt>
      <trkpt lat="45.71363" lon="4.65365">
        <ele>458.2</ele>
        <time>2019-09-01T20:07:34.595Z</time>
      </trkpt>
      <trkpt lat="45.71359" lon="4.65359">
        <ele>459</ele>
        <time>2019-09-01T20:07:34.713Z</time>
      </trkpt>
      <trkpt lat="45.71356" lon="4.65348">
        <ele>460.3</ele>
        <time>2019-09-01T20:07:34.878Z</time>
      </trkpt>
      <trkpt lat="45.71362" lon="4.65333">
        <ele>458.5</ele>
        <time>2019-09-01T20:07:35.126Z</time>
      </trkpt>
      <trkpt lat="45.71376" lon="4.65317">
        <ele>457.7</ele>
        <time>2019-09-01T20:07:35.478Z</time>
      </trkpt>
      <trkpt lat="45.71394" lon="4.65263">
        <ele>463</ele>
        <time>2019-09-01T20:07:36.312Z</time>
      </trkpt>
      <trkpt lat="45.71402" lon="4.65224">
        <ele>463.9</ele>
        <time>2019-09-01T20:07:36.889Z</time>
      </trkpt>
      <trkpt lat="45.71403" lon="4.65205">
        <ele>463.9</ele>
        <time>2019-09-01T20:07:37.150Z</time>
      </trkpt>
      <trkpt lat="45.71413" lon="4.65167">
        <ele>462</ele>
        <time>2019-09-01T20:07:37.720Z</time>
      </trkpt>
      <trkpt lat="45.71427" lon="4.65152">
        <ele>457.8</ele>
        <time>2019-09-01T20:07:38.064Z</time>
      </trkpt>
      <trkpt lat="45.71435" lon="4.65148">
        <ele>455.9</ele>
        <time>2019-09-01T20:07:38.239Z</time>
      </trkpt>
      <trkpt lat="45.71446" lon="4.65149">
        <ele>452.4</ele>
        <time>2019-09-01T20:07:38.460Z</time>
      </trkpt>
      <trkpt lat="45.71469" lon="4.65154">
        <ele>447.9</ele>
        <time>2019-09-01T20:07:38.927Z</time>
      </trkpt>
      <trkpt lat="45.71516" lon="4.65154">
        <ele>443.5</ele>
        <time>2019-09-01T20:07:39.869Z</time>
      </trkpt>
      <trkpt lat="45.71531" lon="4.65144">
        <ele>446.4</ele>
        <time>2019-09-01T20:07:40.192Z</time>
      </trkpt>
      <trkpt lat="45.71562" lon="4.65102">
        <ele>448</ele>
        <time>2019-09-01T20:07:41.052Z</time>
      </trkpt>
      <trkpt lat="45.71616" lon="4.65048">
        <ele>441.5</ele>
        <time>2019-09-01T20:07:42.365Z</time>
      </trkpt>
      <trkpt lat="45.71645" lon="4.65008">
        <ele>437.5</ele>
        <time>2019-09-01T20:07:43.182Z</time>
      </trkpt>
      <trkpt lat="45.71653" lon="4.64983">
        <ele>437.8</ele>
        <time>2019-09-01T20:07:43.560Z</time>
      </trkpt>
      <trkpt lat="45.71654" lon="4.64971">
        <ele>438.2</ele>
        <time>2019-09-01T20:07:43.735Z</time>
      </trkpt>
      <trkpt lat="45.71653" lon="4.64948">
        <ele>439.3</ele>
        <time>2019-09-01T20:07:44.055Z</time>
      </trkpt>
      <trkpt lat="45.71625" lon="4.64789">
        <ele>438.9</ele>
        <time>2019-09-01T20:07:46.342Z</time>
      </trkpt>
      <trkpt lat="45.71616" lon="4.6476">
        <ele>436.6</ele>
        <time>2019-09-01T20:07:46.801Z</time>
      </trkpt>
      <trkpt lat="45.71611" lon="4.6475">
        <ele>436.2</ele>
        <time>2019-09-01T20:07:46.963Z</time>
      </trkpt>
      <trkpt lat="45.71575" lon="4.64702">
        <ele>435.3</ele>
        <time>2019-09-01T20:07:47.950Z</time>
      </trkpt>
      <trkpt lat="45.71559" lon="4.64642">
        <ele>434.9</ele>
        <time>2019-09-01T20:07:48.847Z</time>
      </trkpt>
      <trkpt lat="45.7153" lon="4.64576">
        <ele>433.2</ele>
        <time>2019-09-01T20:07:49.944Z</time>
      </trkpt>
      <trkpt lat="45.71528" lon="4.64566">
        <ele>433.4</ele>
        <time>2019-09-01T20:07:50.081Z</time>
      </trkpt>
      <trkpt lat="45.71531" lon="4.6455">
        <ele>433.8</ele>
        <time>2019-09-01T20:07:50.317Z</time>
      </trkpt>
      <trkpt lat="45.7154" lon="4.6454">
        <ele>435.1</ele>
        <time>2019-09-01T20:07:50.548Z</time>
      </trkpt>
      <trkpt lat="45.71563" lon="4.64519">
        <ele>439.2</ele>
        <time>2019-09-01T20:07:51.098Z</time>
      </trkpt>
      <trkpt lat="45.71577" lon="4.64512">
        <ele>441.8</ele>
        <time>2019-09-01T20:07:51.387Z</time>
      </trkpt>
      <trkpt lat="45.71584" lon="4.64514">
        <ele>441.8</ele>
        <time>2019-09-01T20:07:51.541Z</time>
      </trkpt>
      <trkpt lat="45.71604" lon="4.64526">
        <ele>443.4</ele>
        <time>2019-09-01T20:07:51.963Z</time>
      </trkpt>
      <trkpt lat="45.71614" lon="4.64522">
        <ele>446</ele>
        <time>2019-09-01T20:07:52.174Z</time>
      </trkpt>
      <trkpt lat="45.71641" lon="4.64521">
        <ele>448.5</ele>
        <time>2019-09-01T20:07:52.715Z</time>
      </trkpt>
      <trkpt lat="45.7165" lon="4.64517">
        <ele>449.1</ele>
        <time>2019-09-01T20:07:52.903Z</time>
      </trkpt>
      <trkpt lat="45.71658" lon="4.6451">
        <ele>450</ele>
        <time>2019-09-01T20:07:53.085Z</time>
      </trkpt>
      <trkpt lat="45.7168" lon="4.64476">
        <ele>450.3</ele>
        <time>2019-09-01T20:07:53.727Z</time>
      </trkpt>
      <trkpt lat="45.71693" lon="4.64447">
        <ele>449.2</ele>
        <time>2019-09-01T20:07:54.215Z</time>
      </trkpt>
      <trkpt lat="45.71703" lon="4.64418">
        <ele>446.1</ele>
        <time>2019-09-01T20:07:54.671Z</time>
      </trkpt>
      <trkpt lat="45.71712" lon="4.64375">
        <ele>440.9</ele>
        <time>2019-09-01T20:07:55.306Z</time>
      </trkpt>
      <trkpt lat="45.71717" lon="4.64336">
        <ele>434.9</ele>
        <time>2019-09-01T20:07:55.860Z</time>
      </trkpt>
      <trkpt lat="45.71716" lon="4.64325">
        <ele>433.2</ele>
        <time>2019-09-01T20:07:56.009Z</time>
      </trkpt>
      <trkpt lat="45.71701" lon="4.64279">
        <ele>429.7</ele>
        <time>2019-09-01T20:07:56.713Z</time>
      </trkpt>
      <trkpt lat="45.71695" lon="4.6422">
        <ele>427.4</ele>
        <time>2019-09-01T20:07:57.546Z</time>
      </trkpt>
      <trkpt lat="45.71671" lon="4.64147">
        <ele>419.8</ele>
        <time>2019-09-01T20:07:58.677Z</time>
      </trkpt>
      <trkpt lat="45.71669" lon="4.64098">
        <ele>413.9</ele>
        <time>2019-09-01T20:07:59.373Z</time>
      </trkpt>
      <trkpt lat="45.71664" lon="4.64027">
        <ele>408.7</ele>
        <time>2019-09-01T20:08:00.374Z</time>
      </trkpt>
      <trkpt lat="45.71672" lon="4.64006">
        <ele>407.4</ele>
        <time>2019-09-01T20:08:00.700Z</time>
      </trkpt>
      <trkpt lat="45.71677" lon="4.63997">
        <ele>406.7</ele>
        <time>2019-09-01T20:08:00.863Z</time>
      </trkpt>
      <trkpt lat="45.71691" lon="4.63983">
        <ele>406</ele>
        <time>2019-09-01T20:08:01.208Z</time>
      </trkpt>
      <trkpt lat="45.71706" lon="4.63974">
        <ele>403.6</ele>
        <time>2019-09-01T20:08:01.526Z</time>
      </trkpt>
      <trkpt lat="45.71716" lon="4.63962">
        <ele>401.5</ele>
        <time>2019-09-01T20:08:01.795Z</time>
      </trkpt>
      <trkpt lat="45.71727" lon="4.63937">
        <ele>400.7</ele>
        <time>2019-09-01T20:08:02.203Z</time>
      </trkpt>
      <trkpt lat="45.71731" lon="4.63918">
        <ele>400.1</ele>
        <time>2019-09-01T20:08:02.489Z</time>
      </trkpt>
      <trkpt lat="45.71733" lon="4.63896">
        <ele>399.2</ele>
        <time>2019-09-01T20:08:02.791Z</time>
      </trkpt>
      <trkpt lat="45.71732" lon="4.63853">
        <ele>398</ele>
        <time>2019-09-01T20:08:03.393Z</time>
      </trkpt>
      <trkpt lat="45.71728" lon="4.63821">
        <ele>397.3</ele>
        <time>2019-09-01T20:08:03.852Z</time>
      </trkpt>
      <trkpt lat="45.7171" lon="4.63719">
        <ele>390.3</ele>
        <time>2019-09-01T20:08:05.322Z</time>
      </trkpt>
      <trkpt lat="45.71709" lon="4.63711">
        <ele>390.3</ele>
        <time>2019-09-01T20:08:05.438Z</time>
      </trkpt>
      <trkpt lat="45.71709" lon="4.63706">
        <ele>390.1</ele>
        <time>2019-09-01T20:08:05.516Z</time>
      </trkpt>
      <trkpt lat="45.71711" lon="4.63703">
        <ele>389.9</ele>
        <time>2019-09-01T20:08:05.567Z</time>
      </trkpt>
      <trkpt lat="45.71714" lon="4.63705">
        <ele>389.7</ele>
        <time>2019-09-01T20:08:05.629Z</time>
      </trkpt>
      <trkpt lat="45.7172" lon="4.63714">
        <ele>389.2</ele>
        <time>2019-09-01T20:08:05.809Z</time>
      </trkpt>
      <trkpt lat="45.71753" lon="4.63775">
        <ele>387.1</ele>
        <time>2019-09-01T20:08:06.879Z</time>
      </trkpt>
      <trkpt lat="45.71761" lon="4.63805">
        <ele>386.4</ele>
        <time>2019-09-01T20:08:07.333Z</time>
      </trkpt>
      <trkpt lat="45.71778" lon="4.63888">
        <ele>381.8</ele>
        <time>2019-09-01T20:08:08.538Z</time>
      </trkpt>
      <trkpt lat="45.71785" lon="4.6391">
        <ele>380.1</ele>
        <time>2019-09-01T20:08:08.876Z</time>
      </trkpt>
      <trkpt lat="45.71815" lon="4.63982">
        <ele>371.8</ele>
        <time>2019-09-01T20:08:10.055Z</time>
      </trkpt>
      <trkpt lat="45.7182" lon="4.63981">
        <ele>370.7</ele>
        <time>2019-09-01T20:08:10.143Z</time>
      </trkpt>
      <trkpt lat="45.71829" lon="4.63974">
        <ele>367.9</ele>
        <time>2019-09-01T20:08:10.361Z</time>
      </trkpt>
      <trkpt lat="45.71864" lon="4.63953">
        <ele>367.9</ele>
        <time>2019-09-01T20:08:11.115Z</time>
      </trkpt>
      <trkpt lat="45.71877" lon="4.63949">
        <ele>368.9</ele>
        <time>2019-09-01T20:08:11.382Z</time>
      </trkpt>
      <trkpt lat="45.71898" lon="4.63955">
        <ele>370</ele>
        <time>2019-09-01T20:08:11.800Z</time>
      </trkpt>
      <trkpt lat="45.71947" lon="4.64003">
        <ele>370.1</ele>
        <time>2019-09-01T20:08:12.998Z</time>
      </trkpt>
      <trkpt lat="45.71955" lon="4.64013">
        <ele>370</ele>
        <time>2019-09-01T20:08:13.213Z</time>
      </trkpt>
      <trkpt lat="45.71973" lon="4.64046">
        <ele>369</ele>
        <time>2019-09-01T20:08:13.799Z</time>
      </trkpt>
      <trkpt lat="45.71986" lon="4.6409">
        <ele>369.1</ele>
        <time>2019-09-01T20:08:14.466Z</time>
      </trkpt>
      <trkpt lat="45.71993" lon="4.64159">
        <ele>366.7</ele>
        <time>2019-09-01T20:08:15.435Z</time>
      </trkpt>
      <trkpt lat="45.71997" lon="4.64249">
        <ele>366.4</ele>
        <time>2019-09-01T20:08:16.705Z</time>
      </trkpt>
      <trkpt lat="45.72004" lon="4.64341">
        <ele>363.6</ele>
        <time>2019-09-01T20:08:18.001Z</time>
      </trkpt>
      <trkpt lat="45.72008" lon="4.64374">
        <ele>363.5</ele>
        <time>2019-09-01T20:08:18.472Z</time>
      </trkpt>
      <trkpt lat="45.72015" lon="4.64405">
        <ele>363.7</ele>
        <time>2019-09-01T20:08:18.930Z</time>
      </trkpt>
      <trkpt lat="45.72037" lon="4.6446">
        <ele>363.5</ele>
        <time>2019-09-01T20:08:19.804Z</time>
      </trkpt>
      <trkpt lat="45.72141" lon="4.64686">
        <ele>371.6</ele>
        <time>2019-09-01T20:08:23.594Z</time>
      </trkpt>
      <trkpt lat="45.72164" lon="4.64751">
        <ele>373.3</ele>
        <time>2019-09-01T20:08:24.617Z</time>
      </trkpt>
      <trkpt lat="45.72209" lon="4.64892">
        <ele>376.3</ele>
        <time>2019-09-01T20:08:26.791Z</time>
      </trkpt>
      <trkpt lat="45.72225" lon="4.64926">
        <ele>376.3</ele>
        <time>2019-09-01T20:08:27.358Z</time>
      </trkpt>
      <trkpt lat="45.72243" lon="4.64952">
        <ele>375.7</ele>
        <time>2019-09-01T20:08:27.870Z</time>
      </trkpt>
      <trkpt lat="45.72253" lon="4.6496">
        <ele>375.9</ele>
        <time>2019-09-01T20:08:28.089Z</time>
      </trkpt>
      <trkpt lat="45.72263" lon="4.64966">
        <ele>375.5</ele>
        <time>2019-09-01T20:08:28.323Z</time>
      </trkpt>
      <trkpt lat="45.7229" lon="4.64969">
        <ele>374.2</ele>
        <time>2019-09-01T20:08:28.861Z</time>
      </trkpt>
      <trkpt lat="45.72305" lon="4.64966">
        <ele>373.3</ele>
        <time>2019-09-01T20:08:29.150Z</time>
      </trkpt>
      <trkpt lat="45.72325" lon="4.64958">
        <ele>372.1</ele>
        <time>2019-09-01T20:08:29.581Z</time>
      </trkpt>
      <trkpt lat="45.7234" lon="4.64954">
        <ele>371.7</ele>
        <time>2019-09-01T20:08:29.876Z</time>
      </trkpt>
      <trkpt lat="45.72355" lon="4.64958">
        <ele>371.9</ele>
        <time>2019-09-01T20:08:30.184Z</time>
      </trkpt>
      <trkpt lat="45.72363" lon="4.64963">
        <ele>371.8</ele>
        <time>2019-09-01T20:08:30.355Z</time>
      </trkpt>
      <trkpt lat="45.72372" lon="4.64981">
        <ele>372.1</ele>
        <time>2019-09-01T20:08:30.676Z</time>
      </trkpt>
      <trkpt lat="45.72374" lon="4.64993">
        <ele>372.6</ele>
        <time>2019-09-01T20:08:30.838Z</time>
      </trkpt>
      <trkpt lat="45.72375" lon="4.65014">
        <ele>373.5</ele>
        <time>2019-09-01T20:08:31.135Z</time>
      </trkpt>
      <trkpt lat="45.72375" lon="4.65139">
        <ele>375.4</ele>
        <time>2019-09-01T20:08:32.889Z</time>
      </trkpt>
      <trkpt lat="45.72378" lon="4.65167">
        <ele>376</ele>
        <time>2019-09-01T20:08:33.288Z</time>
      </trkpt>
      <trkpt lat="45.72383" lon="4.65195">
        <ele>376.2</ele>
        <time>2019-09-01T20:08:33.691Z</time>
      </trkpt>
      <trkpt lat="45.72397" lon="4.65248">
        <ele>377.6</ele>
        <time>2019-09-01T20:08:34.486Z</time>
      </trkpt>
      <trkpt lat="45.7242" lon="4.65297">
        <ele>379.7</ele>
        <time>2019-09-01T20:08:35.307Z</time>
      </trkpt>
      <trkpt lat="45.72425" lon="4.65304">
        <ele>379.9</ele>
        <time>2019-09-01T20:08:35.441Z</time>
      </trkpt>
      <trkpt lat="45.72446" lon="4.65327">
        <ele>380.5</ele>
        <time>2019-09-01T20:08:35.972Z</time>
      </trkpt>
      <trkpt lat="45.72452" lon="4.65332">
        <ele>380.4</ele>
        <time>2019-09-01T20:08:36.106Z</time>
      </trkpt>
      <trkpt lat="45.72493" lon="4.65357">
        <ele>381</ele>
        <time>2019-09-01T20:08:37.011Z</time>
      </trkpt>
      <trkpt lat="45.72521" lon="4.65377">
        <ele>380.4</ele>
        <time>2019-09-01T20:08:37.624Z</time>
      </trkpt>
      <trkpt lat="45.72552" lon="4.65398">
        <ele>379</ele>
        <time>2019-09-01T20:08:38.317Z</time>
      </trkpt>
      <trkpt lat="45.72605" lon="4.65427">
        <ele>377.8</ele>
        <time>2019-09-01T20:08:39.456Z</time>
      </trkpt>
      <trkpt lat="45.72611" lon="4.65432">
        <ele>377.9</ele>
        <time>2019-09-01T20:08:39.593Z</time>
      </trkpt>
      <trkpt lat="45.7262" lon="4.65445">
        <ele>378.6</ele>
        <time>2019-09-01T20:08:39.859Z</time>
      </trkpt>
      <trkpt lat="45.72633" lon="4.65485">
        <ele>379.8</ele>
        <time>2019-09-01T20:08:40.464Z</time>
      </trkpt>
      <trkpt lat="45.72642" lon="4.6551">
        <ele>380.5</ele>
        <time>2019-09-01T20:08:40.867Z</time>
      </trkpt>
      <trkpt lat="45.72667" lon="4.65543">
        <ele>381.9</ele>
        <time>2019-09-01T20:08:41.551Z</time>
      </trkpt>
      <trkpt lat="45.72675" lon="4.6555">
        <ele>381.8</ele>
        <time>2019-09-01T20:08:41.728Z</time>
      </trkpt>
      <trkpt lat="45.72697" lon="4.65562">
        <ele>381.6</ele>
        <time>2019-09-01T20:08:42.206Z</time>
      </trkpt>
      <trkpt lat="45.72716" lon="4.6558">
        <ele>380.4</ele>
        <time>2019-09-01T20:08:42.650Z</time>
      </trkpt>
      <trkpt lat="45.72831" lon="4.6567">
        <ele>373.8</ele>
        <time>2019-09-01T20:08:45.284Z</time>
      </trkpt>
      <trkpt lat="45.72868" lon="4.65692">
        <ele>372</ele>
        <time>2019-09-01T20:08:46.090Z</time>
      </trkpt>
      <trkpt lat="45.72872" lon="4.65697">
        <ele>371.4</ele>
        <time>2019-09-01T20:08:46.185Z</time>
      </trkpt>
      <trkpt lat="45.72871" lon="4.65709">
        <ele>370.2</ele>
        <time>2019-09-01T20:08:46.364Z</time>
      </trkpt>
      <trkpt lat="45.72867" lon="4.65728">
        <ele>368.6</ele>
        <time>2019-09-01T20:08:46.637Z</time>
      </trkpt>
      <trkpt lat="45.72873" lon="4.65747">
        <ele>367.6</ele>
        <time>2019-09-01T20:08:46.937Z</time>
      </trkpt>
      <trkpt lat="45.72966" lon="4.65919">
        <ele>353.4</ele>
        <time>2019-09-01T20:08:49.974Z</time>
      </trkpt>
      <trkpt lat="45.72983" lon="4.65947">
        <ele>349.4</ele>
        <time>2019-09-01T20:08:50.499Z</time>
      </trkpt>
      <trkpt lat="45.73026" lon="4.65978">
        <ele>341.3</ele>
        <time>2019-09-01T20:08:51.460Z</time>
      </trkpt>
      <trkpt lat="45.73033" lon="4.65985">
        <ele>342.1</ele>
        <time>2019-09-01T20:08:51.630Z</time>
      </trkpt>
      <trkpt lat="45.73037" lon="4.65995">
        <ele>343.1</ele>
        <time>2019-09-01T20:08:51.790Z</time>
      </trkpt>
      <trkpt lat="45.73039" lon="4.66016">
        <ele>345</ele>
        <time>2019-09-01T20:08:52.085Z</time>
      </trkpt>
      <trkpt lat="45.73035" lon="4.66042">
        <ele>346.5</ele>
        <time>2019-09-01T20:08:52.464Z</time>
      </trkpt>
      <trkpt lat="45.73012" lon="4.66113">
        <ele>347.9</ele>
        <time>2019-09-01T20:08:53.553Z</time>
      </trkpt>
      <trkpt lat="45.72996" lon="4.66188">
        <ele>349.1</ele>
        <time>2019-09-01T20:08:54.656Z</time>
      </trkpt>
      <trkpt lat="45.72994" lon="4.66209">
        <ele>350.4</ele>
        <time>2019-09-01T20:08:54.951Z</time>
      </trkpt>
      <trkpt lat="45.72995" lon="4.66272">
        <ele>356.6</ele>
        <time>2019-09-01T20:08:55.827Z</time>
      </trkpt>
      <trkpt lat="45.7299" lon="4.66309">
        <ele>359.4</ele>
        <time>2019-09-01T20:08:56.354Z</time>
      </trkpt>
      <trkpt lat="45.72993" lon="4.66315">
        <ele>360.1</ele>
        <time>2019-09-01T20:08:56.459Z</time>
      </trkpt>
      <trkpt lat="45.73004" lon="4.6633">
        <ele>362.5</ele>
        <time>2019-09-01T20:08:56.771Z</time>
      </trkpt>
      <trkpt lat="45.73002" lon="4.66372">
        <ele>362.8</ele>
        <time>2019-09-01T20:08:57.358Z</time>
      </trkpt>
      <trkpt lat="45.73034" lon="4.66618">
        <ele>363.6</ele>
        <time>2019-09-01T20:09:00.854Z</time>
      </trkpt>
      <trkpt lat="45.73047" lon="4.66673">
        <ele>362.6</ele>
        <time>2019-09-01T20:09:01.674Z</time>
      </trkpt>
      <trkpt lat="45.7317" lon="4.66926">
        <ele>361.6</ele>
        <time>2019-09-01T20:09:05.987Z</time>
      </trkpt>
      <trkpt lat="45.73177" lon="4.66941">
        <ele>362.3</ele>
        <time>2019-09-01T20:09:06.236Z</time>
      </trkpt>
      <trkpt lat="45.73178" lon="4.66948">
        <ele>362.2</ele>
        <time>2019-09-01T20:09:06.336Z</time>
      </trkpt>
      <trkpt lat="45.73172" lon="4.66959">
        <ele>361.6</ele>
        <time>2019-09-01T20:09:06.525Z</time>
      </trkpt>
      <trkpt lat="45.73143" lon="4.66978">
        <ele>360.2</ele>
        <time>2019-09-01T20:09:07.151Z</time>
      </trkpt>
      <trkpt lat="45.73101" lon="4.67012">
        <ele>357.1</ele>
        <time>2019-09-01T20:09:08.121Z</time>
      </trkpt>
      <trkpt lat="45.73059" lon="4.67048">
        <ele>353.3</ele>
        <time>2019-09-01T20:09:09.104Z</time>
      </trkpt>
      <trkpt lat="45.73007" lon="4.67101">
        <ele>348.2</ele>
        <time>2019-09-01T20:09:10.393Z</time>
      </trkpt>
      <trkpt lat="45.72991" lon="4.67123">
        <ele>346.9</ele>
        <time>2019-09-01T20:09:10.821Z</time>
      </trkpt>
      <trkpt lat="45.72978" lon="4.67147">
        <ele>345.9</ele>
        <time>2019-09-01T20:09:11.261Z</time>
      </trkpt>
      <trkpt lat="45.72954" lon="4.67201">
        <ele>344</ele>
        <time>2019-09-01T20:09:12.149Z</time>
      </trkpt>
      <trkpt lat="45.72915" lon="4.67309">
        <ele>338.7</ele>
        <time>2019-09-01T20:09:13.851Z</time>
      </trkpt>
      <trkpt lat="45.72894" lon="4.67356">
        <ele>337</ele>
        <time>2019-09-01T20:09:14.637Z</time>
      </trkpt>
      <trkpt lat="45.72869" lon="4.67401">
        <ele>336</ele>
        <time>2019-09-01T20:09:15.435Z</time>
      </trkpt>
      <trkpt lat="45.72847" lon="4.67428">
        <ele>334.9</ele>
        <time>2019-09-01T20:09:16.017Z</time>
      </trkpt>
      <trkpt lat="45.72825" lon="4.67453">
        <ele>333.4</ele>
        <time>2019-09-01T20:09:16.582Z</time>
      </trkpt>
      <trkpt lat="45.72806" lon="4.67471">
        <ele>332.1</ele>
        <time>2019-09-01T20:09:17.038Z</time>
      </trkpt>
      <trkpt lat="45.72795" lon="4.67469">
        <ele>331.7</ele>
        <time>2019-09-01T20:09:17.259Z</time>
      </trkpt>
      <trkpt lat="45.72786" lon="4.67471">
        <ele>331.3</ele>
        <time>2019-09-01T20:09:17.432Z</time>
      </trkpt>
      <trkpt lat="45.72768" lon="4.67482">
        <ele>330.7</ele>
        <time>2019-09-01T20:09:17.827Z</time>
      </trkpt>
      <trkpt lat="45.72752" lon="4.67495">
        <ele>330.1</ele>
        <time>2019-09-01T20:09:18.194Z</time>
      </trkpt>
      <trkpt lat="45.7274" lon="4.67517">
        <ele>328.9</ele>
        <time>2019-09-01T20:09:18.596Z</time>
      </trkpt>
      <trkpt lat="45.72728" lon="4.67545">
        <ele>326.7</ele>
        <time>2019-09-01T20:09:19.052Z</time>
      </trkpt>
      <trkpt lat="45.72722" lon="4.67552">
        <ele>326.2</ele>
        <time>2019-09-01T20:09:19.206Z</time>
      </trkpt>
      <trkpt lat="45.72698" lon="4.67563">
        <ele>324.4</ele>
        <time>2019-09-01T20:09:19.711Z</time>
      </trkpt>
      <trkpt lat="45.72678" lon="4.67567">
        <ele>321.6</ele>
        <time>2019-09-01T20:09:20.109Z</time>
      </trkpt>
      <trkpt lat="45.72642" lon="4.67582">
        <ele>316.3</ele>
        <time>2019-09-01T20:09:20.878Z</time>
      </trkpt>
      <trkpt lat="45.72624" lon="4.67588">
        <ele>314</ele>
        <time>2019-09-01T20:09:21.235Z</time>
      </trkpt>
      <trkpt lat="45.72594" lon="4.67594">
        <ele>309.4</ele>
        <time>2019-09-01T20:09:21.841Z</time>
      </trkpt>
      <trkpt lat="45.72581" lon="4.67601">
        <ele>306.8</ele>
        <time>2019-09-01T20:09:22.128Z</time>
      </trkpt>
      <trkpt lat="45.72562" lon="4.67619">
        <ele>303.2</ele>
        <time>2019-09-01T20:09:22.587Z</time>
      </trkpt>
      <trkpt lat="45.72547" lon="4.6764">
        <ele>302.8</ele>
        <time>2019-09-01T20:09:23.002Z</time>
      </trkpt>
      <trkpt lat="45.7254" lon="4.67656">
        <ele>302.4</ele>
        <time>2019-09-01T20:09:23.268Z</time>
      </trkpt>
      <trkpt lat="45.72529" lon="4.67693">
        <ele>300.4</ele>
        <time>2019-09-01T20:09:23.823Z</time>
      </trkpt>
      <trkpt lat="45.72523" lon="4.67719">
        <ele>301.2</ele>
        <time>2019-09-01T20:09:24.204Z</time>
      </trkpt>
      <trkpt lat="45.72504" lon="4.6777">
        <ele>299</ele>
        <time>2019-09-01T20:09:25.012Z</time>
      </trkpt>
      <trkpt lat="45.72486" lon="4.67812">
        <ele>298.2</ele>
        <time>2019-09-01T20:09:25.711Z</time>
      </trkpt>
      <trkpt lat="45.72489" lon="4.67833">
        <ele>299.9</ele>
        <time>2019-09-01T20:09:26.020Z</time>
      </trkpt>
      <trkpt lat="45.72495" lon="4.67849">
        <ele>300.2</ele>
        <time>2019-09-01T20:09:26.267Z</time>
      </trkpt>
      <trkpt lat="45.72505" lon="4.67908">
        <ele>296.6</ele>
        <time>2019-09-01T20:09:27.114Z</time>
      </trkpt>
      <trkpt lat="45.72515" lon="4.67952">
        <ele>295</ele>
        <time>2019-09-01T20:09:27.760Z</time>
      </trkpt>
      <trkpt lat="45.72521" lon="4.67991">
        <ele>294</ele>
        <time>2019-09-01T20:09:28.327Z</time>
      </trkpt>
      <trkpt lat="45.72523" lon="4.68018">
        <ele>292.6</ele>
        <time>2019-09-01T20:09:28.701Z</time>
      </trkpt>
      <trkpt lat="45.72537" lon="4.68076">
        <ele>291</ele>
        <time>2019-09-01T20:09:29.555Z</time>
      </trkpt>
      <trkpt lat="45.72541" lon="4.68112">
        <ele>291</ele>
        <time>2019-09-01T20:09:30.076Z</time>
      </trkpt>
      <trkpt lat="45.72546" lon="4.68116">
        <ele>290.9</ele>
        <time>2019-09-01T20:09:30.184Z</time>
      </trkpt>
      <trkpt lat="45.72557" lon="4.68117">
        <ele>290.8</ele>
        <time>2019-09-01T20:09:30.410Z</time>
      </trkpt>
      <trkpt lat="45.72565" lon="4.68119">
        <ele>290.9</ele>
        <time>2019-09-01T20:09:30.572Z</time>
      </trkpt>
      <trkpt lat="45.72582" lon="4.68132">
        <ele>289.8</ele>
        <time>2019-09-01T20:09:30.966Z</time>
      </trkpt>
      <trkpt lat="45.72601" lon="4.68141">
        <ele>289.5</ele>
        <time>2019-09-01T20:09:31.362Z</time>
      </trkpt>
      <trkpt lat="45.72622" lon="4.68146">
        <ele>290.1</ele>
        <time>2019-09-01T20:09:31.783Z</time>
      </trkpt>
      <trkpt lat="45.72649" lon="4.68163">
        <ele>289.3</ele>
        <time>2019-09-01T20:09:32.379Z</time>
      </trkpt>
      <trkpt lat="45.72668" lon="4.68178">
        <ele>289.3</ele>
        <time>2019-09-01T20:09:32.805Z</time>
      </trkpt>
      <trkpt lat="45.72686" lon="4.68196">
        <ele>288.6</ele>
        <time>2019-09-01T20:09:33.248Z</time>
      </trkpt>
      <trkpt lat="45.72692" lon="4.68214">
        <ele>287.7</ele>
        <time>2019-09-01T20:09:33.524Z</time>
      </trkpt>
      <trkpt lat="45.72694" lon="4.68237">
        <ele>286.5</ele>
        <time>2019-09-01T20:09:33.854Z</time>
      </trkpt>
      <trkpt lat="45.72692" lon="4.68272">
        <ele>286.3</ele>
        <time>2019-09-01T20:09:34.345Z</time>
      </trkpt>
      <trkpt lat="45.72696" lon="4.6829">
        <ele>286.1</ele>
        <time>2019-09-01T20:09:34.603Z</time>
      </trkpt>
      <trkpt lat="45.72702" lon="4.68305">
        <ele>286.3</ele>
        <time>2019-09-01T20:09:34.851Z</time>
      </trkpt>
      <trkpt lat="45.72708" lon="4.68314">
        <ele>286.5</ele>
        <time>2019-09-01T20:09:35.025Z</time>
      </trkpt>
      <trkpt lat="45.72717" lon="4.68319">
        <ele>286.5</ele>
        <time>2019-09-01T20:09:35.212Z</time>
      </trkpt>
      <trkpt lat="45.72723" lon="4.68325">
        <ele>286.3</ele>
        <time>2019-09-01T20:09:35.354Z</time>
      </trkpt>
      <trkpt lat="45.72724" lon="4.68329">
        <ele>286.2</ele>
        <time>2019-09-01T20:09:35.419Z</time>
      </trkpt>
      <trkpt lat="45.7273" lon="4.68333">
        <ele>286</ele>
        <time>2019-09-01T20:09:35.552Z</time>
      </trkpt>
      <trkpt lat="45.72738" lon="4.6833">
        <ele>286.1</ele>
        <time>2019-09-01T20:09:35.708Z</time>
      </trkpt>
      <trkpt lat="45.72767" lon="4.68326">
        <ele>285.8</ele>
        <time>2019-09-01T20:09:36.302Z</time>
      </trkpt>
      <trkpt lat="45.72782" lon="4.68321">
        <ele>286.2</ele>
        <time>2019-09-01T20:09:36.599Z</time>
      </trkpt>
      <trkpt lat="45.72788" lon="4.68321">
        <ele>286.8</ele>
        <time>2019-09-01T20:09:36.721Z</time>
      </trkpt>
      <trkpt lat="45.72793" lon="4.68324">
        <ele>287</ele>
        <time>2019-09-01T20:09:36.832Z</time>
      </trkpt>
      <trkpt lat="45.72805" lon="4.68335">
        <ele>286.8</ele>
        <time>2019-09-01T20:09:37.124Z</time>
      </trkpt>
      <trkpt lat="45.72813" lon="4.68356">
        <ele>286.4</ele>
        <time>2019-09-01T20:09:37.449Z</time>
      </trkpt>
      <trkpt lat="45.72816" lon="4.68373">
        <ele>286.6</ele>
        <time>2019-09-01T20:09:37.704Z</time>
      </trkpt>
      <trkpt lat="45.72816" lon="4.68386">
        <ele>286.5</ele>
        <time>2019-09-01T20:09:37.880Z</time>
      </trkpt>
      <trkpt lat="45.7281" lon="4.6841">
        <ele>285.4</ele>
        <time>2019-09-01T20:09:38.245Z</time>
      </trkpt>
      <trkpt lat="45.72797" lon="4.68428">
        <ele>284.9</ele>
        <time>2019-09-01T20:09:38.607Z</time>
      </trkpt>
      <trkpt lat="45.72796" lon="4.68431">
        <ele>284.8</ele>
        <time>2019-09-01T20:09:38.653Z</time>
      </trkpt>
      <trkpt lat="45.72798" lon="4.68439">
        <ele>284.8</ele>
        <time>2019-09-01T20:09:38.767Z</time>
      </trkpt>
      <trkpt lat="45.72798" lon="4.68458">
        <ele>284.4</ele>
        <time>2019-09-01T20:09:39.039Z</time>
      </trkpt>
      <trkpt lat="45.72802" lon="4.68473">
        <ele>284</ele>
        <time>2019-09-01T20:09:39.254Z</time>
      </trkpt>
      <trkpt lat="45.72797" lon="4.68464">
        <ele>284.2</ele>
        <time>2019-09-01T20:09:39.405Z</time>
      </trkpt>
      <trkpt lat="45.728" lon="4.68484">
        <ele>284.2</ele>
        <time>2019-09-01T20:09:39.687Z</time>
      </trkpt>
      <trkpt lat="45.7282" lon="4.68572">
        <ele>282.5</ele>
        <time>2019-09-01T20:09:40.985Z</time>
      </trkpt>
      <trkpt lat="45.72825" lon="4.68581">
        <ele>282.7</ele>
        <time>2019-09-01T20:09:41.144Z</time>
      </trkpt>
      <trkpt lat="45.72835" lon="4.68623">
        <ele>281.5</ele>
        <time>2019-09-01T20:09:41.760Z</time>
      </trkpt>
      <trkpt lat="45.72822" lon="4.68668">
        <ele>281.6</ele>
        <time>2019-09-01T20:09:42.449Z</time>
      </trkpt>
      <trkpt lat="45.72827" lon="4.687">
        <ele>282.2</ele>
        <time>2019-09-01T20:09:42.908Z</time>
      </trkpt>
      <trkpt lat="45.72855" lon="4.68767">
        <ele>281.6</ele>
        <time>2019-09-01T20:09:43.994Z</time>
      </trkpt>
      <trkpt lat="45.72857" lon="4.68769">
        <ele>281.8</ele>
        <time>2019-09-01T20:09:44.049Z</time>
      </trkpt>
      <trkpt lat="45.72854" lon="4.68771">
        <ele>281.4</ele>
        <time>2019-09-01T20:09:44.123Z</time>
      </trkpt>
      <trkpt lat="45.7286" lon="4.68792">
        <ele>280.5</ele>
        <time>2019-09-01T20:09:44.442Z</time>
      </trkpt>
      <trkpt lat="45.72868" lon="4.68848">
        <ele>279.7</ele>
        <time>2019-09-01T20:09:45.247Z</time>
      </trkpt>
      <trkpt lat="45.72882" lon="4.68893">
        <ele>280.4</ele>
        <time>2019-09-01T20:09:45.927Z</time>
      </trkpt>
      <trkpt lat="45.72885" lon="4.68921">
        <ele>279.5</ele>
        <time>2019-09-01T20:09:46.321Z</time>
      </trkpt>
      <trkpt lat="45.72881" lon="4.69002">
        <ele>278.8</ele>
        <time>2019-09-01T20:09:47.458Z</time>
      </trkpt>
      <trkpt lat="45.72887" lon="4.6903">
        <ele>277.1</ele>
        <time>2019-09-01T20:09:47.875Z</time>
      </trkpt>
      <trkpt lat="45.72885" lon="4.69074">
        <ele>277</ele>
        <time>2019-09-01T20:09:48.487Z</time>
      </trkpt>
      <trkpt lat="45.72878" lon="4.69121">
        <ele>277.2</ele>
        <time>2019-09-01T20:09:49.163Z</time>
      </trkpt>
      <trkpt lat="45.72879" lon="4.69142">
        <ele>277</ele>
        <time>2019-09-01T20:09:49.449Z</time>
      </trkpt>
      <trkpt lat="45.72887" lon="4.69164">
        <ele>277.1</ele>
        <time>2019-09-01T20:09:49.794Z</time>
      </trkpt>
      <trkpt lat="45.7289" lon="4.69168">
        <ele>276.9</ele>
        <time>2019-09-01T20:09:49.890Z</time>
      </trkpt>
      <trkpt lat="45.72905" lon="4.69174">
        <ele>276.3</ele>
        <time>2019-09-01T20:09:50.188Z</time>
      </trkpt>
      <trkpt lat="45.72919" lon="4.69185">
        <ele>276</ele>
        <time>2019-09-01T20:09:50.508Z</time>
      </trkpt>
      <trkpt lat="45.72931" lon="4.69203">
        <ele>276</ele>
        <time>2019-09-01T20:09:50.858Z</time>
      </trkpt>
      <trkpt lat="45.72939" lon="4.69277">
        <ele>274.4</ele>
        <time>2019-09-01T20:09:51.911Z</time>
      </trkpt>
      <trkpt lat="45.72943" lon="4.69287">
        <ele>274.1</ele>
        <time>2019-09-01T20:09:52.072Z</time>
      </trkpt>
      <trkpt lat="45.72946" lon="4.69289">
        <ele>274</ele>
        <time>2019-09-01T20:09:52.145Z</time>
      </trkpt>
      <trkpt lat="45.72966" lon="4.69297">
        <ele>274.2</ele>
        <time>2019-09-01T20:09:52.542Z</time>
      </trkpt>
      <trkpt lat="45.72983" lon="4.69297">
        <ele>273.7</ele>
        <time>2019-09-01T20:09:52.885Z</time>
      </trkpt>
      <trkpt lat="45.73027" lon="4.69294">
        <ele>272.9</ele>
        <time>2019-09-01T20:09:53.784Z</time>
      </trkpt>
      <trkpt lat="45.73035" lon="4.69289">
        <ele>273.4</ele>
        <time>2019-09-01T20:09:53.940Z</time>
      </trkpt>
      <trkpt lat="45.73047" lon="4.69294">
        <ele>273.1</ele>
        <time>2019-09-01T20:09:54.203Z</time>
      </trkpt>
      <trkpt lat="45.73055" lon="4.69293">
        <ele>273.3</ele>
        <time>2019-09-01T20:09:54.352Z</time>
      </trkpt>
      <trkpt lat="45.73072" lon="4.693">
        <ele>272.4</ele>
        <time>2019-09-01T20:09:54.715Z</time>
      </trkpt>
      <trkpt lat="45.73085" lon="4.69311">
        <ele>272.3</ele>
        <time>2019-09-01T20:09:55.003Z</time>
      </trkpt>
      <trkpt lat="45.73089" lon="4.69336">
        <ele>273.3</ele>
        <time>2019-09-01T20:09:55.371Z</time>
      </trkpt>
      <trkpt lat="45.73093" lon="4.6935">
        <ele>274.4</ele>
        <time>2019-09-01T20:09:55.578Z</time>
      </trkpt>
      <trkpt lat="45.73118" lon="4.69361">
        <ele>272.8</ele>
        <time>2019-09-01T20:09:56.116Z</time>
      </trkpt>
      <trkpt lat="45.73122" lon="4.69362">
        <ele>273.3</ele>
        <time>2019-09-01T20:09:56.185Z</time>
      </trkpt>
      <trkpt lat="45.73135" lon="4.69359">
        <ele>274.8</ele>
        <time>2019-09-01T20:09:56.461Z</time>
      </trkpt>
      <trkpt lat="45.7314" lon="4.69359">
        <ele>275.2</ele>
        <time>2019-09-01T20:09:56.552Z</time>
      </trkpt>
      <trkpt lat="45.73143" lon="4.69363">
        <ele>275.5</ele>
        <time>2019-09-01T20:09:56.636Z</time>
      </trkpt>
      <trkpt lat="45.73141" lon="4.69376">
        <ele>275.4</ele>
        <time>2019-09-01T20:09:56.817Z</time>
      </trkpt>
      <trkpt lat="45.73135" lon="4.69399">
        <ele>276</ele>
        <time>2019-09-01T20:09:57.167Z</time>
      </trkpt>
      <trkpt lat="45.73127" lon="4.69402">
        <ele>275.9</ele>
        <time>2019-09-01T20:09:57.315Z</time>
      </trkpt>
      <trkpt lat="45.73117" lon="4.69389">
        <ele>276.5</ele>
        <time>2019-09-01T20:09:57.596Z</time>
      </trkpt>
      <trkpt lat="45.731" lon="4.69382">
        <ele>276.9</ele>
        <time>2019-09-01T20:09:57.954Z</time>
      </trkpt>
      <trkpt lat="45.73076" lon="4.69381">
        <ele>279.1</ele>
        <time>2019-09-01T20:09:58.419Z</time>
      </trkpt>
      <trkpt lat="45.7307" lon="4.69383">
        <ele>280</ele>
        <time>2019-09-01T20:09:58.556Z</time>
      </trkpt>
      <trkpt lat="45.73068" lon="4.69385">
        <ele>280.2</ele>
        <time>2019-09-01T20:09:58.592Z</time>
      </trkpt>
      <trkpt lat="45.73045" lon="4.69459">
        <ele>288.8</ele>
        <time>2019-09-01T20:09:59.729Z</time>
      </trkpt>
      <trkpt lat="45.73034" lon="4.69503">
        <ele>292.9</ele>
        <time>2019-09-01T20:10:00.393Z</time>
      </trkpt>
      <trkpt lat="45.73027" lon="4.69518">
        <ele>295.3</ele>
        <time>2019-09-01T20:10:00.635Z</time>
      </trkpt>
      <trkpt lat="45.73023" lon="4.69543">
        <ele>295.6</ele>
        <time>2019-09-01T20:10:00.990Z</time>
      </trkpt>
      <trkpt lat="45.73022" lon="4.69563">
        <ele>296.7</ele>
        <time>2019-09-01T20:10:01.275Z</time>
      </trkpt>
      <trkpt lat="45.73011" lon="4.69609">
        <ele>301.4</ele>
        <time>2019-09-01T20:10:01.959Z</time>
      </trkpt>
      <trkpt lat="45.73002" lon="4.69633">
        <ele>304.3</ele>
        <time>2019-09-01T20:10:02.339Z</time>
      </trkpt>
      <trkpt lat="45.72991" lon="4.6965">
        <ele>306.5</ele>
        <time>2019-09-01T20:10:02.663Z</time>
      </trkpt>
      <trkpt lat="45.7299" lon="4.69655">
        <ele>306.7</ele>
        <time>2019-09-01T20:10:02.742Z</time>
      </trkpt>
      <trkpt lat="45.72993" lon="4.69659">
        <ele>306.2</ele>
        <time>2019-09-01T20:10:02.832Z</time>
      </trkpt>
      <trkpt lat="45.73006" lon="4.69663">
        <ele>303.9</ele>
        <time>2019-09-01T20:10:03.096Z</time>
      </trkpt>
      <trkpt lat="45.73037" lon="4.69664">
        <ele>299.1</ele>
        <time>2019-09-01T20:10:03.721Z</time>
      </trkpt>
      <trkpt lat="45.73055" lon="4.69662">
        <ele>296.6</ele>
        <time>2019-09-01T20:10:04.067Z</time>
      </trkpt>
      <trkpt lat="45.7307" lon="4.69669">
        <ele>296.5</ele>
        <time>2019-09-01T20:10:04.395Z</time>
      </trkpt>
      <trkpt lat="45.73091" lon="4.6969">
        <ele>297.3</ele>
        <time>2019-09-01T20:10:04.898Z</time>
      </trkpt>
      <trkpt lat="45.73099" lon="4.69702">
        <ele>298.2</ele>
        <time>2019-09-01T20:10:05.141Z</time>
      </trkpt>
      <trkpt lat="45.73111" lon="4.69734">
        <ele>301.7</ele>
        <time>2019-09-01T20:10:05.652Z</time>
      </trkpt>
      <trkpt lat="45.73126" lon="4.69747">
        <ele>300.2</ele>
        <time>2019-09-01T20:10:06.001Z</time>
      </trkpt>
      <trkpt lat="45.73159" lon="4.69783">
        <ele>299.2</ele>
        <time>2019-09-01T20:10:06.823Z</time>
      </trkpt>
      <trkpt lat="45.73175" lon="4.69795">
        <ele>297.1</ele>
        <time>2019-09-01T20:10:07.186Z</time>
      </trkpt>
      <trkpt lat="45.73183" lon="4.69794">
        <ele>294.1</ele>
        <time>2019-09-01T20:10:07.359Z</time>
      </trkpt>
      <trkpt lat="45.73204" lon="4.69817">
        <ele>294</ele>
        <time>2019-09-01T20:10:07.886Z</time>
      </trkpt>
      <trkpt lat="45.73225" lon="4.69837">
        <ele>293.6</ele>
        <time>2019-09-01T20:10:08.395Z</time>
      </trkpt>
      <trkpt lat="45.73241" lon="4.69858">
        <ele>292.7</ele>
        <time>2019-09-01T20:10:08.817Z</time>
      </trkpt>
      <trkpt lat="45.73261" lon="4.69894">
        <ele>289</ele>
        <time>2019-09-01T20:10:09.458Z</time>
      </trkpt>
      <trkpt lat="45.73286" lon="4.69912">
        <ele>277.2</ele>
        <time>2019-09-01T20:10:10.035Z</time>
      </trkpt>
      <trkpt lat="45.73297" lon="4.69922">
        <ele>275.4</ele>
        <time>2019-09-01T20:10:10.298Z</time>
      </trkpt>
      <trkpt lat="45.73306" lon="4.69935">
        <ele>276.4</ele>
        <time>2019-09-01T20:10:10.546Z</time>
      </trkpt>
      <trkpt lat="45.73319" lon="4.69945">
        <ele>276.2</ele>
        <time>2019-09-01T20:10:10.852Z</time>
      </trkpt>
      <trkpt lat="45.73334" lon="4.69971">
        <ele>280.3</ele>
        <time>2019-09-01T20:10:11.326Z</time>
      </trkpt>
      <trkpt lat="45.73345" lon="4.69983">
        <ele>280</ele>
        <time>2019-09-01T20:10:11.594Z</time>
      </trkpt>
      <trkpt lat="45.73359" lon="4.70005">
        <ele>282.1</ele>
        <time>2019-09-01T20:10:12.007Z</time>
      </trkpt>
      <trkpt lat="45.73366" lon="4.7003">
        <ele>285.9</ele>
        <time>2019-09-01T20:10:12.389Z</time>
      </trkpt>
      <trkpt lat="45.73372" lon="4.70044">
        <ele>285.7</ele>
        <time>2019-09-01T20:10:12.623Z</time>
      </trkpt>
      <trkpt lat="45.7338" lon="4.70068">
        <ele>285.6</ele>
        <time>2019-09-01T20:10:12.988Z</time>
      </trkpt>
      <trkpt lat="45.73381" lon="4.70081">
        <ele>286.1</ele>
        <time>2019-09-01T20:10:13.179Z</time>
      </trkpt>
      <trkpt lat="45.7339" lon="4.70118">
        <ele>282.4</ele>
        <time>2019-09-01T20:10:13.726Z</time>
      </trkpt>
      <trkpt lat="45.73393" lon="4.70138">
        <ele>281.4</ele>
        <time>2019-09-01T20:10:14.002Z</time>
      </trkpt>
      <trkpt lat="45.73395" lon="4.70167">
        <ele>281.7</ele>
        <time>2019-09-01T20:10:14.414Z</time>
      </trkpt>
      <trkpt lat="45.73399" lon="4.70182">
        <ele>280.9</ele>
        <time>2019-09-01T20:10:14.639Z</time>
      </trkpt>
      <trkpt lat="45.73409" lon="4.70196">
        <ele>278.2</ele>
        <time>2019-09-01T20:10:14.919Z</time>
      </trkpt>
      <trkpt lat="45.73431" lon="4.70218">
        <ele>273.8</ele>
        <time>2019-09-01T20:10:15.458Z</time>
      </trkpt>
      <trkpt lat="45.7345" lon="4.70226">
        <ele>269.3</ele>
        <time>2019-09-01T20:10:15.852Z</time>
      </trkpt>
      <trkpt lat="45.73465" lon="4.70239">
        <ele>267.9</ele>
        <time>2019-09-01T20:10:16.203Z</time>
      </trkpt>
      <trkpt lat="45.73471" lon="4.7024">
        <ele>266.2</ele>
        <time>2019-09-01T20:10:16.323Z</time>
      </trkpt>
      <trkpt lat="45.73494" lon="4.70262">
        <ele>261.1</ele>
        <time>2019-09-01T20:10:16.890Z</time>
      </trkpt>
      <trkpt lat="45.73496" lon="4.70271">
        <ele>260.8</ele>
        <time>2019-09-01T20:10:17.019Z</time>
      </trkpt>
      <trkpt lat="45.73495" lon="4.70291">
        <ele>261</ele>
        <time>2019-09-01T20:10:17.296Z</time>
      </trkpt>
      <trkpt lat="45.73489" lon="4.70334">
        <ele>260.8</ele>
        <time>2019-09-01T20:10:17.907Z</time>
      </trkpt>
      <trkpt lat="45.73486" lon="4.70369">
        <ele>263.5</ele>
        <time>2019-09-01T20:10:18.399Z</time>
      </trkpt>
      <trkpt lat="45.73488" lon="4.70393">
        <ele>264.1</ele>
        <time>2019-09-01T20:10:18.749Z</time>
      </trkpt>
      <trkpt lat="45.73481" lon="4.70478">
        <ele>263.9</ele>
        <time>2019-09-01T20:10:19.937Z</time>
      </trkpt>
      <trkpt lat="45.7347" lon="4.70514">
        <ele>260.1</ele>
        <time>2019-09-01T20:10:20.494Z</time>
      </trkpt>
      <trkpt lat="45.73445" lon="4.70567">
        <ele>258.4</ele>
        <time>2019-09-01T20:10:21.381Z</time>
      </trkpt>
      <trkpt lat="45.7343" lon="4.70608">
        <ele>255.6</ele>
        <time>2019-09-01T20:10:22.035Z</time>
      </trkpt>
      <trkpt lat="45.73423" lon="4.70616">
        <ele>256.5</ele>
        <time>2019-09-01T20:10:22.209Z</time>
      </trkpt>
      <trkpt lat="45.73418" lon="4.70628">
        <ele>255.8</ele>
        <time>2019-09-01T20:10:22.396Z</time>
      </trkpt>
      <trkpt lat="45.73407" lon="4.70646">
        <ele>255.3</ele>
        <time>2019-09-01T20:10:22.738Z</time>
      </trkpt>
      <trkpt lat="45.73405" lon="4.7066">
        <ele>254</ele>
        <time>2019-09-01T20:10:22.937Z</time>
      </trkpt>
      <trkpt lat="45.73407" lon="4.7067">
        <ele>252.8</ele>
        <time>2019-09-01T20:10:23.079Z</time>
      </trkpt>
      <trkpt lat="45.73419" lon="4.70713">
        <ele>250.4</ele>
        <time>2019-09-01T20:10:23.741Z</time>
      </trkpt>
      <trkpt lat="45.73427" lon="4.70718">
        <ele>250.3</ele>
        <time>2019-09-01T20:10:23.903Z</time>
      </trkpt>
      <trkpt lat="45.73445" lon="4.70719">
        <ele>250.4</ele>
        <time>2019-09-01T20:10:24.264Z</time>
      </trkpt>
      <trkpt lat="45.73452" lon="4.7073">
        <ele>251.1</ele>
        <time>2019-09-01T20:10:24.476Z</time>
      </trkpt>
      <trkpt lat="45.73455" lon="4.70731">
        <ele>251.1</ele>
        <time>2019-09-01T20:10:24.549Z</time>
      </trkpt>
      <trkpt lat="45.73461" lon="4.70733">
        <ele>251</ele>
        <time>2019-09-01T20:10:24.676Z</time>
      </trkpt>
      <trkpt lat="45.73475" lon="4.70732">
        <ele>250.2</ele>
        <time>2019-09-01T20:10:24.951Z</time>
      </trkpt>
      <trkpt lat="45.73482" lon="4.70719">
        <ele>250.3</ele>
        <time>2019-09-01T20:10:25.184Z</time>
      </trkpt>
      <trkpt lat="45.73491" lon="4.7071">
        <ele>251.8</ele>
        <time>2019-09-01T20:10:25.400Z</time>
      </trkpt>
      <trkpt lat="45.73504" lon="4.70714">
        <ele>250.7</ele>
        <time>2019-09-01T20:10:25.681Z</time>
      </trkpt>
      <trkpt lat="45.7351" lon="4.70714">
        <ele>250.9</ele>
        <time>2019-09-01T20:10:25.801Z</time>
      </trkpt>
      <trkpt lat="45.73512" lon="4.70711">
        <ele>251.4</ele>
        <time>2019-09-01T20:10:25.854Z</time>
      </trkpt>
      <trkpt lat="45.73512" lon="4.70706">
        <ele>252.3</ele>
        <time>2019-09-01T20:10:25.925Z</time>
      </trkpt>
      <trkpt lat="45.735" lon="4.70685">
        <ele>258.1</ele>
        <time>2019-09-01T20:10:26.313Z</time>
      </trkpt>
      <trkpt lat="45.73483" lon="4.70678">
        <ele>259.8</ele>
        <time>2019-09-01T20:10:26.657Z</time>
      </trkpt>
      <trkpt lat="45.73473" lon="4.70669">
        <ele>260.8</ele>
        <time>2019-09-01T20:10:26.903Z</time>
      </trkpt>
      <trkpt lat="45.73468" lon="4.70655">
        <ele>260.8</ele>
        <time>2019-09-01T20:10:27.114Z</time>
      </trkpt>
      <trkpt lat="45.73472" lon="4.70646">
        <ele>262.5</ele>
        <time>2019-09-01T20:10:27.272Z</time>
      </trkpt>
      <trkpt lat="45.73477" lon="4.70646">
        <ele>263.4</ele>
        <time>2019-09-01T20:10:27.356Z</time>
      </trkpt>
      <trkpt lat="45.73481" lon="4.7065">
        <ele>263.9</ele>
        <time>2019-09-01T20:10:27.459Z</time>
      </trkpt>
      <trkpt lat="45.73493" lon="4.70655">
        <ele>265.9</ele>
        <time>2019-09-01T20:10:27.713Z</time>
      </trkpt>
      <trkpt lat="45.73502" lon="4.70655">
        <ele>267.4</ele>
        <time>2019-09-01T20:10:27.890Z</time>
      </trkpt>
      <trkpt lat="45.73522" lon="4.7065">
        <ele>269.1</ele>
        <time>2019-09-01T20:10:28.295Z</time>
      </trkpt>
      <trkpt lat="45.73544" lon="4.70641">
        <ele>273.2</ele>
        <time>2019-09-01T20:10:28.754Z</time>
      </trkpt>
      <trkpt lat="45.73563" lon="4.70641">
        <ele>275.3</ele>
        <time>2019-09-01T20:10:29.147Z</time>
      </trkpt>
      <trkpt lat="45.73568" lon="4.70642">
        <ele>275.4</ele>
        <time>2019-09-01T20:10:29.239Z</time>
      </trkpt>
      <trkpt lat="45.73578" lon="4.70639">
        <ele>277.3</ele>
        <time>2019-09-01T20:10:29.452Z</time>
      </trkpt>
      <trkpt lat="45.73589" lon="4.70635">
        <ele>278.7</ele>
        <time>2019-09-01T20:10:29.667Z</time>
      </trkpt>
      <trkpt lat="45.73598" lon="4.70629">
        <ele>280.2</ele>
        <time>2019-09-01T20:10:29.882Z</time>
      </trkpt>
      <trkpt lat="45.73606" lon="4.70621">
        <ele>281.8</ele>
        <time>2019-09-01T20:10:30.068Z</time>
      </trkpt>
      <trkpt lat="45.73612" lon="4.7062">
        <ele>282.4</ele>
        <time>2019-09-01T20:10:30.181Z</time>
      </trkpt>
      <trkpt lat="45.73642" lon="4.70631">
        <ele>283.2</ele>
        <time>2019-09-01T20:10:30.809Z</time>
      </trkpt>
      <trkpt lat="45.73677" lon="4.70636">
        <ele>284.8</ele>
        <time>2019-09-01T20:10:31.518Z</time>
      </trkpt>
      <trkpt lat="45.73704" lon="4.70638">
        <ele>285.1</ele>
        <time>2019-09-01T20:10:32.061Z</time>
      </trkpt>
      <trkpt lat="45.73737" lon="4.70642">
        <ele>284</ele>
        <time>2019-09-01T20:10:32.709Z</time>
      </trkpt>
      <trkpt lat="45.73781" lon="4.70656">
        <ele>283.9</ele>
        <time>2019-09-01T20:10:33.618Z</time>
      </trkpt>
      <trkpt lat="45.73805" lon="4.70669">
        <ele>284.7</ele>
        <time>2019-09-01T20:10:34.130Z</time>
      </trkpt>
      <trkpt lat="45.73823" lon="4.70683">
        <ele>284.4</ele>
        <time>2019-09-01T20:10:34.551Z</time>
      </trkpt>
      <trkpt lat="45.7388" lon="4.7073">
        <ele>287.9</ele>
        <time>2019-09-01T20:10:35.859Z</time>
      </trkpt>
      <trkpt lat="45.73897" lon="4.70739">
        <ele>288.3</ele>
        <time>2019-09-01T20:10:36.231Z</time>
      </trkpt>
      <trkpt lat="45.73945" lon="4.70754">
        <ele>289.5</ele>
        <time>2019-09-01T20:10:37.208Z</time>
      </trkpt>
      <trkpt lat="45.73966" lon="4.70756">
        <ele>289.7</ele>
        <time>2019-09-01T20:10:37.645Z</time>
      </trkpt>
      <trkpt lat="45.73993" lon="4.70753">
        <ele>290.1</ele>
        <time>2019-09-01T20:10:38.179Z</time>
      </trkpt>
      <trkpt lat="45.74025" lon="4.70746">
        <ele>290.3</ele>
        <time>2019-09-01T20:10:38.833Z</time>
      </trkpt>
      <trkpt lat="45.74076" lon="4.70727">
        <ele>291.3</ele>
        <time>2019-09-01T20:10:39.877Z</time>
      </trkpt>
      <trkpt lat="45.74099" lon="4.70721">
        <ele>292.1</ele>
        <time>2019-09-01T20:10:40.357Z</time>
      </trkpt>
      <trkpt lat="45.74139" lon="4.70705">
        <ele>293.3</ele>
        <time>2019-09-01T20:10:41.178Z</time>
      </trkpt>
      <trkpt lat="45.74191" lon="4.70688">
        <ele>293.6</ele>
        <time>2019-09-01T20:10:42.255Z</time>
      </trkpt>
      <trkpt lat="45.74221" lon="4.7068">
        <ele>294</ele>
        <time>2019-09-01T20:10:42.866Z</time>
      </trkpt>
      <trkpt lat="45.7424" lon="4.70677">
        <ele>294.7</ele>
        <time>2019-09-01T20:10:43.244Z</time>
      </trkpt>
      <trkpt lat="45.74248" lon="4.70677">
        <ele>294.9</ele>
        <time>2019-09-01T20:10:43.404Z</time>
      </trkpt>
      <trkpt lat="45.74254" lon="4.70681">
        <ele>295.2</ele>
        <time>2019-09-01T20:10:43.533Z</time>
      </trkpt>
      <trkpt lat="45.74256" lon="4.70688">
        <ele>295.4</ele>
        <time>2019-09-01T20:10:43.645Z</time>
      </trkpt>
      <trkpt lat="45.74251" lon="4.70753">
        <ele>296.2</ele>
        <time>2019-09-01T20:10:44.563Z</time>
      </trkpt>
      <trkpt lat="45.74251" lon="4.70815">
        <ele>297</ele>
        <time>2019-09-01T20:10:45.424Z</time>
      </trkpt>
      <trkpt lat="45.74253" lon="4.7091">
        <ele>298</ele>
        <time>2019-09-01T20:10:46.756Z</time>
      </trkpt>
      <trkpt lat="45.74254" lon="4.70933">
        <ele>298</ele>
        <time>2019-09-01T20:10:47.074Z</time>
      </trkpt>
      <trkpt lat="45.74256" lon="4.7094">
        <ele>298</ele>
        <time>2019-09-01T20:10:47.180Z</time>
      </trkpt>
      <trkpt lat="45.74264" lon="4.7095">
        <ele>297.8</ele>
        <time>2019-09-01T20:10:47.392Z</time>
      </trkpt>
      <trkpt lat="45.74307" lon="4.70948">
        <ele>297</ele>
        <time>2019-09-01T20:10:48.256Z</time>
      </trkpt>
      <trkpt lat="45.74319" lon="4.70955">
        <ele>297.3</ele>
        <time>2019-09-01T20:10:48.514Z</time>
      </trkpt>
      <trkpt lat="45.74338" lon="4.70985">
        <ele>297</ele>
        <time>2019-09-01T20:10:49.084Z</time>
      </trkpt>
      <trkpt lat="45.74351" lon="4.70996">
        <ele>297</ele>
        <time>2019-09-01T20:10:49.382Z</time>
      </trkpt>
      <trkpt lat="45.74372" lon="4.70999">
        <ele>296.6</ele>
        <time>2019-09-01T20:10:49.820Z</time>
      </trkpt>
      <trkpt lat="45.74484" lon="4.70974">
        <ele>296.9</ele>
        <time>2019-09-01T20:10:52.089Z</time>
      </trkpt>
      <trkpt lat="45.74502" lon="4.70983">
        <ele>296.6</ele>
        <time>2019-09-01T20:10:52.460Z</time>
      </trkpt>
      <trkpt lat="45.74511" lon="4.71011">
        <ele>296</ele>
        <time>2019-09-01T20:10:52.893Z</time>
      </trkpt>
      <trkpt lat="45.7453" lon="4.711">
        <ele>294.4</ele>
        <time>2019-09-01T20:10:54.197Z</time>
      </trkpt>
      <trkpt lat="45.74556" lon="4.71234">
        <ele>292.6</ele>
        <time>2019-09-01T20:10:56.139Z</time>
      </trkpt>
      <trkpt lat="45.74568" lon="4.71288">
        <ele>291.8</ele>
        <time>2019-09-01T20:10:56.932Z</time>
      </trkpt>
      <trkpt lat="45.74581" lon="4.71389">
        <ele>291</ele>
        <time>2019-09-01T20:10:58.362Z</time>
      </trkpt>
      <trkpt lat="45.74591" lon="4.71496">
        <ele>290</ele>
        <time>2019-09-01T20:10:59.875Z</time>
      </trkpt>
      <trkpt lat="45.74591" lon="4.71646">
        <ele>289.8</ele>
        <time>2019-09-01T20:11:01.966Z</time>
      </trkpt>
      <trkpt lat="45.74578" lon="4.72099">
        <ele>285</ele>
        <time>2019-09-01T20:11:08.314Z</time>
      </trkpt>
      <trkpt lat="45.74578" lon="4.72159">
        <ele>284</ele>
        <time>2019-09-01T20:11:09.154Z</time>
      </trkpt>
      <trkpt lat="45.74581" lon="4.72227">
        <ele>283</ele>
        <time>2019-09-01T20:11:10.103Z</time>
      </trkpt>
      <trkpt lat="45.74579" lon="4.72258">
        <ele>283</ele>
        <time>2019-09-01T20:11:10.534Z</time>
      </trkpt>
    </trkseg>
  </trk>
</gpx>